GFSSGP_850_thetae_051.txt.gz
Theta_e
312 314 317 318 317 316 317 318 313 316 323 328 333 334 331 333 334 331 334 336 337 333 330 329 329 329 329 329 331 333 335 335 333 332 331 324 322 320 320 320 325 328 324 317 320 319 315 310 309
313 313 317 314 317 318 319 314 316 316 326 327 328 330 332 332 334 335 336 335 337 332 332 329 328 327 329 328 326 330 334 333 333 333 331 324 320 320 323 325 324 321 317 320 317 312 312 310 310
313 315 316 314 313 318 319 314 316 316 324 328 330 328 331 331 332 334 335 335 338 339 330 329 326 328 328 325 325 328 331 332 332 331 330 320 315 319 322 320 318 323 327 328 324 315 309 310 309
316 316 313 317 317 315 316 316 314 317 324 324 327 327 327 328 330 332 332 333 339 338 332 328 327 328 327 324 324 323 328 330 332 329 324 315 313 318 319 316 322 326 330 329 321 318 315 311 306
317 314 315 315 316 315 314 313 313 321 325 324 327 328 327 329 328 330 330 333 336 337 332 329 329 328 326 325 325 330 324 327 322 321 318 312 323 320 323 325 327 326 325 322 320 318 314 308 306
315 312 317 318 315 315 315 313 322 324 325 325 324 325 329 328 329 329 330 330 334 336 330 331 329 328 327 326 322 323 321 320 320 317 313 317 324 324 325 324 321 320 321 321 320 318 315 313 308
315 316 316 315 316 315 315 320 324 325 326 326 324 325 325 325 328 328 329 330 331 334 334 329 327 327 327 323 321 324 327 323 318 313 313 322 324 324 324 318 319 320 320 321 319 317 316 313 310
315 314 315 315 316 316 314 322 323 326 325 325 324 326 326 326 325 327 327 330 330 331 333 331 329 328 328 326 326 326 328 321 321 318 316 322 321 323 318 319 319 319 320 321 320 318 315 312 310
313 315 316 315 314 316 317 321 322 324 326 325 327 328 327 327 327 327 328 330 329 332 332 332 331 330 328 327 327 324 320 321 322 319 315 319 319 320 318 319 318 318 319 320 319 317 314 312 310
314 315 315 314 313 316 315 319 321 325 325 325 326 326 326 326 326 328 327 329 329 330 332 331 330 329 329 329 328 325 320 321 321 321 314 313 313 315 317 319 318 317 317 318 318 315 314 311 310
312 316 313 314 313 313 313 317 323 326 325 324 326 324 325 325 326 328 328 330 329 329 331 330 329 328 329 329 327 321 320 319 323 318 312 312 316 317 318 318 316 316 316 316 315 314 313 311 309
314 313 313 314 315 314 315 322 325 324 324 324 323 324 326 326 325 327 329 329 329 329 329 330 329 328 330 328 322 319 320 322 321 314 313 314 314 314 314 313 313 313 314 314 314 313 310 310 309
312 313 313 315 315 314 320 324 326 325 323 325 325 326 327 326 327 327 328 328 328 329 328 327 327 326 328 324 320 321 321 320 320 314 314 313 314 314 313 310 310 311 311 312 311 309 308 308 309
314 313 316 315 315 321 323 326 330 327 327 326 325 327 326 326 327 326 327 328 328 327 327 325 324 324 325 323 320 319 317 319 320 316 314 316 316 316 313 310 310 310 310 310 310 311 310 308 308
315 316 316 315 315 321 326 326 328 327 327 327 326 326 325 325 324 324 324 326 328 327 325 325 323 323 323 322 321 321 321 319 318 319 315 316 315 315 312 311 312 312 313 312 312 311 310 309 308
316 314 317 315 317 320 324 321 319 325 327 327 327 326 325 325 324 323 323 323 325 326 325 324 323 322 322 322 320 320 319 316 316 316 315 315 316 315 314 313 313 314 314 313 312 312 310 309 309
314 316 314 315 315 320 321 322 320 326 328 328 327 325 325 324 323 322 321 324 325 324 325 325 324 324 322 322 321 320 321 318 317 317 318 315 318 318 318 317 316 317 317 316 317 314 311 309 309
316 315 314 315 317 319 320 321 320 326 328 328 328 326 324 323 322 321 320 321 323 324 324 324 323 323 322 321 321 322 319 318 316 317 319 317 317 317 317 318 318 318 318 319 320 319 316 313 312
314 314 315 314 314 315 316 317 318 319 327 328 328 326 325 323 322 321 321 320 322 322 324 323 323 322 322 322 321 319 318 319 318 317 319 318 317 316 316 317 318 318 318 319 320 320 320 318 317
314 315 316 314 313 314 317 319 320 320 326 327 328 328 326 324 323 323 323 319 320 321 322 323 323 324 322 322 320 319 318 317 317 317 318 320 316 316 316 317 318 319 319 319 319 320 320 320 319
315 316 315 316 314 315 318 320 319 320 321 323 327 327 327 325 323 323 323 322 319 321 321 321 322 324 322 322 318 317 318 321 321 319 320 318 316 316 317 317 320 319 318 317 317 317 318 320 320
316 314 315 314 315 315 318 321 320 319 319 321 323 326 327 326 325 323 324 324 320 319 320 320 321 322 323 322 322 321 321 319 319 317 316 318 319 318 317 319 319 317 318 317 318 320 320 321 321
316 314 315 315 316 317 318 320 320 317 321 321 322 322 325 325 326 324 323 323 324 319 319 320 320 321 322 322 321 321 321 317 316 315 315 315 316 316 317 316 319 318 317 318 319 318 319 321 322
315 316 316 316 318 321 319 320 320 320 321 321 320 320 321 324 324 326 325 323 324 321 318 320 320 320 321 322 321 322 321 318 317 317 315 315 320 317 317 317 316 316 316 317 319 320 318 320 321
316 317 318 320 321 322 317 318 321 319 318 319 321 320 319 321 322 324 325 324 324 324 320 318 320 320 321 321 321 322 322 319 317 316 315 315 318 316 316 316 316 315 315 315 314 317 318 319 319
316 317 320 321 322 320 316 320 320 319 318 316 317 318 319 320 321 322 322 326 326 325 324 318 318 319 319 320 321 320 320 320 319 317 316 316 318 316 315 314 314 314 315 314 313 313 315 317 318
316 317 317 318 317 320 320 318 318 319 320 319 319 318 320 319 318 321 322 323 326 326 325 323 318 316 318 318 319 319 319 319 318 317 317 317 317 318 317 316 315 315 314 314 314 314 314 316 318
317 316 318 317 320 320 319 319 320 319 320 321 320 319 319 318 319 321 321 322 323 326 325 325 323 320 315 316 317 317 317 319 319 319 319 318 317 317 316 316 316 316 316 315 315 314 315 316 319
316 317 317 318 318 320 320 320 319 320 320 320 319 319 319 320 319 321 322 322 323 325 326 325 325 323 320 316 315 316 317 317 317 317 317 317 317 317 316 316 317 317 316 315 315 315 315 320 320
314 316 317 319 318 318 318 319 316 317 318 317 318 319 318 320 320 320 321 323 323 324 325 325 325 325 324 322 317 315 315 316 316 316 315 316 316 316 318 317 316 315 315 315 315 314 318 320 319

GFSSGP_850_thetae_054.txt.gz
Theta_e
312 315 317 319 322 322 322 322 321 321 324 326 333 333 331 331 332 333 338 334 338 339 339 332 332 331 330 326 331 332 336 334 332 327 324 322 322 320 321 322 330 334 331 328 329 321 318 314 318
313 314 318 319 321 321 323 322 322 322 322 328 332 330 332 332 335 337 338 335 337 337 338 336 332 330 329 330 333 333 336 335 332 327 324 322 321 320 322 324 330 331 327 323 324 324 320 310 311
312 315 319 321 321 321 322 322 322 321 321 327 329 331 332 332 334 337 334 336 338 336 337 336 330 330 330 331 333 334 336 334 330 327 325 324 321 320 322 325 327 324 319 323 321 320 310 311 311
315 317 317 320 321 321 321 322 321 321 324 326 327 328 331 332 333 336 333 333 337 336 338 337 329 328 329 330 332 335 336 334 331 328 327 326 321 317 324 326 322 322 326 325 312 311 310 310 309
317 317 319 320 321 321 321 321 320 321 324 326 328 328 329 334 332 332 333 331 334 337 337 336 330 328 328 331 332 335 334 333 331 328 327 322 317 316 323 323 324 325 326 316 311 310 307 308 308
318 318 318 319 321 321 321 321 320 323 324 326 327 327 328 333 332 334 330 332 333 337 338 336 332 328 328 330 331 332 332 331 332 328 323 317 318 319 323 325 325 328 326 318 315 308 306 306 306
319 319 318 319 321 321 321 322 323 323 325 326 328 328 328 330 331 332 329 331 332 335 336 335 333 329 328 329 329 328 330 328 329 323 319 314 320 321 324 325 326 325 321 318 313 312 307 305 305
317 318 318 318 321 321 319 322 322 324 323 327 327 328 328 331 327 326 327 329 331 332 336 333 331 330 329 329 329 331 330 328 323 321 317 319 324 324 324 320 321 321 320 317 315 313 309 307 306
316 318 318 318 320 320 319 321 322 325 324 328 329 329 331 329 329 329 332 329 329 330 331 332 329 329 326 325 328 326 325 323 321 319 319 315 325 325 319 320 320 321 320 317 316 313 310 307 306
317 319 319 318 320 320 320 320 320 323 324 326 328 330 329 328 329 330 330 332 330 330 332 332 328 323 327 327 325 327 328 326 321 318 318 325 325 323 324 319 320 321 321 319 316 313 310 311 310
317 318 318 318 318 319 320 320 320 323 324 325 327 329 329 329 328 329 331 328 330 329 329 332 331 324 323 326 327 326 325 323 320 320 320 319 324 320 319 318 319 320 321 319 316 313 317 317 317
317 317 316 317 318 319 320 320 323 324 324 325 326 327 328 329 329 330 329 328 329 329 329 331 331 330 326 327 327 327 326 323 323 321 317 318 322 319 323 323 324 322 322 321 319 319 319 318 317
317 318 317 317 317 318 319 321 323 324 325 326 328 328 328 329 329 328 328 328 328 328 329 329 329 328 327 329 329 328 325 322 323 318 320 321 317 320 322 323 324 323 323 322 321 320 318 317 316
317 317 318 318 318 319 320 321 327 323 328 329 329 328 328 328 328 328 327 328 328 329 328 328 327 327 326 328 328 325 324 322 322 320 314 316 316 318 318 319 319 320 322 321 320 318 317 316 316
316 318 318 319 318 319 321 322 327 324 329 329 330 328 327 327 327 326 327 327 327 327 327 327 326 327 327 326 322 324 322 320 319 320 315 316 316 315 314 314 316 317 317 318 317 317 316 316 316
317 318 319 319 319 319 323 321 322 325 329 329 329 328 327 326 326 325 324 325 327 327 326 325 324 323 322 323 322 322 320 321 319 316 314 314 314 314 312 314 315 315 315 315 316 317 316 315 315
319 319 319 319 319 320 324 322 323 326 327 327 329 329 327 327 326 325 324 324 325 326 325 325 324 322 322 321 322 320 321 319 318 317 313 316 315 314 312 311 314 312 316 315 315 315 315 315 315
319 319 319 319 318 319 322 323 322 323 326 327 328 329 328 327 326 325 323 322 324 325 324 325 325 323 322 321 320 319 319 318 319 316 316 317 316 315 313 313 313 316 317 314 314 314 313 313 313
318 318 318 317 317 318 319 320 321 322 324 327 328 329 329 327 326 325 324 320 322 323 324 324 325 323 323 322 321 321 320 318 316 316 315 318 315 314 315 316 314 316 319 319 318 318 314 314 312
316 317 317 317 317 317 318 320 321 322 324 327 328 329 329 328 327 325 325 323 321 321 323 324 323 324 323 322 321 320 320 319 318 317 316 319 317 315 317 318 317 317 320 319 319 320 319 318 315
317 317 317 318 317 318 319 320 321 322 324 325 326 327 329 329 327 326 325 324 322 323 322 323 323 323 323 322 322 322 321 319 317 316 318 317 320 317 319 317 319 318 318 318 318 319 320 320 318
318 317 317 318 318 317 319 321 321 322 322 323 324 328 328 329 328 327 326 325 324 323 324 322 323 323 322 322 322 321 321 319 318 317 317 319 321 319 319 317 317 317 318 319 320 318 318 320 320
317 317 318 318 319 318 318 319 320 321 322 321 322 324 327 328 329 328 326 326 325 323 323 322 321 322 323 322 322 322 320 319 318 318 317 320 319 320 317 317 317 318 320 319 320 317 317 322 322
317 317 318 319 318 320 318 319 319 320 322 321 321 322 324 327 328 328 327 326 326 324 323 322 321 321 322 323 322 319 319 318 318 318 317 318 319 320 317 316 317 318 320 318 317 318 317 318 321
317 317 320 320 321 320 320 320 320 322 322 321 321 321 323 325 327 328 328 327 326 325 323 322 320 320 321 322 323 321 320 316 319 321 319 318 319 318 318 318 319 319 319 318 318 318 317 319 320
318 318 319 320 322 321 321 322 322 322 321 321 321 321 322 325 327 327 328 327 327 325 324 319 321 322 320 322 323 321 321 320 320 320 320 318 316 316 317 317 316 316 317 317 317 316 315 315 314
318 319 319 319 321 323 323 322 321 321 321 322 321 322 322 324 326 326 327 327 327 326 325 324 318 321 322 321 322 322 322 322 322 320 319 317 316 316 316 316 316 315 316 317 316 315 315 317 319
319 319 320 320 321 322 321 322 322 321 321 321 321 322 321 322 322 324 326 327 327 327 325 325 322 320 322 322 322 322 322 322 323 322 320 318 317 316 316 315 318 318 317 315 315 315 315 318 319
319 320 319 320 321 322 322 322 321 322 322 322 322 321 322 322 323 324 325 327 327 327 326 325 324 322 321 322 322 322 322 322 322 322 321 321 318 317 317 316 316 317 316 315 317 318 318 318 317
319 319 319 320 321 321 323 322 321 320 319 319 320 320 320 321 321 323 326 327 326 327 326 326 325 324 323 322 321 321 322 322 321 320 320 320 319 319 318 317 317 317 318 318 319 319 318 320 320

GFSSGP_850_thetae_057.txt.gz
Theta_e
312 313 321 321 323 323 324 324 323 322 323 325 327 327 329 328 328 333 340 338 341 341 342 336 334 335 339 338 336 336 335 333 331 327 326 323 322 321 320 321 329 331 330 328 328 328 328 326 325
317 319 320 322 321 324 325 324 322 323 323 325 326 327 326 329 331 332 338 341 341 340 340 337 334 334 339 337 333 333 335 333 332 328 326 322 321 326 326 327 331 331 328 326 316 321 320 323 324
318 318 320 322 323 323 324 324 323 322 322 324 325 329 328 327 333 335 339 339 339 341 340 341 333 334 335 333 331 335 334 333 331 328 325 322 328 328 327 329 332 331 325 318 318 312 312 313 320
317 317 318 321 322 323 323 323 323 322 322 324 325 327 329 333 334 337 337 336 338 338 339 339 337 332 331 331 331 336 336 334 331 331 324 325 325 328 329 323 330 327 314 314 323 309 309 311 315
317 319 323 323 323 323 323 322 322 322 322 325 326 328 328 334 335 336 336 334 338 337 339 337 337 332 330 332 335 336 336 336 332 329 325 324 325 324 326 328 324 315 311 316 310 309 310 311 312
319 319 322 322 322 323 323 322 322 322 322 324 326 326 326 335 334 336 332 332 336 337 337 337 338 335 329 330 334 331 336 336 334 328 326 324 323 324 328 323 320 320 313 310 309 309 309 311 313
320 322 322 322 322 323 323 323 323 323 323 324 328 325 326 331 333 334 335 329 335 335 336 337 337 336 329 330 331 326 337 336 332 329 327 322 322 326 324 325 327 324 316 313 308 307 309 311 312
319 321 322 322 321 322 323 322 322 322 323 327 325 325 326 334 334 333 333 333 334 335 332 336 336 336 329 329 330 329 335 333 332 329 327 321 318 319 325 326 328 324 318 312 308 306 308 307 308
319 321 321 321 321 322 322 321 321 323 323 325 327 328 330 333 332 332 332 333 334 334 331 333 335 334 332 332 329 330 326 331 331 328 323 320 324 324 324 327 327 321 317 313 310 307 306 306 307
319 320 320 322 321 322 321 321 321 322 323 324 325 328 332 331 330 330 330 331 333 333 331 331 333 332 330 330 329 329 329 330 327 324 322 323 323 325 328 325 322 320 316 314 311 308 306 309 308
319 319 321 321 319 321 321 321 321 321 322 324 324 325 331 332 329 331 330 332 332 332 330 332 331 327 327 328 325 328 327 326 325 324 321 321 320 324 325 322 321 319 317 315 312 309 314 317 316
319 319 319 320 319 319 321 321 322 322 323 326 326 327 330 330 330 331 331 332 332 332 330 329 331 329 323 325 326 326 327 325 324 321 320 318 320 322 323 322 322 320 318 316 313 317 319 319 318
319 319 319 318 318 319 320 321 321 322 322 326 327 329 329 328 329 330 330 331 331 329 330 329 331 330 325 323 324 325 326 326 324 322 321 320 323 322 323 323 323 322 323 321 319 321 320 319 320
318 319 319 319 319 319 320 321 321 322 323 327 328 330 329 328 328 329 330 331 330 329 329 330 330 330 326 326 326 326 325 326 324 319 320 320 323 321 324 324 325 323 323 322 321 321 320 319 319
318 319 320 320 320 320 320 321 321 321 323 326 329 330 330 329 327 328 329 330 329 330 328 328 328 329 328 328 328 328 326 326 322 320 318 316 317 322 325 325 324 322 323 322 321 321 319 318 319
319 319 320 321 321 320 320 321 322 323 326 326 328 329 330 328 327 326 327 328 329 327 327 327 327 326 327 327 327 326 325 325 323 320 318 322 318 322 322 322 322 321 322 321 320 319 318 318 318
321 321 321 322 322 321 321 322 322 324 325 325 327 329 329 329 328 326 326 327 328 327 327 326 325 324 323 323 324 324 324 322 320 319 319 317 321 320 319 318 318 318 319 319 319 319 318 317 317
322 322 322 322 323 321 320 322 322 324 324 325 326 328 330 329 329 327 326 325 327 326 327 326 325 324 323 323 323 323 322 321 319 313 318 320 319 316 315 316 317 317 317 317 318 318 318 317 317
321 322 322 322 321 320 321 321 323 323 322 324 327 327 329 329 329 327 327 325 326 327 326 324 324 323 322 322 322 321 320 320 315 317 317 315 315 313 314 315 312 317 318 318 317 317 317 317 316
319 320 321 321 320 319 319 319 321 322 323 323 326 327 329 330 329 328 328 326 326 326 324 325 325 324 323 322 322 321 320 319 314 314 316 314 315 314 314 313 313 316 319 319 320 318 318 316 315
320 320 320 321 321 320 319 319 321 322 322 322 324 325 326 329 329 329 328 328 325 326 324 324 324 324 323 322 321 321 321 318 316 315 315 316 317 318 315 316 318 315 319 322 322 322 321 320 318
321 320 320 320 320 321 321 320 321 322 323 324 323 323 325 327 329 329 329 328 327 326 326 324 323 324 323 323 322 321 321 319 317 315 315 317 317 316 315 318 320 320 319 321 323 323 322 322 321
320 320 320 319 320 321 321 320 322 323 323 323 323 323 324 326 329 329 329 329 328 327 326 323 323 324 324 324 323 321 321 320 318 317 316 316 318 316 317 319 321 322 321 321 322 322 322 322 320
318 318 319 320 321 323 322 321 322 323 323 323 323 322 323 326 328 329 329 329 329 327 327 324 322 323 324 323 322 322 321 321 319 316 317 318 319 319 319 321 321 320 321 321 321 321 321 321 321
318 319 322 322 324 323 322 322 321 323 323 323 322 322 323 324 326 329 329 329 329 328 327 325 324 322 323 323 323 322 322 322 321 320 319 317 319 320 320 320 321 320 318 317 319 320 320 321 319
318 319 321 323 326 324 322 323 322 323 323 322 322 322 322 324 326 328 330 330 329 329 327 326 324 323 322 322 323 323 322 322 321 320 319 318 317 317 318 320 321 319 318 318 318 318 321 318 318
319 320 318 321 322 326 324 323 324 323 322 322 322 321 322 323 326 327 328 330 330 329 328 327 325 324 323 323 322 323 323 322 321 320 319 319 318 317 317 318 319 319 317 317 318 319 320 320 319
318 319 320 321 323 324 324 325 325 322 322 323 323 323 322 322 324 325 327 328 330 330 329 328 326 324 324 324 324 323 323 323 321 320 321 320 319 317 318 316 318 318 317 318 318 318 318 318 319
317 319 321 321 322 324 325 324 323 324 323 323 324 323 323 323 323 324 325 327 329 330 330 329 327 325 324 325 324 322 323 323 323 323 321 322 322 320 320 319 318 318 318 319 319 318 318 319 318
319 319 321 323 325 323 326 324 323 322 321 321 321 322 322 322 322 323 325 327 328 330 330 329 328 326 325 324 325 324 324 324 324 323 324 323 323 322 321 320 320 319 319 319 320 320 320 320 320

GFSSGP_850_thetae_063.txt.gz
Theta_e
312 312 312 321 319 315 317 319 319 320 324 325 326 326 324 325 332 338 341 338 335 334 334 336 336 338 337 336 334 330 328 328 328 325 323 323 322 322 320 319 317 320 331 332 327 323 321 324 326
312 313 318 320 317 318 319 320 320 321 323 323 324 323 324 331 338 341 340 337 340 340 331 336 337 336 338 337 336 332 329 328 329 326 323 322 321 319 319 322 325 331 332 333 329 323 325 326 325
312 317 319 315 315 319 319 320 320 320 322 322 323 324 327 332 332 333 324 324 327 340 341 342 339 335 337 338 338 334 330 328 329 327 324 322 320 318 322 329 328 328 330 330 329 323 326 325 322
314 319 321 314 315 317 318 320 320 320 321 322 324 325 330 329 326 325 323 323 322 332 342 342 341 336 334 337 339 336 333 330 329 328 324 322 321 321 327 329 329 325 329 329 321 321 323 324 324
315 318 313 314 315 317 318 320 322 321 321 325 325 325 333 332 330 329 326 324 323 325 341 342 341 338 335 337 340 339 337 333 330 329 325 321 323 326 326 329 329 322 328 319 318 321 325 324 324
316 317 313 314 316 318 320 321 322 322 321 321 322 325 334 335 333 331 330 327 324 324 333 340 341 338 337 335 338 339 338 334 333 330 326 321 325 327 323 330 329 321 317 311 318 320 322 322 322
314 313 313 314 317 318 320 322 320 321 321 325 327 325 335 335 334 333 332 330 327 327 332 339 340 337 336 337 335 335 334 334 335 333 326 324 327 327 324 329 328 320 316 310 313 319 318 319 323
318 313 315 316 317 318 320 323 323 322 323 326 325 322 334 334 334 332 329 329 330 332 334 333 337 338 337 335 333 332 333 332 329 330 330 328 328 327 323 325 323 315 310 311 314 311 316 320 321
319 315 314 315 317 319 320 321 322 322 322 324 323 323 325 333 330 328 331 332 331 331 331 332 332 336 336 336 331 330 330 331 328 325 325 329 330 323 323 322 318 315 311 310 310 311 313 320 321
315 312 314 315 317 318 318 321 321 320 322 322 324 329 331 331 329 330 331 332 331 330 330 331 331 332 336 335 332 330 330 329 327 326 325 329 327 324 324 320 316 311 309 309 310 313 315 320 320
317 315 315 317 318 319 318 318 321 319 320 322 327 330 329 330 331 330 329 330 330 332 331 332 331 332 333 333 330 329 329 329 325 325 328 327 327 324 324 325 316 313 309 309 308 309 310 320 320
316 316 317 317 318 318 317 319 319 320 321 323 325 328 331 332 331 330 330 330 331 331 331 330 331 331 331 330 330 329 329 328 324 327 328 326 323 320 323 326 317 311 308 306 307 307 312 320 321
317 317 317 318 318 318 318 316 318 319 321 323 325 325 329 330 330 330 330 330 332 331 330 330 332 330 329 329 329 329 328 324 324 328 326 322 318 318 322 324 319 314 309 306 306 306 316 321 321
318 318 317 317 317 318 318 316 319 319 320 320 326 326 327 329 328 328 329 330 329 330 330 330 329 330 328 328 327 328 326 324 326 328 327 321 323 324 322 325 319 313 310 307 308 307 318 321 320
317 316 316 315 316 316 319 316 315 318 319 320 325 327 329 329 328 327 329 329 330 328 328 329 332 330 328 328 326 327 327 326 327 326 324 320 318 323 322 322 319 315 311 315 318 318 317 319 321
317 315 315 316 317 318 317 318 316 319 319 319 320 327 329 329 329 327 327 330 330 330 326 328 332 327 327 326 325 326 326 325 325 325 323 320 321 321 320 322 320 316 313 321 321 320 319 320 320
316 315 316 317 318 318 316 318 316 320 319 320 320 327 329 330 330 328 327 328 328 329 325 327 327 329 328 326 325 325 324 326 326 325 323 322 321 320 319 320 320 318 318 318 322 320 319 320 319
317 316 316 317 318 318 317 317 318 319 320 324 324 324 329 330 329 328 327 327 327 329 327 326 327 326 329 325 327 325 325 324 326 325 324 323 320 319 319 320 321 320 322 320 322 320 318 319 319
316 317 318 316 319 322 320 318 318 317 319 322 324 324 325 330 330 328 327 327 327 328 327 326 326 327 325 327 327 327 326 326 326 325 324 323 320 320 324 322 322 321 322 321 322 320 318 319 319
316 316 317 317 319 321 320 318 317 317 316 319 323 324 324 329 330 328 327 327 326 326 326 324 326 325 324 323 323 322 321 322 323 325 324 322 323 323 323 322 321 322 323 322 321 319 318 319 318
316 316 317 318 319 319 319 316 318 318 319 319 321 324 324 329 329 328 328 327 326 326 326 322 323 325 323 323 321 322 323 323 322 323 323 322 320 323 323 319 321 321 320 320 319 318 319 318 318
313 315 316 317 318 318 318 317 318 319 319 318 318 321 325 329 330 329 328 328 327 326 326 322 324 325 323 323 322 323 322 321 321 321 320 320 316 321 321 319 319 319 318 319 318 318 317 313 318
318 316 317 318 320 318 319 317 317 318 319 318 316 321 324 328 329 329 329 328 328 326 326 324 323 324 323 322 321 321 323 322 321 319 321 321 318 319 320 320 318 314 315 316 318 317 314 313 317
317 318 318 317 319 322 320 318 317 318 320 320 319 320 323 326 329 329 329 329 329 327 326 325 321 324 323 323 321 321 322 321 320 319 316 316 316 317 316 316 313 313 314 317 317 313 314 316 317
317 318 320 322 322 321 320 320 319 319 320 320 320 320 323 323 329 329 329 329 329 329 327 326 324 323 323 322 322 321 321 321 321 320 317 316 317 316 315 315 313 314 313 315 316 316 316 317 320
318 317 321 323 323 322 320 320 319 319 320 320 322 323 323 324 330 330 330 330 329 329 329 327 326 320 321 322 322 322 321 321 321 320 318 315 314 315 314 314 314 314 316 317 316 319 321 319 321
318 318 316 319 320 324 324 322 320 319 319 319 320 323 325 326 330 330 330 330 330 330 330 329 327 325 321 322 322 322 321 321 321 320 319 315 314 314 315 317 316 315 315 319 320 320 319 320 321
317 316 319 320 325 326 323 324 324 322 320 321 319 318 322 325 326 330 330 330 330 330 330 329 328 327 321 322 322 322 321 321 321 321 320 318 315 315 315 315 316 317 317 315 316 319 320 319 320
318 319 319 320 321 323 325 325 323 320 320 320 320 321 322 323 325 327 330 330 330 330 330 329 329 328 326 321 322 322 322 322 321 322 321 321 321 320 317 315 315 316 316 317 316 316 318 318 319
316 318 319 324 325 323 322 326 323 321 318 317 318 317 319 321 321 321 322 327 330 330 330 329 329 329 329 326 323 321 323 323 323 323 322 321 321 321 321 318 316 316 316 316 317 317 318 319 319

GFSSGP_850_thetae_066.txt.gz
Theta_e
315 312 311 318 318 312 315 316 317 318 323 325 325 324 324 327 331 328 335 336 328 326 326 330 336 336 335 333 330 328 328 328 325 324 324 325 328 330 329 324 320 318 315 314 319 331 332 329 329
313 311 314 319 316 316 315 317 318 318 323 323 323 324 326 337 335 336 334 334 330 325 326 334 335 337 336 335 332 329 328 328 326 324 323 324 324 324 322 320 317 315 318 318 322 331 329 327 327
311 313 317 314 312 315 316 318 318 320 322 322 323 324 328 336 331 326 323 324 324 323 324 332 339 336 337 336 334 331 328 328 328 324 323 322 322 321 318 317 321 330 331 331 331 329 325 325 325
312 316 318 313 313 315 316 317 317 317 320 322 324 327 329 332 329 324 323 329 327 325 324 331 338 339 335 338 336 334 330 328 329 325 323 322 321 318 318 322 330 331 330 329 331 325 326 326 326
314 317 313 312 312 314 315 316 317 317 319 323 324 325 332 330 328 326 324 323 328 329 328 334 333 340 336 335 338 336 332 329 328 327 323 322 319 320 326 325 329 329 329 328 326 325 324 324 325
314 314 311 313 313 315 315 317 317 318 322 324 323 332 334 333 330 329 328 327 325 329 336 339 340 339 337 335 336 338 335 332 329 329 324 322 320 325 328 327 326 326 328 326 324 324 326 326 325
312 309 310 312 313 315 317 318 318 319 319 323 324 327 336 335 333 331 330 331 329 326 326 334 340 339 336 337 335 337 338 334 333 332 330 327 323 327 329 326 325 324 325 323 325 324 325 325 325
315 310 314 313 316 315 316 318 320 320 320 325 325 333 335 335 332 332 333 329 327 327 329 331 335 336 335 335 336 335 332 325 333 333 332 329 326 329 329 328 321 315 314 323 324 323 324 323 322
318 313 312 313 314 316 317 316 318 321 325 325 325 327 324 330 333 333 329 330 331 331 332 330 331 333 335 334 335 334 334 333 333 330 328 327 331 329 329 328 322 311 314 320 323 322 323 322 322
315 313 315 313 314 314 315 315 317 318 322 322 325 324 327 331 332 329 329 330 331 331 330 331 331 331 335 335 335 334 333 331 331 329 327 327 327 325 328 327 320 313 311 318 321 320 322 320 322
314 317 314 314 315 315 315 316 317 316 318 321 328 331 333 331 330 329 329 327 329 329 330 329 330 330 333 333 336 333 332 330 330 329 326 325 326 327 329 325 322 312 310 313 316 319 321 321 321
315 316 315 316 316 316 315 316 315 317 319 321 323 326 329 329 329 328 329 329 328 329 329 330 331 331 330 331 332 332 330 329 329 327 326 324 330 325 326 321 313 311 309 311 311 317 320 321 320
316 317 318 317 316 316 316 315 316 316 319 322 326 329 328 329 329 330 329 329 329 330 329 327 331 329 329 329 330 330 329 329 328 325 325 324 327 326 324 318 313 310 309 309 313 317 320 320 320
317 317 317 317 317 316 315 314 315 317 318 324 327 329 330 330 329 330 330 329 329 330 330 328 329 328 328 328 330 330 329 328 327 325 328 328 326 324 324 320 315 310 309 308 310 315 320 320 322
316 315 315 315 315 314 315 313 314 317 318 318 325 327 329 330 329 327 327 327 328 328 326 328 327 329 328 328 327 329 328 325 325 327 329 326 324 323 326 322 316 313 308 306 307 314 320 321 321
317 315 315 315 314 315 314 315 316 318 318 317 318 324 327 328 327 327 327 327 329 329 328 325 326 329 328 328 327 328 327 324 326 327 326 324 320 317 317 320 317 311 308 306 306 318 321 320 320
315 315 315 316 316 315 315 317 317 318 318 316 317 321 328 328 328 328 327 327 328 329 328 324 328 329 329 327 326 326 327 326 326 327 327 325 322 321 321 324 317 313 309 308 307 320 320 318 321
316 316 314 315 316 316 316 318 318 317 317 317 318 317 326 329 329 329 328 327 329 328 328 324 325 327 327 326 325 325 326 326 327 326 325 322 324 323 323 324 316 313 311 316 317 316 316 318 319
314 315 315 315 315 316 316 317 319 318 315 314 319 319 326 329 329 329 328 327 329 328 327 324 325 328 327 326 325 326 326 326 326 325 324 322 321 322 322 323 318 314 317 320 321 320 319 320 319
314 316 316 316 316 317 317 318 317 316 316 316 321 320 326 328 329 329 328 327 328 327 327 324 323 328 326 327 325 326 326 326 326 326 326 322 320 322 320 319 320 317 315 319 321 320 319 320 319
311 312 316 316 316 317 317 317 317 316 316 317 320 323 322 328 329 328 327 327 327 327 326 323 319 326 327 327 325 326 326 325 324 324 326 323 322 320 320 318 321 319 321 319 321 320 319 318 319
318 312 312 315 316 318 318 319 317 316 316 317 316 318 321 326 329 329 327 327 327 327 326 322 320 325 326 325 324 322 321 321 321 322 324 323 321 319 320 322 323 320 321 321 322 321 318 318 319
317 319 318 318 317 316 319 317 318 316 317 317 315 317 319 323 328 329 328 328 327 327 326 323 320 323 323 322 324 322 321 322 322 323 322 323 321 320 323 323 323 321 322 323 322 320 319 317 318
318 318 318 316 316 318 319 319 318 316 318 318 318 318 318 325 327 329 328 328 327 327 326 324 321 321 324 322 322 321 321 322 322 322 322 322 322 320 321 321 322 321 320 319 319 316 319 318 318
317 319 320 322 320 321 320 320 320 318 317 318 318 319 319 325 327 327 327 328 327 327 326 325 323 319 322 323 320 321 321 321 322 322 322 322 322 320 320 319 319 320 320 318 318 318 318 318 315
317 319 321 326 325 322 319 320 318 318 318 319 319 319 318 326 327 328 328 328 328 328 327 326 324 321 320 323 321 320 320 322 322 322 321 321 321 317 317 320 320 319 317 315 315 316 316 314 315
316 321 318 319 320 322 323 321 321 319 317 317 317 319 321 327 327 328 328 328 329 328 328 328 326 323 320 320 321 321 320 321 321 321 320 320 319 319 318 318 317 317 315 313 314 316 317 315 314
317 318 321 322 325 325 323 321 324 320 319 318 317 317 323 327 327 328 329 329 329 329 329 328 328 326 324 319 319 322 321 321 321 320 320 320 320 317 316 316 316 316 315 313 314 313 314 315 318
317 319 318 320 322 325 325 327 324 321 318 318 319 320 320 324 328 328 328 329 328 328 329 329 328 328 327 324 319 319 322 321 321 321 321 321 320 318 317 316 315 314 314 314 314 314 315 315 317
316 319 319 322 323 321 323 325 323 322 318 316 319 319 319 320 321 325 328 328 328 328 327 328 327 328 328 327 323 319 319 320 321 321 320 320 320 320 317 315 315 315 315 316 314 314 314 316 317

GFSSGP_850_thetae_069.txt.gz
Theta_e
313 313 311 318 316 311 315 314 314 316 319 323 324 323 321 326 325 323 331 332 328 325 323 327 336 334 332 330 328 328 328 327 329 333 336 339 339 338 335 334 332 328 324 321 322 328 330 330 329
314 313 312 319 315 315 313 314 317 316 320 323 327 330 329 336 334 332 330 326 327 325 324 325 331 335 334 331 329 328 328 327 326 328 333 335 335 335 335 333 327 322 318 318 328 332 332 329 330
314 311 317 313 311 314 313 315 317 316 319 321 321 323 329 333 332 330 324 323 324 324 324 324 327 331 335 333 330 328 328 328 326 325 327 330 332 332 329 324 320 318 317 322 327 330 331 328 329
311 315 316 313 314 313 314 316 315 315 318 320 321 327 330 329 328 325 323 323 322 322 322 324 327 332 335 336 333 329 328 328 327 325 324 325 327 325 322 319 317 318 319 328 329 329 328 327 327
313 317 313 312 313 312 313 315 315 315 317 319 322 328 330 329 328 324 324 324 323 323 324 328 330 334 335 337 336 332 329 328 329 325 323 323 323 322 319 318 327 330 329 329 328 326 326 326 326
314 313 310 313 312 312 312 315 315 316 317 318 320 330 332 330 329 326 326 325 325 325 327 331 335 335 338 335 336 336 333 329 329 326 324 324 322 319 319 329 331 330 329 327 326 326 325 325 325
309 307 310 310 312 313 314 316 315 316 317 317 324 332 333 333 330 328 328 328 329 328 328 329 339 339 338 336 335 335 334 334 329 328 328 329 324 321 326 328 329 328 327 325 326 326 325 325 324
314 308 312 310 313 313 315 316 317 316 317 322 326 333 334 332 333 330 332 332 330 327 325 328 334 336 336 336 336 335 335 332 332 331 330 328 326 327 323 328 328 326 326 326 324 324 323 325 324
316 311 310 312 313 313 315 314 316 316 317 319 325 326 325 330 333 333 332 330 328 327 328 330 330 332 333 333 333 334 334 333 328 327 328 329 326 328 328 327 326 325 319 324 325 326 326 326 324
314 311 312 311 313 313 313 313 314 315 315 316 324 328 325 330 332 333 332 328 328 326 328 330 330 330 331 333 333 333 334 334 327 327 330 329 325 326 325 326 326 325 321 324 325 325 324 323 322
314 315 313 313 315 315 313 314 315 314 315 316 323 325 325 331 332 333 329 328 326 326 329 330 330 330 331 332 333 333 333 333 331 328 330 327 325 327 326 327 325 324 325 324 323 323 322 322 322
313 313 315 316 316 315 313 315 314 314 315 317 317 320 327 330 331 330 327 328 327 326 327 328 329 330 329 330 332 332 331 332 331 331 329 325 324 324 326 326 325 319 325 323 322 322 322 321 322
314 315 316 316 317 317 316 313 314 315 317 317 316 325 328 328 328 328 328 327 327 327 326 327 328 329 329 330 330 330 330 330 330 330 328 326 325 324 326 326 323 314 321 322 322 322 321 321 321
314 315 315 317 317 317 315 314 314 316 316 316 318 330 328 327 327 329 329 328 328 327 325 324 327 326 328 329 328 329 330 330 329 329 327 326 324 325 323 327 320 314 317 321 319 321 320 321 321
315 314 313 313 314 313 315 311 310 315 316 315 323 329 328 327 328 328 326 327 328 327 325 322 326 327 328 327 328 329 329 329 329 327 326 325 325 326 324 326 319 313 313 314 316 320 320 320 320
315 314 315 314 313 314 313 315 313 317 316 315 321 329 328 327 327 328 327 327 328 328 326 323 323 327 327 327 328 327 329 328 327 327 326 325 325 326 323 324 314 311 310 310 313 320 319 320 321
313 315 314 315 314 314 313 314 313 317 316 315 314 327 328 328 330 328 328 328 328 327 327 324 322 326 328 326 327 326 328 328 325 326 328 327 325 326 326 322 314 311 309 309 313 319 319 321 321
315 315 313 314 314 314 314 313 315 316 316 317 316 315 325 328 327 327 328 328 328 327 328 325 321 325 327 328 327 326 327 325 324 327 326 327 326 326 325 324 316 310 308 308 310 315 319 321 321
314 313 313 313 315 314 314 313 314 315 316 314 315 315 318 325 325 327 328 328 329 328 328 325 320 325 327 327 327 326 326 326 326 326 326 326 325 323 323 324 318 311 308 306 307 314 320 320 321
308 311 314 314 316 315 313 313 314 315 315 315 316 315 316 321 326 326 327 328 329 328 327 326 321 322 326 325 325 325 326 325 326 326 327 326 326 322 321 324 322 312 308 306 306 318 320 320 320
311 309 313 315 315 314 314 315 315 317 314 316 316 316 317 319 324 327 327 327 328 328 327 326 321 321 325 325 325 325 325 325 325 326 327 326 325 322 324 324 322 314 309 310 308 317 319 316 319
313 311 314 311 311 314 315 317 316 317 316 315 316 316 318 322 324 327 327 327 328 328 327 326 322 320 323 325 325 324 325 325 326 326 326 325 325 322 324 323 323 317 311 315 317 318 318 318 319
315 318 318 317 316 315 316 316 316 316 316 315 314 317 318 321 324 327 328 328 328 328 327 326 322 319 321 324 327 324 323 323 323 324 324 324 325 323 322 322 321 321 316 316 320 321 320 319 319
315 318 317 318 316 317 315 317 317 318 318 317 316 317 316 318 322 325 328 328 328 328 327 326 323 319 321 322 323 325 324 322 321 321 320 322 323 323 322 321 320 320 320 318 318 319 321 320 318
317 319 320 319 317 318 317 318 318 318 317 316 316 318 318 318 321 325 327 328 327 327 327 326 323 320 319 321 323 322 322 321 323 321 321 322 322 323 322 321 321 322 323 321 321 320 321 320 318
316 320 321 322 323 321 319 320 319 319 317 317 317 318 319 317 319 324 326 327 328 327 327 326 324 321 319 319 320 320 321 320 321 322 321 322 323 323 323 321 321 322 323 321 319 321 321 320 318
318 319 318 321 321 320 320 320 320 318 317 318 315 317 318 318 321 324 326 327 328 327 327 327 325 323 320 318 318 321 321 322 321 321 322 324 322 322 321 321 321 322 322 321 320 320 319 318 316
316 317 321 321 325 323 322 325 326 320 317 318 318 316 321 324 325 324 325 327 327 327 327 327 326 324 322 320 319 319 320 320 321 321 322 321 322 322 322 321 320 319 320 320 321 318 317 317 317
318 320 317 320 322 324 324 327 323 323 320 317 318 318 320 325 326 326 325 325 326 326 327 326 326 325 324 322 321 320 319 320 321 321 321 321 321 321 322 321 319 319 319 319 319 317 316 316 316
316 318 319 322 323 322 324 325 322 321 318 317 318 318 318 322 326 327 327 326 326 327 327 327 326 326 325 325 323 321 320 320 321 321 321 320 321 320 319 319 319 318 319 318 317 316 315 314 314

GFSSGP_850_thetae_075.txt.gz
Theta_e
313 312 312 317 318 318 316 316 315 317 318 318 320 321 323 322 331 328 331 330 327 321 322 323 325 327 330 332 333 334 334 335 336 337 339 340 340 337 330 330 331 330 335 334 333 332 329 328 330
314 314 311 317 317 315 315 315 317 318 318 317 322 324 327 327 328 329 329 323 325 323 321 321 321 326 330 332 331 332 334 335 336 338 339 340 340 336 330 330 331 330 333 332 329 330 328 332 333
314 312 315 321 317 314 314 314 319 317 316 315 321 324 323 328 330 328 327 328 323 322 322 321 321 325 330 331 331 330 331 334 336 338 339 340 339 335 331 331 331 330 329 331 330 330 331 333 333
315 311 313 317 317 316 314 316 316 316 315 316 318 321 324 328 329 327 329 325 323 322 322 321 323 324 330 332 331 330 330 331 332 336 338 339 339 334 332 332 331 330 329 329 329 331 330 333 332
313 313 314 316 316 315 314 314 314 316 315 316 317 319 326 326 327 327 326 323 323 323 323 323 325 328 332 333 332 330 330 330 329 331 336 339 336 334 334 333 332 331 328 327 330 329 332 330 329
312 312 313 313 314 315 316 313 315 315 315 316 317 317 320 320 326 327 324 323 324 324 324 324 325 330 333 334 333 331 330 330 328 329 335 337 336 336 334 333 333 330 325 329 328 328 331 329 329
312 314 313 312 313 314 314 313 314 315 315 318 320 320 323 321 327 326 325 324 325 324 324 325 326 329 334 335 335 333 331 330 331 331 333 334 334 335 333 333 331 326 327 327 328 329 328 328 328
311 313 312 312 313 313 314 314 314 315 317 317 321 325 326 328 330 327 325 325 325 326 326 327 326 328 333 335 336 335 333 332 331 331 332 332 332 332 332 328 323 324 325 326 329 329 327 327 328
312 313 313 312 312 313 314 314 314 314 315 315 316 317 323 325 332 330 326 326 326 328 328 325 324 325 331 336 333 332 334 333 332 332 331 330 327 327 327 324 325 328 329 329 330 328 326 326 327
314 313 313 311 312 313 313 313 314 314 315 315 315 316 317 319 330 332 327 326 327 328 328 325 324 326 332 335 335 333 332 333 333 333 331 329 327 325 326 326 326 326 326 328 329 326 325 326 326
314 314 312 312 312 311 313 314 314 314 315 315 316 316 316 317 324 330 328 328 328 329 327 325 322 325 329 332 333 332 331 331 334 334 333 329 327 324 324 326 326 327 328 328 327 327 326 325 324
313 313 313 313 313 314 314 314 315 315 315 315 316 316 317 317 316 320 328 329 331 330 327 324 322 324 328 330 331 332 331 330 328 329 332 328 325 325 326 325 326 326 328 327 326 326 325 324 322
311 311 312 312 313 313 314 314 315 315 315 315 316 317 317 317 316 317 321 329 331 331 328 325 322 322 328 328 330 331 331 329 330 330 330 326 326 325 323 326 325 327 326 327 326 325 324 323 322
310 311 311 311 312 313 314 315 314 315 315 315 317 317 317 316 316 319 322 327 331 331 328 326 323 323 327 328 329 330 331 328 329 332 330 329 327 325 325 327 324 326 324 325 325 324 324 323 322
310 312 313 313 313 313 315 316 316 316 316 316 316 317 317 316 316 317 322 323 331 331 328 327 324 325 324 328 328 328 327 328 329 330 328 328 325 326 326 326 325 325 322 325 325 325 325 322 322
311 312 313 314 313 314 314 313 315 314 314 315 315 316 316 317 316 317 323 325 330 332 328 327 326 325 324 325 325 326 327 327 330 327 327 329 328 327 327 326 325 326 322 326 325 325 323 321 322
310 313 314 314 314 314 314 316 316 313 313 314 314 315 316 317 318 317 321 326 329 330 328 327 327 324 325 325 326 325 326 327 328 329 328 329 328 328 327 326 325 325 321 326 325 323 322 321 321
311 312 314 314 315 314 315 314 314 314 314 315 315 315 316 317 318 318 318 327 330 329 328 327 327 325 326 326 326 326 327 327 326 326 327 327 327 326 327 326 325 323 324 325 325 322 321 321 321
309 310 310 310 311 312 313 315 315 315 314 315 315 315 315 317 319 318 318 324 330 329 328 328 327 326 325 326 326 326 325 326 325 324 327 326 327 326 326 326 325 324 324 323 324 322 321 320 320
309 310 311 310 310 311 311 312 315 315 315 315 316 316 315 316 318 319 318 321 328 328 328 328 327 327 326 322 325 328 326 324 324 325 327 324 326 327 327 327 326 324 325 322 324 322 320 320 320
314 314 314 313 313 313 312 313 313 314 315 315 314 315 316 316 318 317 317 318 326 327 328 328 327 327 324 323 325 325 328 325 325 325 326 325 326 326 326 326 324 322 324 319 322 322 320 319 320
315 313 313 314 314 315 312 316 315 315 316 316 316 316 316 318 319 317 316 318 322 327 328 328 327 327 324 324 326 324 326 324 324 326 326 326 324 325 326 325 325 324 324 317 317 321 321 319 319
315 314 315 316 317 317 316 317 316 315 316 316 317 316 317 318 318 317 316 318 324 327 328 328 328 327 325 323 325 325 325 324 324 327 325 327 325 324 323 322 321 324 322 315 312 313 317 318 318
314 315 316 316 317 319 317 317 317 316 316 317 318 318 318 317 317 317 316 318 322 326 328 328 328 327 325 322 323 323 322 324 324 326 324 326 326 325 325 323 322 321 322 314 311 312 315 317 317
313 315 318 318 319 318 316 317 317 316 316 319 320 319 319 318 316 318 320 320 323 324 326 328 328 327 325 322 323 323 322 323 323 323 323 325 324 323 324 325 323 321 322 319 312 311 310 313 315
315 314 318 320 320 320 317 318 318 320 319 318 318 318 319 320 315 316 320 322 323 324 326 328 328 327 325 320 321 322 322 322 322 322 322 321 321 321 323 324 324 324 321 321 322 313 309 308 308
316 317 316 321 318 320 319 318 321 320 319 319 319 320 322 323 321 315 320 323 324 324 326 327 328 327 325 320 320 320 321 321 321 320 319 320 320 320 320 323 324 324 323 322 322 316 310 309 311
316 316 321 320 319 321 319 321 324 321 320 319 319 318 321 323 322 316 322 323 324 324 328 327 327 326 324 320 318 320 320 321 320 320 318 319 319 320 319 320 321 323 324 323 322 321 315 312 315
316 316 317 317 319 321 324 326 320 320 319 319 317 315 314 316 323 323 324 324 324 324 324 327 326 326 324 322 319 318 318 320 320 320 319 319 319 319 320 321 321 322 322 324 323 321 321 317 313
315 316 317 318 320 321 322 322 320 318 316 315 313 312 312 312 316 322 322 323 322 322 322 326 324 325 324 324 322 320 319 319 319 319 320 320 319 320 320 321 319 321 322 323 323 320 320 321 320

GFSSGP_850_thetae_078.txt.gz
Theta_e
312 311 314 317 320 319 319 319 319 321 324 323 323 322 325 327 331 330 333 331 330 328 324 322 322 323 324 329 333 337 340 340 339 338 340 339 339 338 333 331 331 332 332 329 329 331 333 331 330
316 314 314 319 318 319 320 320 320 320 321 320 321 324 325 327 328 333 339 330 328 322 323 321 321 322 322 326 331 334 336 336 336 337 339 340 339 337 333 331 332 333 332 329 329 332 333 329 330
315 314 316 318 319 318 319 319 320 322 320 320 325 326 327 328 334 333 336 325 324 323 322 322 322 323 325 327 331 332 332 333 334 337 339 340 340 337 333 331 331 333 333 331 333 333 333 329 332
315 314 315 318 318 319 318 319 319 322 320 318 320 323 324 329 334 334 329 326 324 322 323 323 322 323 325 329 331 332 331 331 334 337 339 340 340 337 333 332 331 332 332 332 332 331 330 332 332
315 315 317 317 317 318 319 318 319 322 321 319 318 320 322 328 328 330 328 327 323 323 323 323 323 322 325 327 331 332 331 331 333 336 339 340 340 337 334 333 332 333 331 331 331 329 329 333 332
316 316 317 317 317 317 318 317 318 318 318 318 319 321 321 326 332 326 328 327 324 323 323 323 323 323 324 328 331 332 331 332 332 333 335 340 339 338 333 333 333 332 331 332 330 329 330 332 331
317 317 317 318 317 316 317 316 317 317 317 317 320 323 323 329 334 339 329 325 324 323 324 324 324 324 325 328 332 333 332 331 331 331 332 337 337 338 334 333 333 332 331 331 330 329 331 331 330
316 318 319 319 317 317 316 316 315 316 317 319 320 323 324 327 334 335 340 334 327 324 324 325 326 327 324 327 333 334 333 331 331 331 331 333 333 332 334 333 333 332 330 328 330 330 332 330 330
314 317 319 319 317 318 316 317 316 316 316 316 317 319 321 325 330 339 340 339 339 325 325 326 327 326 322 333 336 336 334 333 331 331 332 332 333 328 330 325 332 329 327 326 328 329 331 330 331
315 317 318 319 317 317 317 316 316 316 317 317 317 317 323 325 329 337 338 338 340 336 328 328 327 325 323 333 336 334 333 334 333 332 331 331 332 331 329 329 330 326 324 326 327 327 328 329 330
316 317 318 316 315 315 316 316 315 316 317 316 317 316 317 318 325 330 337 336 338 339 335 332 326 324 323 331 334 334 336 334 333 334 332 331 331 330 327 328 325 325 326 326 328 328 328 328 328
316 315 316 316 315 315 316 315 316 316 316 315 316 316 316 317 318 324 329 335 336 338 337 329 326 323 323 328 333 334 333 334 333 333 333 333 331 328 327 326 325 326 326 326 327 328 327 328 329
313 313 312 313 313 313 313 314 315 315 315 315 315 315 316 317 319 319 323 329 335 337 337 332 326 323 323 326 330 333 333 332 331 330 330 333 329 328 325 324 326 326 327 326 328 327 327 327 327
313 313 313 314 314 314 315 315 315 315 316 316 316 316 316 317 318 319 321 326 332 336 337 334 327 325 323 326 328 330 332 332 331 331 329 330 332 330 325 325 326 326 326 327 327 326 326 327 326
312 313 314 315 315 316 315 316 317 316 317 317 317 316 316 317 318 319 322 327 332 335 337 332 328 326 324 323 327 328 330 333 331 330 331 331 329 327 326 325 324 326 326 326 325 326 326 326 325
311 313 314 315 316 317 316 317 316 316 317 318 318 317 316 317 318 319 323 327 332 334 336 332 328 326 324 321 326 328 329 331 330 329 329 331 329 328 327 325 326 326 327 325 326 325 326 325 324
312 312 313 315 316 316 317 318 318 317 317 317 318 318 317 317 318 320 324 328 332 334 335 331 328 327 325 322 325 325 324 326 327 328 329 328 329 328 328 326 326 326 326 325 325 325 325 324 324
313 313 313 314 315 314 316 317 318 317 317 318 318 318 318 318 318 319 323 329 332 334 335 331 328 327 326 324 324 326 325 326 326 327 327 327 327 327 328 326 326 325 325 319 324 325 324 324 323
311 311 311 311 312 312 313 315 316 316 317 318 318 318 318 318 318 319 321 328 331 334 335 330 328 328 326 324 325 327 327 327 327 326 327 327 328 328 326 326 327 326 325 322 324 325 325 324 324
311 311 312 313 314 314 315 317 317 316 316 316 318 318 318 318 318 318 321 328 330 333 334 330 328 328 327 325 325 327 325 327 326 325 325 325 326 326 328 326 327 326 325 322 323 324 324 323 323
313 315 315 316 316 317 318 318 318 318 316 315 316 317 318 318 318 318 321 328 330 332 333 330 329 328 327 326 324 325 323 327 325 325 326 326 326 324 327 327 326 326 325 323 324 324 324 323 323
315 315 315 315 317 317 317 318 318 318 318 317 316 317 318 319 318 319 320 326 329 331 333 332 331 329 328 327 323 323 326 326 325 325 325 324 324 324 325 326 326 325 325 325 322 323 323 322 323
314 315 315 316 318 319 319 320 319 318 318 318 319 318 319 319 318 320 321 323 328 331 332 332 331 328 328 327 324 324 325 326 325 325 325 326 324 324 325 325 326 325 323 324 322 323 323 322 322
314 314 313 316 318 320 319 320 320 319 320 320 320 319 321 321 321 320 321 324 327 331 332 331 329 327 328 327 322 325 324 324 325 325 325 326 326 323 325 325 325 322 321 322 324 321 322 322 322
314 312 312 318 319 319 318 319 320 319 321 321 321 322 323 323 323 322 324 326 328 331 330 328 328 327 327 326 324 323 325 323 323 324 325 325 325 325 323 323 323 323 324 324 324 318 318 321 321
313 312 315 317 318 318 319 320 321 322 321 321 322 323 325 326 325 321 325 326 328 330 329 328 327 327 327 325 325 323 323 323 324 323 324 324 325 324 324 323 324 321 321 322 321 316 314 313 316
316 317 316 319 319 320 318 319 322 322 322 322 322 321 321 325 327 323 324 327 328 329 329 327 327 327 327 325 323 322 322 323 323 322 322 322 322 321 321 322 324 324 323 321 322 315 312 311 313
317 316 319 320 321 321 319 321 322 324 323 323 322 320 317 319 325 324 326 328 328 327 327 327 326 326 326 323 320 325 322 322 322 322 322 321 320 320 320 320 322 324 324 324 322 322 320 318 313
317 318 318 318 320 321 322 328 320 320 319 319 318 315 313 314 318 325 326 327 326 323 323 324 325 324 326 321 324 324 323 321 321 320 320 320 320 320 320 320 321 322 323 324 322 321 321 322 317
314 316 317 319 320 322 323 323 319 316 314 313 312 310 310 309 310 321 324 323 322 322 322 322 326 325 322 322 322 321 320 321 320 320 320 319 319 320 320 320 321 322 322 322 323 323 322 322 321

GFSSGP_850_thetae_081.txt.gz
Theta_e
312 316 318 317 320 321 321 323 324 323 323 323 325 325 325 326 330 334 337 341 341 343 329 325 323 323 323 325 328 331 337 340 340 340 340 339 336 335 334 333 332 333 335 336 335 333 331 331 330
314 318 318 318 321 322 323 324 323 323 322 324 323 324 325 327 328 332 337 341 342 342 324 322 321 322 323 325 330 331 332 337 339 339 339 339 337 336 336 333 333 334 336 336 332 333 334 330 330
316 318 318 319 321 323 322 323 323 322 322 322 322 326 328 327 328 330 339 340 339 338 330 323 321 322 322 323 327 333 335 337 339 338 338 338 339 337 336 334 333 334 337 333 334 334 333 329 328
318 317 317 320 321 322 323 323 323 321 323 321 322 325 326 328 333 333 339 339 338 338 339 323 322 322 322 322 325 329 333 335 335 336 337 338 339 338 336 334 334 334 335 333 333 334 333 328 330
317 317 319 320 320 321 322 321 321 321 323 322 321 322 323 327 329 334 337 338 340 339 340 323 323 323 322 322 324 329 332 333 334 334 336 338 339 339 337 335 333 333 334 334 334 333 330 330 331
319 318 321 321 321 322 321 320 320 320 321 323 322 321 322 324 329 333 337 340 340 341 338 324 324 323 322 323 325 329 332 332 333 334 335 338 338 338 337 335 334 333 334 333 334 331 329 333 331
320 321 321 321 321 322 322 320 321 320 320 320 320 321 322 324 330 333 337 341 342 339 330 324 324 323 323 324 326 329 332 332 333 332 334 335 336 335 338 335 334 333 333 333 332 330 329 333 332
319 321 321 322 321 322 322 319 318 318 319 318 319 321 321 327 329 336 339 340 343 337 330 330 324 324 324 324 326 330 332 333 332 332 331 332 334 334 334 334 333 333 332 332 332 328 328 333 331
318 321 322 322 321 322 320 320 319 318 318 318 319 320 321 326 325 335 338 340 340 343 342 327 326 325 326 324 329 330 333 333 332 331 331 331 332 333 333 330 331 333 332 331 330 326 328 331 330
319 320 320 321 321 321 321 320 319 319 318 318 318 318 318 324 324 330 337 339 339 342 344 342 328 326 325 339 343 337 337 334 333 333 333 331 332 333 333 328 327 327 330 328 327 326 326 329 330
317 318 319 319 319 319 319 319 318 319 320 319 319 318 318 320 320 326 331 336 338 340 342 343 333 327 325 334 338 339 339 339 336 336 335 332 333 333 331 328 329 326 330 328 326 326 326 329 329
318 318 318 318 317 318 318 317 318 318 318 318 318 318 318 318 319 320 325 332 336 338 341 342 342 338 333 337 337 339 337 336 337 334 335 335 333 333 331 331 329 330 328 327 327 326 328 329 328
315 316 315 316 315 315 316 317 317 317 317 317 317 317 318 317 317 319 321 326 333 336 339 341 341 339 326 321 328 334 338 339 337 335 334 334 333 332 331 330 330 329 326 326 327 326 328 328 329
314 315 315 315 314 315 315 316 315 315 316 316 317 317 318 317 317 318 321 322 328 334 338 340 341 330 325 321 324 330 331 335 332 333 333 334 333 333 331 328 327 326 326 327 327 328 328 327 328
314 315 315 315 315 315 315 317 317 317 317 317 318 318 319 318 318 318 320 322 323 329 336 340 341 333 327 323 321 326 329 334 336 332 332 332 332 331 329 329 326 324 325 326 326 328 327 328 327
313 313 314 315 316 317 317 317 318 318 317 318 319 319 319 319 318 317 320 321 324 328 336 340 340 333 330 326 325 321 327 333 332 333 331 331 331 331 331 329 325 325 325 327 328 327 327 326 326
313 312 314 315 316 316 317 319 319 318 319 319 319 319 320 319 318 317 320 321 324 330 336 339 339 331 328 327 322 321 326 328 334 334 332 329 329 330 330 327 326 325 325 327 326 326 326 326 325
312 314 315 315 315 316 317 317 316 317 318 319 319 319 319 319 319 318 320 322 327 332 336 339 338 336 334 326 322 322 322 327 327 327 328 329 329 330 328 328 326 326 325 326 325 323 325 326 324
313 313 312 313 313 313 313 315 315 315 316 318 319 319 320 320 319 319 320 322 328 333 337 339 337 336 333 326 323 320 321 326 324 326 327 327 328 328 328 329 327 326 325 326 325 323 325 323 323
312 312 312 313 314 315 316 317 317 317 317 317 317 319 320 320 320 319 320 322 330 334 337 338 337 335 332 329 326 322 325 327 326 327 326 327 327 327 325 326 327 327 326 326 325 323 323 323 323
312 313 313 315 316 316 316 317 319 319 319 318 318 317 318 321 320 319 319 322 330 332 336 338 336 334 330 331 328 324 324 328 326 327 327 326 327 326 326 325 326 327 326 325 323 321 322 323 323
314 314 315 316 316 316 318 319 319 318 319 320 319 318 318 320 320 320 319 321 329 331 335 337 336 334 332 331 328 325 328 326 328 326 327 326 327 327 326 325 326 324 325 325 318 322 322 322 322
315 315 316 316 315 315 316 318 318 320 320 321 320 319 318 319 320 319 319 320 327 331 335 336 335 334 333 332 331 329 328 329 328 327 326 325 325 325 324 325 325 326 326 325 325 321 321 322 322
314 315 315 315 314 317 317 318 318 320 322 322 322 322 320 320 321 320 319 319 325 330 334 335 335 334 333 333 331 329 328 328 328 327 326 325 326 325 323 325 325 325 326 325 324 320 319 322 322
314 315 314 314 318 319 318 319 319 320 323 322 323 323 324 324 324 323 321 322 324 330 335 335 335 333 333 332 330 328 328 328 326 326 326 325 326 325 323 323 324 325 325 324 324 322 321 322 322
314 314 314 316 317 320 320 320 323 323 322 322 323 324 324 326 329 327 323 323 326 330 334 335 334 332 332 332 330 328 327 328 329 328 326 325 325 325 323 324 324 324 324 322 324 321 321 322 322
315 315 314 316 317 317 316 317 323 323 323 323 323 323 322 322 324 328 325 327 328 332 334 332 332 330 331 331 329 327 327 326 327 325 325 326 325 325 324 324 322 324 323 322 322 322 324 322 320
315 316 319 318 319 319 319 319 328 324 323 322 321 319 317 316 316 323 326 329 330 333 329 329 331 329 330 330 329 326 327 327 325 325 324 323 323 323 323 322 323 324 322 322 322 323 323 319 317
316 317 317 319 320 321 323 327 321 319 318 317 316 314 312 310 309 314 326 330 331 327 326 326 327 327 327 328 326 325 324 326 324 323 322 323 324 322 321 321 322 322 323 323 322 321 321 320 315
314 316 317 320 318 320 322 323 317 317 315 314 314 310 308 307 305 309 318 324 324 325 324 325 326 326 325 328 325 323 323 324 322 322 322 321 322 321 321 321 321 322 323 322 324 324 322 321 321

GFSSGP_850_thetae_087.txt.gz
Theta_e
309 310 316 320 315 311 313 315 317 318 319 323 325 324 322 323 334 338 343 338 340 334 329 329 327 324 322 322 322 326 334 338 340 340 340 339 337 335 335 333 331 331 333 334 334 334 335 335 333
309 311 319 320 312 312 312 316 318 319 321 324 324 323 322 323 333 343 342 339 338 326 329 325 323 322 322 321 322 324 330 336 339 340 340 339 338 335 335 334 332 331 332 333 335 335 335 335 331
309 317 319 313 311 313 312 315 317 319 320 323 322 322 322 325 336 340 338 334 330 324 325 323 322 322 322 321 321 322 327 332 337 339 340 340 339 337 335 335 334 332 333 335 335 335 335 332 331
310 318 318 314 314 314 315 316 316 317 321 322 322 321 325 326 334 339 341 334 325 325 323 322 322 321 320 320 321 321 325 330 334 337 338 339 338 338 336 336 336 333 333 335 336 334 331 329 328
315 317 314 313 315 315 316 318 318 318 319 322 322 321 323 328 330 338 338 338 332 323 323 323 321 321 321 321 321 321 323 328 333 336 338 338 338 337 337 336 336 335 334 335 335 332 330 329 328
313 317 315 317 317 317 317 319 318 319 320 321 321 321 321 322 331 335 337 337 337 324 327 324 321 321 321 321 321 321 321 324 330 333 335 336 337 337 337 337 336 336 336 335 334 333 332 328 330
315 314 316 315 316 318 319 320 318 319 320 319 321 321 322 325 328 336 337 337 337 335 333 327 322 321 322 321 322 322 321 323 328 331 331 337 338 339 337 336 336 336 336 334 333 332 333 329 331
318 316 319 318 318 318 319 320 321 320 319 320 320 318 319 330 334 336 336 336 334 333 331 328 324 323 322 322 322 322 321 323 327 330 332 339 337 338 338 337 336 336 332 328 333 333 332 330 330
319 318 321 320 320 319 320 319 321 319 319 320 320 319 321 327 329 339 339 339 339 338 331 328 325 323 323 323 323 323 321 322 326 330 332 333 332 333 335 337 334 330 327 326 328 334 331 328 329
311 316 319 318 318 319 319 318 317 317 318 320 319 319 323 325 325 326 335 340 341 340 339 333 328 325 324 324 324 323 321 322 326 330 331 331 331 332 332 333 333 328 327 327 328 333 329 328 329
312 312 313 317 319 319 317 316 317 315 317 318 318 318 319 322 324 323 322 327 338 342 341 340 337 329 325 324 325 325 320 326 329 330 331 331 331 331 331 332 332 330 328 327 326 330 328 327 329
312 313 313 314 315 316 315 316 316 316 316 317 317 317 317 319 321 322 322 324 330 340 341 340 339 336 329 325 326 328 325 332 332 334 333 333 333 332 331 331 333 331 328 327 328 328 325 327 328
311 311 313 314 315 315 316 314 315 315 316 315 316 316 316 316 318 320 320 320 319 329 342 340 339 339 337 327 328 329 327 335 333 334 334 334 334 334 332 332 332 330 327 326 328 326 327 325 327
311 312 313 314 314 314 314 313 314 314 315 315 315 315 315 316 316 317 319 320 319 321 333 340 339 339 339 331 328 332 329 338 336 334 334 334 334 334 333 332 332 331 328 328 327 326 326 326 326
314 312 311 312 312 312 313 313 313 314 315 315 315 315 315 316 316 316 318 318 318 318 321 337 341 340 340 335 327 331 335 336 336 334 333 333 334 333 333 333 331 329 328 328 327 328 327 327 327
312 312 311 311 311 312 311 311 312 314 314 314 314 314 315 316 316 317 316 318 318 318 318 328 341 340 339 339 330 328 335 334 332 333 333 331 332 331 332 333 332 331 330 328 327 328 327 327 327
311 311 311 312 312 312 311 312 313 313 315 315 315 315 316 316 317 317 317 318 318 318 317 328 340 340 339 339 335 326 323 333 333 332 332 330 331 332 332 331 332 331 330 328 328 327 326 327 327
311 310 309 310 310 311 309 310 311 313 313 313 313 313 314 314 317 318 318 318 319 319 318 328 337 339 337 338 336 327 325 322 325 326 325 324 332 332 331 331 330 330 329 328 327 326 326 327 328
310 310 310 310 311 311 310 310 310 312 312 313 313 314 314 314 315 318 319 319 319 319 318 328 338 339 337 336 336 328 330 325 322 322 327 324 328 330 331 330 330 329 329 328 327 325 325 325 327
311 311 310 309 310 311 310 310 310 313 313 314 314 315 314 314 314 316 319 319 320 319 323 329 337 338 337 335 335 328 330 324 322 320 320 322 327 329 330 328 329 329 329 326 325 325 326 327 325
312 312 311 311 311 311 311 311 313 314 314 315 315 316 316 315 315 316 318 319 320 319 325 333 337 337 338 337 335 331 329 326 323 321 321 319 327 327 327 328 328 328 328 326 325 325 326 326 325
313 312 313 312 312 315 314 317 314 314 314 314 319 319 315 316 316 316 318 319 321 325 328 335 336 338 337 337 334 330 329 327 326 322 317 324 326 327 327 328 328 327 327 325 326 325 326 325 324
312 312 312 312 312 312 314 315 314 314 314 314 322 324 318 317 318 318 317 318 321 332 335 334 335 338 337 335 332 331 330 328 325 323 326 327 327 327 327 327 327 327 326 327 326 326 325 325 324
312 314 314 313 312 314 314 316 317 317 316 323 324 322 320 320 323 325 325 324 325 331 335 335 335 336 336 334 332 332 330 326 323 323 325 326 327 327 327 326 326 327 326 326 325 325 325 325 323
312 313 314 313 313 314 316 316 320 322 323 322 321 319 317 316 317 323 325 325 324 333 337 336 337 335 336 335 334 332 330 326 324 324 326 327 326 327 327 326 326 324 325 324 325 326 325 323 321
312 312 314 317 316 315 314 316 322 316 319 318 317 316 314 312 315 320 324 328 327 327 333 338 336 336 335 335 333 332 330 328 327 325 326 326 326 326 325 325 324 324 324 325 325 325 325 322 322
313 312 313 315 315 315 314 313 321 318 319 318 317 314 311 310 312 318 322 326 331 329 335 334 335 335 335 333 333 331 330 329 327 326 326 325 325 325 326 325 323 323 324 324 324 324 324 324 321
312 313 313 315 319 319 316 322 323 318 318 317 315 312 309 307 310 316 319 322 327 331 332 332 334 333 333 333 331 330 329 329 325 325 325 325 325 325 325 324 324 323 323 324 324 325 324 322 321
313 313 314 315 317 318 319 320 316 317 317 317 314 310 307 304 305 310 315 320 322 327 329 329 330 330 333 333 331 330 328 325 325 324 324 325 325 325 324 325 324 324 324 324 324 324 324 322 322
311 315 314 315 316 317 319 321 316 317 317 314 311 308 305 303 303 306 312 316 321 323 327 330 331 332 333 333 331 329 327 324 324 324 324 323 323 322 323 323 324 323 323 323 324 323 323 322 321

GFSSGP_850_thetae_090.txt.gz
Theta_e
312 309 315 319 314 308 311 313 314 315 316 319 322 322 321 323 331 328 341 339 338 331 329 333 334 332 328 323 324 329 333 335 338 339 338 336 335 335 334 332 331 333 332 335 333 335 335 336 339
309 308 316 319 311 311 310 312 315 316 317 319 319 322 321 322 338 340 340 338 340 334 327 330 330 326 323 322 323 326 330 332 336 339 339 338 335 335 335 334 332 331 332 334 334 335 335 335 334
308 312 319 313 309 311 310 312 315 316 317 318 320 322 321 327 336 338 340 339 338 326 327 327 323 322 322 322 322 324 327 330 334 338 339 338 337 335 335 335 334 332 332 334 334 334 335 335 332
308 318 318 313 313 311 312 313 314 314 317 319 320 319 323 330 335 339 339 338 335 324 326 323 322 322 322 321 320 321 324 328 331 334 338 339 338 337 335 335 334 333 333 334 335 335 335 335 331
313 316 313 313 313 312 314 315 316 316 316 318 320 320 323 334 333 336 332 327 322 324 324 322 322 321 320 320 320 320 321 325 328 331 335 338 338 337 337 335 336 335 334 334 334 335 334 332 330
312 312 313 315 314 315 315 317 316 317 318 318 318 320 321 332 334 336 336 331 326 324 323 322 322 321 320 320 320 320 320 322 326 330 332 336 337 337 337 336 335 336 336 334 335 334 331 331 331
309 310 313 314 315 315 317 318 316 317 318 318 319 318 323 337 334 334 336 335 333 324 323 322 321 321 322 321 320 320 320 320 323 327 330 332 336 337 337 336 336 336 336 335 334 333 332 331 331
317 313 317 315 317 316 317 318 319 318 316 318 319 317 319 333 337 339 339 337 334 327 323 324 322 321 322 322 321 321 321 320 322 326 328 330 334 337 337 336 336 336 336 336 334 331 330 330 329
316 314 316 317 319 319 319 318 319 318 317 317 318 318 321 328 338 338 338 338 337 333 329 325 324 323 322 322 322 322 322 321 320 324 327 329 334 337 338 337 336 335 334 332 331 328 327 332 329
310 311 316 317 317 316 318 318 318 316 315 317 317 317 330 337 338 338 338 338 338 336 334 331 325 324 323 323 323 323 323 322 319 323 327 329 333 334 333 336 336 333 332 327 327 327 327 329 328
310 312 312 313 314 315 316 317 318 315 315 316 316 316 316 323 337 338 338 337 337 336 336 334 333 328 324 323 323 323 323 321 320 326 328 329 330 331 332 333 333 334 330 327 326 328 330 328 328
310 311 312 312 313 313 312 314 314 314 315 316 316 316 316 315 317 329 337 339 339 339 337 334 333 336 335 324 324 325 324 321 324 328 329 329 330 330 330 331 332 332 328 327 327 326 328 327 327
310 311 312 313 313 313 313 312 313 313 314 314 315 315 315 315 314 315 322 323 325 335 336 337 336 337 338 336 325 327 327 323 326 329 332 331 331 331 331 331 331 332 331 329 327 327 326 327 326
309 309 310 312 312 312 312 311 312 313 314 314 314 314 315 315 315 315 315 317 324 322 327 331 338 340 339 338 330 325 328 326 331 331 330 330 332 332 332 332 331 332 332 329 327 328 328 326 326
313 312 310 311 311 310 311 310 310 312 313 313 313 313 314 314 314 314 315 315 316 321 319 319 327 340 340 339 334 327 326 326 334 333 332 331 332 332 332 332 331 332 331 327 327 327 327 326 326
310 310 311 311 310 311 310 311 310 312 312 312 313 312 313 313 314 315 315 315 316 317 320 319 321 333 338 339 338 330 326 325 331 333 333 331 332 332 332 332 332 332 331 328 328 327 326 326 326
308 310 310 311 310 309 310 310 309 312 311 312 312 314 313 314 314 315 316 316 316 316 317 318 318 324 333 337 339 333 328 325 331 331 333 332 332 330 330 326 332 332 330 329 328 328 327 326 327
309 310 308 307 308 309 309 308 309 310 310 310 311 311 312 313 314 315 314 316 317 317 317 317 320 322 330 334 338 336 332 326 331 333 333 333 331 329 330 330 330 331 331 330 329 327 327 327 327
308 308 308 308 308 309 308 307 309 309 309 309 312 312 314 314 315 315 316 314 316 317 317 317 319 321 330 333 337 335 334 325 328 338 335 332 329 323 331 331 330 330 330 330 329 328 328 327 326
308 308 308 309 308 309 309 309 310 309 308 311 312 313 313 314 314 315 315 315 315 319 318 318 319 320 326 330 336 337 334 325 322 325 332 329 327 328 328 330 330 330 329 329 328 328 327 325 326
310 309 309 311 310 309 308 310 312 311 311 313 314 315 320 319 318 317 315 317 316 317 319 318 318 319 327 330 334 336 333 329 325 324 327 328 329 326 327 328 330 329 329 329 328 328 327 325 326
310 311 311 311 310 310 312 313 312 312 312 312 313 320 318 317 318 314 314 315 315 316 319 319 319 320 326 332 336 336 334 329 326 323 323 323 326 327 327 328 329 328 328 328 328 327 326 325 325
311 311 311 310 310 311 312 311 312 315 322 320 320 319 317 317 315 318 320 319 317 318 319 321 322 322 327 336 336 336 334 330 326 323 322 322 321 323 327 327 327 327 328 327 327 325 325 325 326
311 313 312 312 311 314 312 311 313 321 319 317 318 317 315 316 316 316 319 323 323 323 333 330 329 326 334 335 337 336 334 330 326 326 324 320 325 325 326 326 328 328 327 327 326 325 326 326 325
310 311 313 313 311 313 312 314 314 317 316 316 317 316 312 312 313 315 315 324 325 333 337 336 334 334 334 335 335 335 333 328 326 326 324 322 326 326 326 327 327 326 326 327 326 326 326 325 325
309 310 312 316 314 311 313 313 319 317 315 315 317 314 312 314 310 312 312 320 326 328 335 328 331 334 334 336 335 334 331 330 327 324 322 324 325 325 325 326 326 328 327 326 325 325 325 326 323
312 311 311 313 312 314 313 317 318 317 317 317 317 313 308 306 306 307 314 320 323 327 333 333 330 329 332 335 334 333 332 330 326 326 323 325 325 325 325 326 326 325 323 324 325 326 325 325 324
312 312 310 309 315 317 315 316 320 318 318 317 315 310 305 303 304 307 311 317 319 324 330 335 332 333 331 331 332 332 331 329 328 327 324 325 324 324 324 325 325 324 323 323 324 324 325 325 325
306 308 312 312 314 316 315 314 317 317 317 317 311 307 303 302 301 304 308 312 317 320 326 329 330 330 330 329 330 332 330 329 328 326 325 324 324 324 324 325 324 324 323 323 324 324 324 324 324
307 311 315 316 315 314 314 315 316 315 316 310 306 304 301 300 299 301 305 309 314 318 323 327 323 328 328 328 329 330 329 328 325 324 324 324 323 323 324 324 325 324 323 324 324 324 324 324 323

GFSSGP_850_thetae_093.txt.gz
Theta_e
312 311 313 319 313 307 308 310 310 313 315 317 318 319 318 320 326 321 340 335 336 326 331 336 338 339 339 337 335 332 328 332 334 335 335 334 334 333 333 337 339 340 338 338 334 333 333 335 339
311 308 315 317 309 311 308 310 313 313 315 317 318 319 318 320 334 338 339 337 334 325 329 332 334 336 336 333 333 334 328 330 334 336 337 335 335 334 334 333 333 334 336 335 334 333 334 336 339
309 309 316 313 308 309 308 310 312 314 315 316 316 319 320 321 332 334 338 338 335 328 328 332 333 332 330 327 330 334 331 330 333 337 337 337 335 335 334 333 333 331 332 334 333 334 334 335 336
308 316 316 312 311 309 310 311 312 313 317 317 317 315 319 324 328 332 334 336 338 331 330 331 330 326 324 325 327 330 331 330 331 335 338 338 337 335 334 334 334 332 332 333 333 333 334 334 333
310 316 312 313 312 311 312 313 315 315 315 317 318 317 318 326 334 333 335 337 337 328 329 327 324 323 323 323 324 326 327 329 330 333 336 338 337 336 335 334 335 334 333 334 334 334 334 334 333
312 312 312 312 312 313 312 315 315 316 317 317 316 316 318 321 335 336 334 337 334 322 325 324 322 322 322 321 321 322 323 325 327 330 332 336 338 337 337 336 335 335 335 334 334 334 334 334 332
307 308 310 312 314 315 314 316 315 316 316 316 317 315 319 327 335 336 331 326 322 323 322 323 322 322 320 320 321 320 321 323 325 328 330 334 336 337 337 336 336 335 336 335 333 334 331 331 329
315 309 314 312 314 314 315 318 318 318 315 318 317 315 317 325 342 337 336 328 324 324 323 322 322 321 320 320 321 321 321 321 324 326 330 333 335 336 337 336 335 335 336 336 334 334 331 329 328
315 314 313 315 316 316 318 317 319 319 318 317 318 317 317 331 336 341 339 335 328 324 323 322 322 321 320 320 320 321 321 322 322 324 327 331 332 333 335 335 335 335 335 336 336 334 332 329 328
309 311 313 314 315 316 317 316 317 316 317 316 317 316 317 317 337 342 341 337 334 331 327 326 324 321 321 321 321 321 322 322 321 321 325 328 330 331 334 335 335 336 335 335 334 331 331 330 328
309 312 312 313 314 314 312 313 315 314 314 314 315 315 316 316 317 338 339 340 336 334 333 331 330 328 323 322 322 321 322 322 322 320 323 328 329 334 335 334 335 336 334 332 329 328 328 329 327
310 309 311 311 313 312 310 312 311 312 312 313 314 314 314 314 315 316 323 337 338 337 334 334 333 330 325 323 323 322 322 322 322 319 323 328 328 332 331 331 332 333 332 332 330 326 326 327 327
308 309 311 312 312 312 312 310 311 311 313 314 314 314 314 314 314 314 315 315 329 336 339 335 336 335 334 332 325 323 323 323 322 319 325 327 329 330 330 330 330 331 332 332 327 326 328 328 328
308 308 308 310 311 310 310 309 311 311 313 313 312 312 312 313 313 313 314 314 314 319 335 338 336 330 336 336 335 334 324 323 323 321 326 328 330 330 330 330 330 330 331 329 327 327 326 328 328
312 311 309 310 311 309 311 309 308 312 313 311 312 312 313 313 314 313 313 313 314 314 315 333 338 337 338 337 337 337 328 325 324 321 325 326 331 332 332 332 331 330 331 330 329 327 327 327 326
309 309 311 310 309 310 310 310 309 312 311 311 311 312 312 313 313 314 314 315 315 315 314 315 327 336 335 335 339 338 334 327 325 323 328 328 331 333 332 331 330 330 331 332 330 327 328 327 326
306 309 309 309 309 309 308 309 309 311 311 310 311 312 312 313 313 314 314 314 314 314 315 315 316 326 331 334 335 337 338 330 327 325 328 330 331 333 332 331 330 331 331 331 329 327 327 327 326
308 308 308 309 308 308 307 308 309 309 309 308 309 311 312 312 313 314 314 315 315 315 315 315 315 317 322 328 332 335 339 334 330 328 326 330 332 332 332 331 328 331 331 331 329 327 327 327 327
307 307 307 306 306 307 307 308 307 308 307 307 309 310 311 311 314 315 316 314 314 315 315 314 316 316 319 325 327 335 335 337 332 331 327 329 332 333 331 330 326 328 332 331 330 328 328 327 326
306 306 306 306 307 307 306 308 309 307 307 309 309 312 317 317 318 319 318 318 316 316 316 315 316 316 316 318 323 330 330 336 335 329 329 331 334 333 331 330 328 329 330 331 331 330 329 328 327
307 307 308 308 309 308 308 309 309 310 311 318 318 318 317 316 315 316 318 316 315 315 314 315 316 317 317 319 327 332 335 334 332 332 329 336 333 332 328 326 327 329 329 330 330 330 329 327 328
309 309 309 310 309 310 308 311 311 310 319 318 317 317 315 315 317 314 319 320 317 316 315 314 316 318 319 322 321 326 331 331 330 332 328 326 330 330 329 328 325 327 329 329 329 329 328 328 327
310 310 310 311 310 310 310 309 309 315 319 317 314 316 315 313 314 314 317 319 320 321 318 316 316 318 321 319 321 327 334 330 330 329 325 325 327 328 330 325 325 326 329 328 328 328 328 327 327
310 311 310 309 310 312 309 309 308 318 317 316 316 317 314 312 311 313 318 320 320 324 328 321 321 321 322 324 323 331 333 331 331 330 325 326 325 325 327 325 324 327 329 326 328 329 327 329 327
309 309 310 311 311 312 309 311 310 316 316 316 316 316 311 310 307 308 316 319 318 321 332 334 331 328 327 331 331 333 332 333 332 330 324 323 323 322 321 322 326 327 325 325 326 328 329 327 326
308 308 311 314 314 310 311 312 312 317 316 317 317 311 312 308 305 306 313 313 315 319 324 333 337 334 332 333 333 333 334 334 332 330 324 323 321 319 321 325 325 325 325 325 325 324 326 326 325
310 310 309 311 311 312 311 312 316 317 317 317 314 309 306 304 303 304 308 309 313 318 322 330 336 334 334 332 331 330 331 331 332 327 326 323 319 321 325 325 325 325 325 324 323 323 326 326 326
305 308 310 309 317 316 312 312 312 317 316 317 311 306 303 303 303 303 305 308 312 315 321 328 334 332 331 327 329 329 328 331 329 327 324 322 322 324 324 324 324 324 324 327 326 325 324 324 324
303 307 309 313 313 316 313 310 314 315 315 312 307 303 301 300 301 301 303 305 308 313 319 325 328 330 328 326 327 328 327 330 329 325 324 323 323 324 324 323 324 325 324 324 323 323 324 324 325
303 310 311 312 312 310 314 312 312 311 310 307 304 302 300 298 298 299 301 303 305 309 314 319 324 327 327 327 327 327 328 329 327 327 325 324 324 324 323 324 324 325 324 323 323 322 323 324 324

GFSSGP_850_thetae_096.txt.gz
Theta_e
312 312 313 318 310 306 308 307 310 311 312 315 315 316 315 317 319 322 333 338 338 329 326 334 338 339 339 338 338 336 334 333 332 331 331 331 331 332 333 332 336 339 338 337 334 330 330 333 338
312 310 315 316 306 308 306 308 310 311 313 316 317 317 316 317 319 328 339 339 336 332 328 334 338 339 338 338 338 335 333 335 333 332 332 332 332 333 333 333 334 336 336 337 336 332 332 334 338
310 311 315 312 305 307 307 308 311 313 315 316 316 318 317 318 324 334 334 334 332 327 330 333 337 338 338 338 338 334 334 336 335 334 334 333 333 333 334 334 333 333 333 334 334 333 333 335 338
308 314 313 310 310 309 308 311 311 313 316 316 316 314 317 318 318 326 335 332 326 324 329 332 335 336 337 337 335 333 335 337 336 336 336 335 334 334 334 333 333 333 331 331 332 332 333 334 335
310 315 309 312 311 310 310 311 314 313 314 316 316 315 316 318 325 326 337 333 331 327 327 332 333 334 333 332 330 330 333 336 336 336 337 336 335 334 334 334 334 334 332 333 332 334 333 333 334
311 312 310 309 310 311 311 313 314 315 316 317 315 315 317 317 327 339 338 337 337 333 329 331 331 329 326 325 325 327 330 332 334 335 336 337 336 335 334 334 334 334 338 334 333 334 333 334 334
306 306 308 310 312 314 313 315 314 315 316 315 318 315 317 317 317 336 340 340 338 333 330 330 328 324 324 323 323 323 324 326 329 332 334 336 337 336 335 335 334 334 335 334 333 333 334 334 334
310 305 310 310 312 313 313 316 316 318 316 318 317 314 315 317 317 329 340 339 336 332 330 328 326 325 324 322 321 320 320 321 322 325 329 333 336 337 336 336 335 335 335 335 334 333 334 333 331
314 311 310 311 313 313 316 316 317 318 318 317 317 317 316 315 316 326 341 339 337 332 330 327 326 325 323 322 321 321 320 320 321 322 325 330 334 336 336 336 336 335 335 335 335 333 334 332 330
310 310 310 311 312 314 316 315 316 315 315 315 315 314 314 314 315 316 337 340 332 332 328 326 324 323 322 321 321 321 321 321 320 320 322 324 329 333 335 336 336 335 335 335 335 335 334 332 330
307 308 309 313 315 314 312 312 314 313 312 313 313 313 313 314 314 316 325 339 339 329 326 326 324 323 322 321 321 321 321 321 321 321 320 321 325 329 332 335 336 336 335 335 335 334 334 332 330
308 308 310 311 313 313 309 311 311 311 312 312 313 313 313 314 314 314 315 317 333 338 336 328 324 324 323 322 322 321 321 321 321 321 321 319 322 326 330 333 336 336 336 335 334 333 332 332 330
308 309 311 311 311 311 311 309 310 310 313 313 313 312 312 312 312 312 313 313 314 319 330 335 337 336 334 329 323 322 321 321 322 322 321 318 320 324 328 332 333 333 335 335 332 331 328 328 328
308 307 308 309 310 309 308 308 309 311 312 312 311 311 312 312 312 313 313 313 313 314 315 320 333 334 338 333 327 324 323 322 322 322 321 319 320 324 326 329 330 331 333 332 332 332 327 326 327
310 310 308 309 310 309 309 308 307 311 311 311 312 312 311 311 312 312 313 313 313 313 313 314 315 328 334 336 334 330 327 324 323 323 322 320 321 324 326 329 330 330 331 331 332 328 326 327 327
308 308 310 310 309 310 309 309 308 311 310 310 311 311 312 312 312 312 312 312 313 313 314 314 314 314 318 331 334 335 334 333 328 324 323 322 322 325 328 330 330 330 330 330 329 327 327 327 328
306 308 309 309 308 308 307 308 308 311 309 308 309 311 311 311 312 312 312 313 314 314 314 313 314 314 314 321 333 333 332 334 332 328 326 324 324 326 329 330 332 332 331 330 330 328 328 327 328
308 308 307 308 307 306 305 306 306 308 307 308 309 308 308 311 313 314 314 315 315 314 314 314 314 314 314 315 331 330 331 332 334 332 328 325 327 328 330 330 332 332 331 331 331 330 328 327 327
307 307 307 305 305 306 306 306 306 307 307 306 308 314 317 318 318 318 317 315 316 316 315 315 314 314 314 316 327 330 333 333 333 334 330 327 329 329 329 330 331 332 331 331 332 330 327 328 327
304 305 305 305 305 305 305 307 307 306 306 313 317 317 316 315 315 315 317 319 318 317 316 316 315 314 314 314 316 328 325 331 330 336 333 329 328 331 330 330 330 330 328 332 332 330 328 328 327
306 306 306 307 307 307 307 306 308 308 314 317 316 315 315 314 313 314 315 317 319 321 317 315 314 313 313 315 317 320 327 331 330 331 332 332 329 329 331 332 330 329 328 328 329 329 328 327 328
308 307 308 308 308 310 309 309 308 312 316 316 315 314 315 314 312 312 314 316 317 321 320 317 315 314 314 317 318 320 321 326 323 327 330 330 330 329 330 334 331 328 325 327 327 329 327 327 328
308 309 309 308 308 308 309 309 307 313 316 316 313 315 315 312 310 311 311 313 315 318 320 320 319 315 317 318 319 318 320 321 325 331 328 321 327 330 332 333 327 326 325 327 327 328 326 325 327
309 310 309 307 309 310 308 308 307 311 317 315 315 316 313 310 309 310 310 310 314 317 319 322 325 317 319 322 321 320 320 324 332 331 330 328 329 330 333 333 327 327 324 325 326 327 324 325 325
308 308 309 309 310 311 308 309 309 311 315 315 315 314 310 307 305 309 308 307 310 317 318 322 329 328 328 328 327 323 327 327 331 331 328 331 332 329 334 332 332 326 324 325 325 327 326 325 325
309 308 310 312 313 310 310 311 310 314 315 316 314 310 307 305 303 311 307 306 306 313 316 320 326 332 335 337 334 333 332 332 331 332 330 330 329 326 326 328 326 325 323 324 326 324 324 325 323
309 308 308 309 310 311 310 309 310 315 315 313 309 307 304 302 300 306 307 306 307 310 314 317 323 329 333 333 332 332 334 332 332 331 330 330 328 324 324 324 322 323 325 325 324 325 325 324 324
305 307 310 309 315 314 311 311 311 314 314 310 307 304 302 299 300 303 303 303 306 308 313 316 321 328 331 333 332 332 333 332 331 328 329 328 324 323 321 322 325 324 324 324 324 324 323 323 323
301 305 309 310 312 315 314 309 312 312 309 307 305 303 300 298 297 299 300 302 304 306 309 313 319 326 329 331 328 330 330 328 327 327 328 325 324 321 323 324 323 323 323 323 324 323 322 323 323
303 309 308 308 311 308 311 310 311 308 305 304 303 301 299 297 298 299 298 300 304 304 307 309 316 320 325 329 327 326 323 325 322 328 327 324 322 323 323 323 323 323 324 324 324 324 323 322 323

GFSSGP_850_thetae_099.txt.gz
Theta_e
311 312 312 316 314 313 313 313 312 314 314 314 314 316 318 318 318 322 322 331 335 329 330 333 334 336 338 338 335 334 332 332 334 339 341 341 341 340 340 338 337 338 338 336 333 330 330 331 334
312 311 314 315 313 314 315 312 313 314 314 315 316 316 317 319 319 322 328 339 338 332 329 333 334 336 337 337 336 335 334 332 332 334 336 335 335 336 337 337 338 338 338 336 335 332 330 331 335
310 312 314 317 311 315 315 311 314 313 315 315 317 316 317 318 320 324 331 338 339 333 326 331 333 336 337 337 337 336 335 334 333 332 332 332 333 334 335 335 336 337 336 336 336 333 331 332 336
308 313 312 314 315 313 312 313 313 314 315 315 316 318 317 317 318 321 323 336 336 332 329 330 332 335 337 337 337 337 335 335 334 334 333 333 333 334 335 335 336 335 334 335 335 333 331 333 335
309 312 313 314 314 313 313 311 312 315 315 316 316 317 317 317 317 319 333 337 339 335 326 331 333 334 336 336 337 335 333 334 334 335 335 334 333 334 334 335 335 334 333 334 332 332 332 333 335
311 312 313 314 314 313 313 313 314 315 315 317 316 317 318 317 317 317 327 338 339 337 332 333 335 336 336 336 335 333 331 331 332 334 336 335 334 334 334 334 334 334 333 333 333 332 333 333 334
311 313 313 313 313 314 314 314 314 316 318 318 317 318 318 318 316 315 321 336 340 337 332 337 336 336 336 337 336 333 332 331 329 330 333 336 335 334 333 333 333 334 336 337 335 333 333 333 333
308 312 311 312 313 314 315 315 316 317 317 318 317 317 318 315 314 315 318 337 341 337 335 338 337 336 336 335 334 333 332 331 330 330 330 332 335 336 335 334 334 334 335 336 334 333 333 333 334
312 312 312 312 313 313 315 317 316 317 317 316 316 316 314 313 314 315 320 336 340 338 336 337 338 338 336 334 332 331 330 328 329 329 329 329 332 335 336 335 335 334 334 335 334 334 333 334 333
314 313 311 312 313 314 315 315 315 315 316 315 314 314 313 313 313 314 316 332 340 338 336 336 337 337 335 333 331 328 327 325 324 325 326 327 326 330 334 336 336 335 334 334 334 334 333 333 332
308 310 312 313 314 314 315 314 314 315 315 313 314 313 313 313 313 313 314 325 336 339 332 334 335 333 330 329 329 327 324 323 322 321 324 325 325 326 331 334 336 335 335 335 334 334 334 334 333
308 308 309 311 311 312 313 313 312 311 312 313 312 312 312 313 313 313 313 313 313 315 331 336 331 329 328 327 325 324 324 322 321 321 322 323 323 322 323 329 333 335 335 335 335 335 334 334 334
310 310 310 310 310 311 310 311 312 311 311 312 312 312 312 311 312 312 313 313 313 313 313 314 332 334 331 326 325 324 323 322 321 321 322 322 322 320 321 324 330 333 335 335 335 335 334 334 332
308 308 310 309 309 308 310 311 308 311 313 312 311 311 311 311 311 311 312 312 312 313 313 313 314 325 333 335 329 325 323 322 322 322 322 322 322 320 320 324 327 331 333 336 336 335 333 333 332
309 310 310 310 311 311 310 311 310 312 310 310 310 311 312 311 311 311 312 312 312 313 313 312 312 313 316 324 335 335 332 324 323 322 322 323 323 321 322 324 326 329 330 333 335 334 333 331 329
309 309 311 311 310 310 311 312 311 309 309 310 311 311 311 311 310 311 312 313 313 312 313 313 313 312 312 318 328 335 334 332 325 323 323 323 323 321 323 326 326 328 328 330 333 333 333 331 326
308 310 311 311 310 310 310 310 311 310 309 309 310 309 309 311 313 315 315 315 314 313 314 314 314 313 313 313 313 321 332 334 333 328 326 325 324 322 324 326 327 328 329 329 330 331 332 327 328
309 310 310 310 309 308 309 308 309 309 308 309 309 307 313 316 316 317 317 317 317 317 314 313 313 314 314 314 313 314 322 334 334 329 331 328 327 323 324 327 329 329 330 330 330 330 328 327 327
309 309 309 309 308 307 309 310 310 310 308 309 309 317 317 316 315 315 315 315 315 316 318 316 314 314 314 314 313 314 316 320 333 331 330 331 329 326 325 326 330 329 330 330 330 330 328 328 328
307 308 307 307 307 307 310 311 311 310 309 310 318 316 316 315 315 315 314 315 315 316 317 319 318 315 315 314 314 313 315 316 334 333 332 333 331 329 327 327 329 329 330 330 329 331 330 328 328
306 307 308 310 309 309 309 311 310 309 314 317 317 315 315 314 313 313 314 314 314 315 316 317 320 317 315 313 325 327 329 333 336 331 329 332 332 331 329 331 330 329 329 329 331 328 330 330 327
309 308 309 309 310 312 310 312 310 311 313 317 315 316 315 313 312 311 309 310 313 314 314 315 319 320 316 314 324 329 330 333 329 327 327 329 331 331 330 331 330 330 330 329 331 326 327 328 327
310 310 309 310 310 310 311 312 311 311 316 316 316 316 314 312 310 309 307 306 308 313 315 316 317 320 319 319 317 328 327 328 331 330 325 326 327 328 329 322 329 329 330 330 329 327 327 327 327
310 310 311 310 311 313 312 311 310 312 316 316 316 316 311 309 308 307 305 305 309 314 315 315 316 319 322 324 317 328 328 329 331 328 326 329 328 326 326 323 325 331 331 328 326 324 326 326 326
309 310 310 311 313 311 309 311 311 311 315 316 317 312 308 305 304 303 302 304 309 310 312 314 316 319 324 325 324 330 332 331 330 328 328 330 324 321 323 324 329 331 331 326 325 325 327 326 326
309 310 310 311 312 311 310 312 312 314 316 313 310 307 305 303 302 301 301 299 304 307 309 312 315 318 324 329 329 330 331 332 332 332 331 330 325 324 324 325 330 331 330 327 325 324 326 326 326
310 311 310 311 311 311 311 311 313 316 315 311 309 306 304 301 300 300 299 299 304 306 307 308 312 318 324 328 331 331 330 330 331 332 332 330 326 326 324 327 330 330 330 329 324 325 326 325 325
308 309 314 313 312 310 311 312 314 315 313 310 308 306 303 300 299 298 298 298 305 304 306 310 312 315 323 328 331 330 330 329 328 331 330 330 329 328 328 328 329 331 331 328 324 323 326 325 326
302 305 311 312 313 315 312 313 312 312 310 309 306 304 301 300 298 297 298 299 302 303 304 307 311 316 322 325 328 330 329 330 330 331 331 329 325 322 324 328 331 328 323 324 325 325 325 325 324
305 308 308 308 310 310 311 313 311 309 307 306 304 302 300 298 298 296 300 300 300 301 304 306 309 313 314 324 325 327 329 329 329 328 328 325 320 322 326 324 323 323 323 323 324 324 324 324 324

GFSSGP_850_thetae_102.txt.gz
Theta_e
312 312 312 318 321 319 322 321 319 320 319 318 318 319 321 321 322 325 323 337 340 338 328 331 337 339 338 337 337 334 332 333 339 342 343 343 343 343 341 339 336 334 334 332 331 330 331 332 333
314 312 316 318 320 323 324 321 319 319 318 318 319 320 321 323 321 325 330 340 340 345 330 331 334 337 335 337 336 334 333 333 337 341 342 343 344 343 341 340 338 336 336 335 333 331 330 331 332
313 313 318 321 322 323 324 319 319 317 318 318 320 319 320 321 322 324 328 334 330 344 333 333 332 334 335 337 336 335 333 333 333 336 339 343 343 342 341 339 338 337 337 337 335 333 330 331 333
314 315 316 320 323 323 320 319 318 318 318 317 319 321 320 320 322 324 330 329 332 342 343 338 333 334 335 336 336 335 335 333 332 333 335 339 340 339 339 338 338 338 338 337 336 334 331 331 335
315 316 320 321 323 323 320 318 317 318 318 318 319 320 320 320 321 325 327 330 339 342 342 340 335 337 337 337 336 336 336 334 333 333 332 332 333 335 336 336 337 337 337 336 336 335 332 332 335
315 317 320 323 324 322 319 318 318 318 318 318 319 320 321 319 319 325 325 327 336 341 335 336 336 337 339 338 337 337 337 335 335 334 334 333 333 334 336 336 336 336 335 334 334 333 333 333 334
316 319 321 322 322 321 319 318 318 319 319 320 319 321 320 320 319 324 327 327 336 340 339 333 337 339 340 339 338 338 337 336 336 336 335 335 334 334 335 336 336 334 334 334 333 332 333 333 334
314 317 319 319 320 320 319 317 317 318 319 319 318 320 321 320 317 320 329 337 344 341 340 336 338 339 340 340 339 338 338 337 337 337 336 335 335 335 334 334 334 334 334 334 335 334 332 333 333
312 316 318 320 319 319 316 317 318 319 319 318 318 318 318 316 316 317 322 332 344 342 340 337 338 339 340 340 340 339 338 337 337 337 336 336 336 335 335 334 334 334 334 334 336 334 333 333 334
314 316 318 318 317 317 316 317 316 316 316 317 317 316 316 315 316 317 318 322 342 345 340 335 337 339 340 340 339 339 338 338 337 337 335 335 336 339 340 338 334 334 334 334 334 334 334 333 334
313 316 317 315 314 314 315 315 315 316 317 316 316 315 315 315 316 316 316 316 325 339 343 337 336 337 338 338 339 338 337 338 338 337 337 334 338 340 337 340 337 335 335 335 334 334 334 334 334
311 312 312 313 312 314 315 314 314 314 314 314 313 314 314 314 314 315 315 315 316 320 330 338 335 333 335 337 336 334 333 332 332 329 327 328 328 339 339 339 340 339 339 340 338 338 336 335 335
312 312 311 311 311 311 311 313 314 314 314 314 314 313 314 314 313 314 314 314 315 315 316 325 336 322 334 331 328 328 328 327 326 326 325 327 327 330 336 338 338 340 341 339 338 336 336 335 335
312 312 312 313 313 313 313 313 313 313 314 314 314 313 313 313 313 313 314 314 315 314 315 314 321 334 335 334 333 330 325 324 324 323 323 325 327 330 326 327 328 337 341 340 336 336 335 335 334
311 312 313 313 312 313 313 314 315 314 314 313 313 313 313 313 312 313 315 316 317 318 317 313 312 314 333 322 329 333 331 325 324 322 323 323 325 326 324 323 325 329 337 338 336 335 335 335 334
312 313 315 315 314 314 313 316 315 314 313 313 314 314 313 313 313 316 319 319 318 315 313 313 314 314 313 327 330 334 335 335 334 333 326 323 323 325 325 324 322 326 330 332 332 335 335 335 333
313 315 316 315 314 315 315 315 314 313 312 313 313 314 313 314 318 319 318 318 318 318 315 313 313 314 314 314 327 331 332 325 337 336 334 327 323 324 326 324 323 326 332 334 332 335 336 334 331
316 315 315 315 314 313 314 314 313 311 313 313 314 314 314 317 318 318 318 318 317 317 316 316 316 314 313 314 320 331 332 319 328 334 335 332 329 324 326 326 324 326 330 331 330 333 333 335 333
312 314 314 314 313 311 312 312 312 314 314 314 314 314 317 318 318 317 317 317 317 317 316 316 315 316 317 316 318 327 332 327 316 330 334 333 332 328 326 326 325 327 329 329 329 330 332 333 331
311 312 313 312 312 310 312 314 315 315 315 314 314 318 318 318 317 317 316 316 316 315 315 315 315 316 317 318 319 323 330 331 331 332 334 327 334 329 329 329 325 327 329 330 331 330 330 332 329
310 311 311 310 312 313 314 315 315 313 313 316 317 318 318 317 316 315 314 314 313 313 313 312 313 313 317 317 318 319 328 331 333 331 328 318 333 331 330 330 327 329 330 331 331 330 331 329 329
310 310 309 311 313 314 314 315 313 313 315 317 318 318 318 317 315 314 313 312 311 311 310 314 315 315 317 317 316 320 323 330 331 330 324 322 329 334 332 331 330 329 331 331 331 331 329 330 329
310 310 311 312 314 315 314 314 314 313 314 317 319 319 317 315 313 312 310 309 308 308 311 314 315 316 316 317 317 317 322 330 331 332 332 336 331 331 332 330 325 329 328 329 330 330 329 327 328
311 311 312 313 314 315 314 314 314 314 315 317 319 317 315 312 311 310 309 308 307 307 307 311 315 316 316 318 319 320 321 327 332 332 332 333 335 332 330 331 331 330 327 323 325 327 329 327 326
311 311 313 313 313 313 312 313 313 314 316 317 319 316 313 311 310 309 307 306 306 305 306 311 314 314 316 318 320 323 323 325 333 332 333 332 336 330 330 328 330 329 327 321 322 325 330 328 326
311 311 313 313 313 313 313 313 317 319 318 316 314 313 312 309 308 307 305 304 304 303 302 310 314 314 317 318 322 325 326 327 332 331 332 331 334 336 333 329 326 329 322 323 323 328 331 327 324
311 312 312 312 312 314 313 314 319 317 316 315 313 312 310 308 306 305 304 303 302 302 305 307 311 312 313 318 323 328 330 333 332 330 329 331 332 333 329 329 327 323 323 323 327 329 329 326 326
313 312 314 314 313 313 312 312 314 317 316 312 312 311 309 307 305 303 302 301 301 300 304 307 309 308 313 318 323 330 330 330 330 330 331 330 330 330 328 325 323 323 325 328 329 329 327 325 327
309 312 314 314 314 314 313 314 315 314 311 311 310 308 307 305 303 301 301 300 299 299 302 305 309 310 313 316 323 326 326 327 328 329 329 330 330 330 328 323 326 327 329 328 329 329 328 324 324
304 308 309 310 310 312 315 313 313 312 310 308 307 306 305 303 301 300 300 299 298 298 301 304 305 308 309 311 316 323 325 326 328 329 328 329 329 329 327 326 323 322 327 329 328 328 326 324 325

GFSSGP_850_thetae_105.txt.gz
Theta_e
315 315 318 320 324 324 325 327 325 323 323 321 321 321 324 323 325 327 327 338 346 348 348 340 338 337 338 340 338 337 335 332 334 339 342 340 342 342 340 337 335 331 330 330 331 331 332 332 333
319 317 319 322 324 326 327 327 323 324 322 320 321 321 322 324 323 325 329 332 339 348 349 341 338 338 338 339 337 336 334 332 334 340 343 341 342 343 341 338 336 333 332 332 331 331 331 332 333
317 318 321 324 325 326 327 325 324 322 320 321 321 321 323 324 323 325 329 336 341 344 348 348 339 339 341 338 337 336 334 332 334 339 342 342 343 343 342 339 337 334 334 335 333 332 331 331 332
317 318 320 323 325 327 326 326 322 322 320 320 320 322 322 322 324 325 330 335 345 346 348 348 339 340 341 338 337 336 334 333 334 338 342 342 343 343 342 340 338 336 336 337 335 334 333 331 332
317 320 324 325 326 326 327 324 322 322 322 321 321 322 322 322 322 323 328 335 345 349 348 347 339 339 339 338 338 336 334 333 333 334 339 342 342 341 341 340 338 337 337 338 335 335 334 331 332
319 320 324 326 326 327 327 323 322 322 322 321 321 321 322 323 322 321 327 336 344 350 349 348 339 336 337 339 338 336 335 335 333 333 335 337 338 337 338 339 337 336 336 336 336 335 334 332 332
319 323 324 325 326 326 326 323 322 322 322 322 322 323 323 323 322 320 324 333 345 349 351 350 343 337 339 339 339 337 336 335 334 334 333 333 333 334 335 337 336 336 335 335 335 334 332 332 332
317 321 322 324 325 325 325 322 321 321 322 321 321 323 323 323 321 319 320 327 341 348 352 350 348 337 338 339 339 338 337 337 336 335 335 334 334 334 335 336 337 336 335 334 334 333 333 333 333
316 319 322 324 324 324 323 320 320 320 321 321 321 321 321 320 318 318 320 323 336 347 348 351 349 347 338 342 340 338 338 338 337 336 336 336 335 335 334 335 336 336 335 333 334 334 335 333 334
318 321 322 323 322 322 321 320 320 320 320 320 319 319 319 318 318 318 319 321 325 343 346 347 351 344 341 345 348 341 339 339 338 337 337 337 336 342 342 340 336 335 334 334 333 336 335 334 335
318 320 322 322 321 319 319 319 318 319 320 319 319 319 319 317 317 318 318 319 320 328 344 346 347 343 341 340 342 344 345 343 341 339 341 339 341 342 342 342 340 336 335 335 335 334 336 335 336
318 317 317 318 318 317 318 318 318 318 318 317 317 316 316 317 317 317 317 318 318 319 328 342 345 346 348 346 342 343 345 343 344 344 342 342 341 340 341 339 341 339 340 338 339 337 337 337 337
318 318 317 316 315 315 314 315 316 316 316 316 316 316 316 316 316 316 316 317 317 318 318 321 335 341 345 344 345 345 344 343 335 339 338 341 341 340 340 339 339 340 339 340 339 338 337 337 337
316 316 316 316 316 315 315 316 315 316 316 316 316 316 316 316 316 316 316 316 318 319 319 319 319 330 338 341 343 344 343 342 341 342 331 331 331 334 340 340 339 338 340 338 339 340 338 336 336
315 315 316 316 316 317 316 317 317 316 316 316 317 317 316 316 315 315 316 318 319 320 321 323 323 318 328 336 339 340 342 341 340 340 340 324 327 327 339 338 338 338 339 336 337 336 337 337 336
317 317 318 319 319 318 316 318 320 318 317 317 316 316 316 316 315 316 320 319 320 320 322 323 323 324 320 317 330 336 337 340 340 338 339 333 324 325 329 339 338 338 334 336 336 337 334 336 337
318 318 320 321 321 318 318 318 319 318 316 316 316 316 316 316 316 320 320 319 320 320 321 321 322 323 324 319 316 325 333 336 338 339 339 339 333 332 325 333 329 333 334 334 337 335 334 335 334
321 321 321 320 321 318 319 318 318 317 316 315 316 316 316 315 318 320 319 319 320 320 320 320 320 320 322 322 319 316 325 331 334 336 338 340 338 333 331 330 326 327 330 333 331 335 333 335 333
318 319 322 320 320 318 317 317 318 317 315 315 316 316 316 317 319 318 319 319 319 319 319 319 319 319 319 320 322 322 321 325 331 334 335 338 340 339 337 335 335 327 326 331 330 336 337 333 333
317 317 318 318 318 317 316 316 316 316 316 316 317 316 317 319 318 318 318 317 317 317 317 317 317 317 317 318 319 321 322 322 327 331 333 335 338 339 337 336 335 327 326 331 330 337 333 334 333
316 316 315 316 316 316 315 315 316 317 317 316 315 317 319 319 318 317 317 316 316 315 314 314 314 315 316 316 317 318 321 321 323 332 333 333 336 336 332 331 335 328 327 328 327 333 329 331 330
314 314 313 314 315 314 316 317 318 318 316 316 318 319 319 319 317 316 315 315 314 313 312 312 311 313 313 313 314 315 318 322 320 324 332 333 333 336 337 334 336 332 329 328 326 329 333 331 328
314 312 313 314 312 314 316 317 318 316 316 317 319 319 319 317 316 315 314 313 312 312 311 310 309 309 310 309 314 315 315 318 323 323 330 330 333 333 337 335 335 331 332 328 330 333 332 331 329
311 312 312 314 314 316 316 317 318 316 316 317 319 319 318 316 315 314 312 311 311 310 309 308 307 307 307 314 316 316 317 317 321 323 329 332 333 332 332 334 335 333 331 329 328 322 329 330 329
311 314 315 316 317 319 316 316 316 316 316 318 320 318 317 315 313 312 310 309 308 308 307 306 304 305 310 314 315 315 315 318 318 322 327 332 332 332 331 332 334 332 331 327 320 320 327 331 331
313 313 314 317 315 315 313 315 319 319 320 319 317 317 315 313 311 310 309 308 306 306 305 303 302 308 310 312 316 316 318 320 321 321 325 331 333 331 331 332 331 331 331 327 323 321 331 330 330
314 315 312 314 314 316 317 318 320 318 318 317 316 315 313 311 310 309 307 306 305 304 303 301 301 304 310 311 316 317 322 323 325 326 327 331 333 332 331 333 332 333 334 332 329 329 328 327 329
312 314 313 314 318 315 316 317 319 319 318 316 313 312 310 309 308 307 306 305 304 303 302 300 299 303 308 311 314 318 325 328 330 329 329 332 331 332 331 331 331 332 330 327 328 326 327 330 330
311 316 314 315 315 316 316 319 318 318 315 313 311 309 307 306 306 306 305 304 303 302 301 299 298 302 307 312 314 319 324 327 328 328 329 331 331 331 332 332 332 330 328 327 322 321 322 328 331
308 310 312 315 314 316 314 315 315 314 312 309 308 307 306 305 304 304 304 303 302 300 299 298 298 301 303 306 312 316 318 322 326 327 329 329 330 329 331 330 329 329 328 324 322 323 322 324 329

GFSSGP_850_thetae_108.txt.gz
Theta_e
315 316 319 320 323 325 325 326 327 325 324 323 322 322 323 323 325 329 334 334 340 349 349 344 340 337 336 336 338 338 337 335 331 332 338 340 339 342 339 337 333 330 328 329 331 331 332 331 329
317 321 319 321 325 326 326 327 325 324 323 322 322 322 322 324 324 326 330 333 341 348 349 346 341 340 337 338 339 338 336 333 332 334 338 341 339 342 340 338 336 333 331 331 331 331 331 331 332
318 320 320 324 325 326 326 327 325 323 322 322 322 323 323 325 325 326 329 333 343 342 348 346 339 339 338 339 341 338 336 333 332 334 338 342 340 342 342 340 338 336 334 333 332 332 331 331 332
318 319 320 324 325 326 326 327 325 323 322 322 321 322 323 323 325 325 328 334 342 347 348 350 340 337 339 340 341 337 335 333 332 333 338 342 341 342 342 341 339 337 335 335 335 334 333 331 331
318 320 323 324 325 325 326 326 325 323 324 323 322 322 323 324 323 323 327 332 341 348 349 349 347 339 339 341 340 337 335 333 333 334 338 341 341 342 342 341 339 337 336 336 336 334 334 332 331
319 321 324 325 325 326 327 327 325 324 324 323 323 322 322 323 323 323 322 329 338 338 350 349 347 341 340 341 338 337 335 334 334 334 336 339 341 342 342 341 338 337 336 336 336 335 334 334 331
318 322 323 324 326 326 326 326 325 324 324 323 323 324 323 324 323 322 321 323 335 343 351 350 349 345 340 341 338 338 336 334 334 333 334 336 339 340 340 339 338 337 336 335 335 335 333 334 332
318 320 322 323 324 324 325 325 323 322 323 323 323 323 323 324 322 321 320 321 329 343 344 351 350 345 339 339 339 338 336 335 335 334 334 334 335 336 337 336 337 337 337 336 334 333 333 332 332
318 319 321 322 324 325 325 325 322 322 322 322 322 322 322 322 321 319 319 321 324 339 346 342 348 348 340 338 339 339 337 336 335 335 334 334 334 334 334 335 336 337 338 336 334 333 333 333 332
319 320 321 323 324 324 324 322 322 321 321 322 321 321 321 321 320 319 319 320 322 326 346 345 343 347 347 342 340 340 338 337 337 336 336 335 335 334 334 334 335 336 337 338 335 333 333 334 334
319 320 320 321 322 322 322 321 321 321 321 320 321 320 320 320 320 318 319 319 320 322 335 344 343 345 345 347 348 345 341 338 338 338 337 336 336 336 338 339 337 337 336 338 336 334 333 334 334
320 319 320 320 320 319 319 319 319 320 320 320 320 319 318 318 317 318 318 318 319 320 323 343 342 342 344 346 346 348 346 343 340 339 338 338 337 337 340 338 340 338 336 336 335 335 334 334 334
321 321 320 320 319 319 318 317 318 318 317 318 318 318 318 317 317 317 318 318 318 319 320 321 331 340 342 342 344 344 343 345 344 345 343 339 340 338 338 343 339 341 338 336 336 336 336 336 335
318 318 318 317 317 317 318 318 317 317 317 317 317 317 317 317 317 317 317 317 318 319 320 320 320 329 339 340 339 342 344 342 344 343 344 343 342 342 338 339 341 341 341 338 338 335 338 336 336
318 318 318 318 318 318 318 319 319 319 318 318 318 317 317 317 317 317 317 318 319 321 322 323 323 321 327 338 338 339 338 340 340 342 340 340 339 340 342 340 341 337 341 339 337 336 338 337 337
317 318 320 320 320 320 319 320 319 319 319 319 318 318 318 317 317 316 317 320 320 320 322 323 324 324 321 320 336 338 340 339 340 341 342 340 338 335 336 338 340 339 340 339 339 334 338 337 337
318 320 321 322 322 321 322 322 321 319 319 319 318 318 317 317 317 317 321 320 320 320 321 322 322 322 323 320 316 320 335 337 338 338 340 341 340 338 330 333 334 332 338 338 339 337 335 335 335
319 320 321 323 322 323 322 323 321 320 320 318 318 317 317 317 317 321 320 320 320 321 320 320 320 320 320 319 319 318 316 319 333 336 340 339 339 339 338 335 339 334 334 332 337 336 333 335 335
318 318 319 320 320 321 322 320 320 320 319 318 317 317 317 317 320 320 320 320 320 319 319 318 317 317 317 318 319 320 322 323 323 328 333 340 339 338 339 339 337 339 339 331 333 333 332 334 335
317 319 319 319 318 319 320 319 318 319 319 318 317 316 317 317 320 319 319 318 318 317 316 315 315 314 316 317 318 318 318 319 323 323 330 335 333 336 336 339 337 337 337 335 331 328 330 334 331
315 317 317 318 317 316 317 319 319 319 318 317 317 316 317 319 319 318 317 317 316 315 314 314 313 313 314 315 316 316 317 317 318 318 323 332 335 332 336 337 337 338 332 327 334 332 329 328 332
316 315 316 316 316 319 316 322 318 317 317 317 317 317 320 319 318 317 316 315 314 313 312 312 311 311 312 313 314 314 314 314 317 321 324 321 334 335 332 330 333 337 332 333 329 333 333 329 331
315 314 315 316 316 315 316 317 316 316 317 318 319 320 320 318 317 316 314 313 312 311 311 310 309 310 312 313 314 315 315 315 316 317 320 323 326 334 331 332 332 334 332 330 322 332 332 332 329
313 313 314 314 315 318 316 315 317 318 318 317 320 320 318 317 316 314 312 311 310 309 308 307 308 310 310 310 313 313 315 317 317 317 318 319 323 325 333 328 330 334 334 332 331 327 327 333 328
312 313 316 317 318 317 315 316 317 317 319 318 321 319 317 315 313 312 310 309 308 307 306 305 306 307 305 308 311 312 313 313 315 317 317 320 320 324 328 327 329 333 333 331 330 328 331 329 326
312 313 315 318 319 316 315 320 318 320 320 319 318 317 314 312 311 310 309 308 307 305 304 303 303 304 304 307 309 312 312 311 313 317 319 320 321 322 323 323 329 330 331 333 331 331 331 325 321
315 315 313 314 314 319 319 317 317 320 319 317 317 314 311 310 308 308 307 306 305 304 303 301 301 302 303 305 306 311 313 313 315 319 320 323 323 321 329 331 331 331 329 329 332 330 329 327 319
314 314 317 315 318 319 316 318 322 320 318 315 313 310 308 307 306 306 306 305 304 302 301 300 298 300 302 304 305 308 312 314 316 322 324 328 325 327 329 330 332 331 330 329 331 329 328 324 327
312 313 315 316 315 318 317 322 316 315 314 313 311 308 307 306 305 305 304 304 302 300 299 298 297 300 301 302 304 307 310 316 316 321 324 328 328 327 329 331 331 331 330 330 331 330 331 330 328
311 311 314 319 318 317 317 318 314 311 312 310 308 307 306 305 303 303 303 302 300 298 297 296 296 298 299 300 302 305 308 312 315 319 322 324 326 325 328 330 329 331 331 330 329 330 330 328 327

GFSSGP_850_thetae_111.txt.gz
Theta_e
313 317 319 319 317 317 319 320 320 320 319 321 322 321 320 321 325 330 333 336 340 346 345 345 338 336 334 335 335 335 335 334 333 330 334 340 340 341 340 337 335 331 328 327 328 328 328 328 326
314 320 321 319 318 320 319 321 319 320 321 322 322 322 321 323 326 330 329 331 341 343 347 345 341 338 335 336 337 337 336 334 332 330 333 339 339 342 340 339 337 334 330 329 329 330 330 331 330
318 319 320 315 316 319 320 322 320 320 321 322 321 323 323 325 325 328 328 327 338 343 346 348 345 340 337 336 337 338 337 334 331 331 334 338 340 341 342 340 338 335 333 332 331 331 330 329 330
318 319 319 317 318 319 320 321 322 320 321 321 321 321 323 323 325 325 327 324 324 345 347 348 348 343 340 338 338 340 337 334 332 332 334 338 340 340 342 340 339 336 334 334 334 333 332 331 330
319 318 315 317 318 319 321 322 323 322 321 321 321 321 322 323 323 324 324 323 323 339 347 349 348 344 340 339 339 340 337 334 332 333 334 337 340 340 341 341 339 337 335 334 335 333 333 332 331
317 318 316 317 319 320 321 324 324 323 323 323 322 322 322 324 323 322 322 323 322 326 339 347 348 346 339 339 340 340 337 334 333 332 333 337 340 340 341 341 339 338 336 334 335 334 333 332 332
315 313 315 316 319 320 322 323 323 323 322 323 323 322 323 323 322 322 321 322 324 330 330 338 348 346 342 339 340 340 337 335 333 333 333 336 339 341 341 340 339 337 336 335 334 334 334 332 332
316 313 315 316 318 319 321 322 322 322 322 322 322 322 322 322 322 321 320 320 322 330 332 335 337 347 346 340 340 340 337 335 334 334 333 334 337 340 340 340 338 337 336 335 334 334 334 333 332
315 312 315 315 317 318 321 320 321 322 321 322 322 322 322 322 321 321 319 320 321 326 336 334 341 341 347 342 339 339 338 336 335 334 334 333 334 335 336 336 335 335 336 335 335 334 333 333 332
313 312 315 315 317 318 319 319 318 319 319 321 321 321 322 322 321 320 319 319 320 330 326 343 343 342 344 343 339 338 338 337 335 335 334 333 333 333 333 333 333 334 335 336 336 335 333 333 332
316 315 316 318 319 319 319 318 319 317 318 319 320 321 321 320 320 320 319 319 320 322 336 325 341 342 342 345 340 339 339 338 337 336 335 335 334 333 333 333 333 334 335 336 336 336 334 332 332
316 318 318 318 319 319 318 319 318 317 317 318 318 318 319 319 318 318 318 318 319 319 322 341 341 343 343 343 345 345 342 341 338 337 336 336 335 335 334 333 333 334 334 335 334 334 334 333 332
317 317 319 318 318 317 317 316 317 318 318 317 317 317 317 318 317 317 317 318 318 319 324 336 338 338 342 344 343 344 346 345 344 340 338 338 337 336 335 334 333 333 334 334 334 333 333 333 333
318 318 318 318 317 317 317 317 317 316 317 317 317 317 317 317 317 317 317 317 319 319 321 320 320 322 336 341 342 341 342 344 344 344 343 342 341 338 336 336 337 338 335 336 336 332 333 333 334
317 315 315 315 316 315 317 316 317 318 318 318 318 318 317 317 317 317 317 319 320 321 322 322 322 321 321 331 340 339 338 341 340 342 343 342 343 342 338 337 336 338 339 339 340 338 332 334 334
315 314 315 315 316 317 317 319 318 319 318 317 318 318 318 317 317 317 317 319 320 320 321 322 322 322 321 319 326 335 338 337 337 338 339 339 339 340 340 340 340 337 342 339 341 339 335 336 336
314 316 315 316 316 317 318 319 319 319 319 318 318 318 318 318 317 317 319 320 320 320 321 321 321 320 318 316 316 321 331 335 338 337 337 337 338 338 338 339 340 341 342 340 338 338 337 334 338
314 315 315 315 315 317 318 318 318 319 319 317 318 318 318 317 318 320 320 320 320 320 320 320 319 319 319 317 315 314 314 318 335 337 338 339 338 338 338 338 339 339 340 341 340 339 338 338 335
314 315 314 315 316 317 317 317 315 315 317 317 316 317 317 317 320 320 320 320 320 320 319 317 316 315 314 315 316 316 315 315 315 317 329 335 336 335 335 338 339 338 336 340 340 338 338 337 336
313 313 314 314 315 315 315 315 314 314 316 317 317 317 317 320 320 319 319 318 317 316 315 314 313 313 313 314 315 315 316 317 316 315 318 320 327 333 336 335 336 338 338 333 335 336 334 338 335
313 314 314 313 313 314 314 315 315 315 316 317 318 316 317 319 318 317 316 315 315 314 314 313 312 311 311 312 314 315 316 316 317 317 317 316 322 330 331 333 334 335 337 337 334 336 334 336 335
314 313 314 315 316 317 313 318 314 314 314 316 318 316 317 317 316 315 314 313 312 312 312 311 310 310 311 312 314 315 316 317 317 317 318 318 317 320 324 325 331 331 333 333 332 332 331 325 322
314 313 313 314 314 315 314 316 314 314 314 316 317 317 316 315 314 312 312 311 311 311 309 308 308 309 311 312 313 314 315 316 317 317 317 318 318 318 320 323 329 332 330 328 329 331 330 324 324
313 313 312 313 314 316 313 315 314 312 316 317 318 317 315 312 311 310 310 310 308 307 306 305 306 308 310 311 312 312 313 315 317 318 317 317 318 319 318 320 324 330 330 328 325 327 330 323 322
311 312 313 312 316 314 312 316 314 314 317 319 319 314 311 310 309 308 308 307 306 305 304 304 305 306 308 310 311 310 312 314 315 317 318 317 317 319 320 319 321 327 330 328 328 325 327 328 326
311 310 312 316 315 318 315 318 317 319 317 314 312 310 309 308 307 307 306 305 304 303 302 302 303 304 305 307 309 309 310 313 314 315 316 315 317 319 322 321 319 323 324 322 322 325 326 328 327
314 313 311 314 312 313 313 317 318 312 316 313 311 309 307 306 306 305 304 304 303 301 301 300 300 302 303 306 307 308 309 310 313 314 314 314 318 320 324 323 320 321 322 320 322 327 326 328 328
313 312 314 314 315 317 315 319 314 311 309 310 308 307 306 305 304 304 302 302 301 299 298 299 299 300 300 303 306 306 307 308 309 312 314 315 319 321 323 324 321 323 323 323 326 326 327 329 328
313 314 315 315 317 317 318 320 308 307 308 308 307 305 303 303 302 301 300 299 298 297 296 295 297 298 299 301 303 305 306 307 308 310 312 314 317 319 324 326 327 324 324 325 325 326 328 328 328
311 312 313 315 316 315 316 318 310 309 308 309 306 303 302 301 300 298 297 297 295 295 294 294 294 296 298 299 301 302 302 303 306 306 310 313 316 319 321 325 326 326 325 324 325 326 328 327 328

GFSSGP_850_thetae_114.txt.gz
Theta_e
311 316 319 319 316 313 317 317 318 317 319 321 321 320 319 321 325 327 336 334 334 339 342 342 339 339 336 335 335 334 333 334 333 331 335 339 339 340 336 332 332 330 327 326 326 326 326 327 329
312 319 320 319 315 316 316 318 320 318 320 321 321 321 322 325 332 333 333 330 330 333 344 344 339 340 337 336 336 336 336 335 334 330 333 338 339 340 339 335 334 331 329 327 328 328 328 328 327
318 318 319 312 312 316 318 319 319 319 320 321 321 322 324 325 328 330 328 326 325 327 337 345 343 340 339 337 336 337 337 335 334 331 333 337 338 341 340 337 335 331 330 330 329 329 330 331 330
319 318 317 315 317 316 318 318 320 318 320 321 321 321 323 325 325 325 325 325 323 322 332 344 347 345 340 337 336 337 337 335 333 331 333 337 338 340 341 339 337 333 331 331 331 331 331 330 330
317 318 314 315 315 316 317 319 321 320 319 320 321 320 323 325 324 324 325 323 322 321 327 343 347 347 344 339 337 337 337 335 333 331 332 336 338 339 341 340 338 336 332 330 332 333 332 332 331
314 315 314 316 316 316 317 320 321 321 322 321 320 321 321 325 324 324 323 322 322 322 322 329 346 347 345 341 339 338 338 336 333 331 332 334 338 339 340 340 339 336 334 332 332 334 332 332 332
313 310 313 315 316 316 319 321 319 319 321 322 323 321 321 321 322 321 321 321 322 323 326 325 329 340 345 340 339 339 339 337 334 332 332 333 336 338 339 340 339 337 335 334 332 333 333 332 332
314 310 313 313 315 315 317 319 319 319 318 322 322 320 321 322 322 322 321 321 320 323 327 329 330 334 340 344 340 340 340 337 334 333 332 333 334 337 338 339 338 337 335 334 334 333 332 333 332
315 310 310 313 315 315 317 317 318 319 318 319 321 321 322 322 321 321 321 320 320 321 326 335 333 340 338 342 343 340 340 338 335 333 333 334 334 335 337 338 338 336 335 335 334 333 332 332 332
312 309 312 312 314 315 316 317 318 318 318 318 318 318 319 320 321 321 321 320 319 322 328 333 336 340 339 338 342 341 340 339 336 334 334 334 333 333 335 335 336 335 334 334 334 334 333 333 332
313 313 314 315 316 317 317 317 318 317 316 317 317 317 317 317 320 320 320 320 319 319 323 332 337 342 342 341 339 341 341 339 337 335 334 334 333 333 333 333 334 333 333 334 334 334 334 333 331
315 315 316 317 318 317 315 316 316 316 316 317 318 318 317 317 317 319 319 319 318 318 319 326 343 341 344 343 342 341 339 339 338 336 335 334 334 333 332 332 332 332 332 332 333 333 333 333 332
315 316 317 317 317 317 317 316 316 316 317 317 317 317 317 317 317 317 317 317 317 318 320 335 338 343 344 342 342 342 342 341 341 338 337 336 335 335 334 333 333 332 332 331 332 332 333 333 333
316 316 315 315 315 316 316 316 316 316 317 318 318 318 318 317 317 317 317 317 318 322 334 339 337 330 336 341 341 342 343 343 344 345 342 338 337 336 336 336 334 333 332 330 331 331 332 332 334
315 314 314 314 315 314 316 315 315 317 318 318 319 319 317 317 317 317 317 317 319 321 322 322 322 322 323 334 339 339 339 341 341 342 342 342 341 340 338 338 337 335 334 333 333 333 336 334 334
313 313 314 313 314 315 315 316 317 318 317 318 319 319 318 316 317 317 317 320 322 323 323 322 322 322 321 321 323 333 338 338 338 339 340 340 340 340 341 341 339 337 336 337 339 336 337 338 335
312 313 313 314 314 314 315 316 315 316 317 316 316 317 318 317 316 317 320 321 321 321 321 321 321 320 320 319 318 318 324 332 335 337 337 337 337 338 338 338 338 336 334 337 339 340 339 340 337
312 313 311 312 311 314 314 315 315 316 314 314 314 315 316 315 317 320 320 320 320 320 320 320 319 318 317 314 314 314 314 315 322 329 335 336 337 336 336 337 338 336 336 337 337 340 340 339 338
313 313 313 313 311 313 312 314 314 313 313 313 313 315 316 317 318 318 319 319 319 319 319 318 315 313 313 313 313 313 313 314 314 315 319 327 333 335 336 336 337 338 337 336 336 335 337 339 338
314 314 313 312 312 312 311 313 313 313 313 313 313 314 319 318 316 317 317 318 317 315 314 313 312 312 312 312 312 312 313 313 314 315 314 314 318 325 330 331 334 335 336 336 335 334 334 333 333
313 313 312 312 313 312 312 313 312 312 313 313 313 313 318 319 317 314 315 315 314 313 312 312 311 311 311 311 312 313 313 314 315 316 316 316 316 315 319 324 328 328 333 334 335 334 333 332 331
313 313 313 314 313 314 312 315 312 311 311 312 312 316 316 314 312 313 312 312 311 310 310 309 309 310 310 311 312 313 314 314 314 315 316 317 317 317 317 316 321 325 325 329 332 333 330 330 333
314 312 313 313 313 312 313 313 312 311 311 311 316 315 313 311 310 308 309 310 307 306 305 305 306 306 307 309 310 311 312 313 314 314 316 317 318 318 318 318 317 318 322 324 331 331 332 330 332
312 312 312 312 312 310 311 312 310 311 315 316 316 312 310 308 307 307 306 306 305 304 304 304 305 306 307 308 309 310 311 311 313 314 316 318 318 319 318 319 319 318 318 320 326 331 331 330 328
310 311 314 309 312 312 312 313 312 317 315 317 312 308 307 306 304 304 304 303 303 303 304 304 305 306 306 307 308 309 309 309 311 313 315 316 317 319 320 320 321 321 319 318 323 328 330 330 329
311 311 312 313 313 313 312 312 315 310 305 307 308 307 305 304 303 302 302 301 300 301 302 303 303 305 305 306 306 307 308 309 309 310 312 314 315 317 319 320 320 322 323 319 320 325 328 330 328
312 310 310 313 311 309 310 313 312 306 305 302 301 301 302 301 301 300 300 300 300 300 299 299 302 303 304 304 305 306 307 308 308 309 309 312 315 316 317 319 320 322 322 322 319 324 324 327 325
311 310 313 311 313 315 313 314 311 310 306 304 302 300 300 299 299 299 298 298 298 297 298 298 298 299 299 301 302 303 305 305 307 307 308 309 313 315 316 317 319 321 323 324 320 322 321 321 322
313 313 314 312 312 314 315 313 309 308 308 305 302 300 300 298 297 296 296 296 295 295 295 296 298 299 300 300 301 302 302 302 304 306 307 308 311 313 315 315 317 319 321 327 321 323 322 320 322
312 313 314 311 311 312 311 315 309 308 309 305 303 301 298 298 297 296 295 295 294 293 294 295 296 298 298 300 299 298 299 301 302 303 305 306 308 310 311 314 316 320 321 326 326 323 323 323 323

GFSSGP_850_thetae_117.txt.gz
Theta_e
312 316 319 319 315 312 316 317 316 316 316 320 320 319 319 321 323 321 337 336 336 337 343 337 339 338 337 336 335 333 333 333 334 335 337 337 337 337 329 329 330 328 327 325 325 326 327 330 334
313 318 320 318 314 315 315 316 320 317 319 320 320 320 322 327 333 335 334 334 334 335 338 341 338 339 337 336 336 335 334 334 334 334 337 338 338 338 334 328 330 329 327 326 325 326 327 328 329
318 318 318 311 311 316 316 317 317 319 322 319 319 321 324 326 332 331 330 328 326 328 336 341 340 339 338 337 337 336 335 336 334 332 334 337 338 339 338 332 330 328 328 327 327 328 328 328 328
318 318 316 314 316 315 316 317 317 317 320 321 319 320 324 325 328 329 327 325 324 323 327 339 342 340 340 338 337 337 336 336 335 331 331 335 337 339 339 336 333 329 328 329 329 329 329 329 330
318 317 314 315 315 315 316 318 319 317 318 320 320 319 323 325 325 326 325 324 322 321 322 328 340 346 343 340 338 337 337 337 335 332 330 333 336 338 339 339 336 333 330 329 330 331 331 331 330
316 314 313 315 315 315 316 319 318 317 318 319 319 319 322 326 325 326 325 323 322 323 323 324 331 339 344 344 340 338 338 337 336 332 330 331 335 337 339 340 338 336 333 330 330 331 331 331 331
312 310 313 314 315 315 318 318 317 317 317 318 319 320 321 326 325 323 322 322 322 322 324 326 326 329 337 344 342 339 337 338 337 333 331 332 334 337 338 339 339 337 335 333 331 332 331 331 331
314 308 313 312 314 314 316 316 317 318 317 319 319 318 320 321 321 321 322 321 321 322 322 324 328 329 330 335 342 340 339 338 339 334 332 332 333 336 337 338 339 338 337 335 333 332 332 332 331
315 309 310 313 314 315 316 315 317 317 318 318 319 318 318 322 321 320 320 321 320 320 321 323 333 333 337 337 341 341 339 340 340 336 333 333 333 334 336 337 338 337 337 336 335 333 333 332 332
311 308 310 311 313 313 315 315 316 316 316 317 318 318 318 318 317 320 320 320 320 320 320 321 331 337 341 340 338 343 343 340 340 336 334 333 334 333 335 336 337 338 338 337 336 335 334 333 333
311 311 310 313 315 316 315 316 317 315 315 316 316 317 317 317 317 317 319 319 319 319 319 320 321 332 341 342 341 339 342 343 340 337 335 334 334 334 334 335 337 337 337 337 337 336 335 334 333
314 313 315 315 316 316 315 316 315 316 316 317 317 317 316 316 317 316 316 318 319 319 318 319 335 338 338 343 343 343 341 342 341 338 336 335 335 335 333 333 334 335 335 334 335 336 335 335 334
315 315 315 315 315 315 316 314 315 315 317 317 317 317 317 318 318 318 317 316 318 318 318 320 339 342 339 342 341 341 346 341 340 339 337 336 335 334 334 333 332 332 333 333 333 334 334 335 335
315 314 314 314 315 315 314 314 315 315 316 316 317 317 317 317 318 319 317 316 316 317 318 326 338 338 338 339 340 340 340 341 343 342 342 338 336 335 335 334 334 333 333 333 332 332 332 333 335
314 313 312 313 314 313 314 312 312 314 316 316 316 316 316 316 317 317 318 315 318 323 321 335 337 332 333 338 341 340 339 339 338 341 341 341 339 337 336 336 335 335 335 334 334 334 334 335 335
313 312 313 312 313 313 314 314 313 316 314 314 315 315 315 315 315 316 316 315 323 325 333 336 335 332 326 331 337 337 336 337 337 336 337 338 340 342 341 340 339 337 337 336 335 334 336 335 336
311 312 312 312 312 312 312 313 314 314 313 314 315 314 314 314 314 315 317 320 323 324 325 324 322 321 321 321 320 320 322 329 332 332 332 333 333 333 336 339 340 340 338 337 333 333 336 334 337
311 312 311 312 310 310 311 312 312 312 313 313 313 313 312 314 315 317 320 320 320 320 321 321 321 320 320 319 318 315 314 315 317 321 324 327 330 331 331 332 335 337 338 336 333 332 331 327 333
312 312 312 310 310 311 311 311 311 311 312 311 312 312 312 317 317 318 318 317 316 315 316 317 316 315 313 312 312 312 312 312 313 313 314 315 319 326 330 332 333 334 334 336 336 335 331 328 334
312 312 313 312 311 310 309 311 311 310 310 311 311 311 315 316 316 314 314 314 313 312 312 312 312 312 311 311 311 312 312 312 312 312 313 314 314 314 315 321 328 330 331 334 334 336 337 336 335
312 313 313 312 312 311 311 311 310 310 310 311 311 312 313 316 313 312 311 311 310 309 309 310 310 311 311 311 311 311 311 312 313 313 313 314 315 316 316 315 315 318 324 326 329 335 337 335 335
313 310 312 313 312 311 311 313 311 309 311 314 314 312 312 309 308 306 305 306 306 303 305 306 306 306 306 306 306 306 306 309 310 311 312 313 314 316 317 317 317 316 315 317 322 326 330 333 334
312 312 312 312 312 311 311 311 309 311 314 315 312 309 307 306 305 303 303 302 303 303 302 304 305 306 306 306 306 306 307 308 309 311 312 313 313 316 317 318 318 318 318 317 316 318 323 328 330
311 311 310 310 309 308 310 310 308 312 309 310 312 308 306 304 302 301 300 302 302 303 302 303 304 305 305 306 306 307 308 309 310 311 311 312 313 313 316 318 319 319 319 319 318 317 318 322 327
310 314 318 313 311 312 310 310 312 308 306 307 306 303 301 300 300 299 298 298 299 301 302 301 303 303 304 305 306 307 308 308 309 310 311 311 312 313 314 316 317 319 317 318 320 320 317 319 327
310 311 314 314 312 311 310 308 312 307 305 303 301 301 300 299 298 300 298 296 297 296 297 299 300 302 303 304 304 305 305 306 307 309 309 310 310 311 313 314 315 316 318 318 319 322 321 318 325
310 310 309 312 311 309 309 311 309 307 305 302 302 300 300 301 301 300 300 299 296 297 297 299 299 300 302 302 302 302 303 304 305 306 307 308 308 310 311 313 314 315 314 317 317 319 322 320 321
310 309 311 310 312 313 311 312 308 308 306 305 302 299 298 298 298 298 298 298 298 298 298 299 298 299 300 300 300 300 300 301 302 303 305 307 307 308 310 312 313 314 315 316 317 319 322 323 320
312 311 311 310 309 312 314 309 303 308 307 305 302 299 297 296 295 296 295 294 294 294 295 295 296 297 298 298 298 298 299 299 300 301 302 304 305 306 308 309 311 311 313 315 318 320 322 323 320
311 312 311 307 309 312 304 306 309 308 307 304 303 299 296 295 294 294 293 292 291 292 294 294 296 296 296 296 297 298 298 297 298 299 300 302 302 303 303 306 308 311 312 313 316 320 322 323 321

GFSSGP_850_thetae_120.txt.gz
Theta_e
313 317 319 319 315 311 315 317 315 316 317 319 318 317 317 321 329 325 337 335 335 340 336 337 336 336 337 336 335 334 334 332 333 332 331 332 331 329 322 327 327 327 326 324 325 327 329 330 332
314 318 319 317 314 316 314 314 318 317 319 320 319 320 322 327 330 333 334 332 331 333 340 336 338 337 337 336 336 335 335 335 334 335 335 334 335 334 326 325 327 327 326 325 325 326 327 327 329
318 318 318 310 311 316 316 317 316 317 319 318 319 320 323 325 330 334 332 329 327 328 333 338 338 339 338 337 337 336 335 335 334 334 336 337 337 336 333 326 326 327 326 325 326 326 327 327 327
318 318 315 314 316 315 316 315 316 316 319 318 317 319 324 326 329 331 329 327 325 325 329 336 340 339 339 338 337 337 336 336 335 334 334 336 337 338 337 331 327 326 327 327 327 327 327 327 328
318 316 312 314 315 314 314 316 318 316 317 317 318 317 322 324 327 326 327 327 326 326 331 336 340 340 340 340 338 337 336 336 336 335 332 335 337 338 338 337 332 328 326 327 328 328 329 329 329
316 314 313 315 315 315 313 317 317 316 317 318 318 318 320 327 327 327 326 324 323 324 325 330 335 341 343 342 340 338 337 337 337 335 332 333 336 337 338 338 336 333 329 328 328 329 330 330 330
312 310 313 314 314 314 316 317 316 315 315 317 318 318 320 323 328 326 323 322 322 322 323 324 324 326 332 340 343 341 339 338 338 337 333 332 335 336 337 339 339 336 333 330 329 330 330 331 331
315 308 311 311 313 314 315 316 316 316 316 317 318 316 317 320 321 321 320 321 321 321 322 322 322 324 327 329 336 342 341 339 339 339 335 333 334 336 336 338 339 338 336 333 331 330 331 331 331
313 308 311 313 313 314 314 313 316 317 316 317 317 317 317 317 318 318 319 320 320 320 321 321 323 330 330 330 333 340 341 340 339 339 337 334 335 336 336 336 338 339 338 336 333 332 331 331 332
310 308 310 310 311 313 313 314 316 316 316 316 317 318 318 318 316 316 316 318 319 319 320 320 323 329 333 337 338 337 340 341 339 339 339 335 334 336 337 336 336 338 338 338 336 334 333 332 333
309 309 309 312 313 315 314 315 316 315 314 317 317 317 318 317 317 317 317 317 316 318 319 319 322 326 334 340 338 338 336 339 344 340 339 336 335 336 338 337 336 336 337 338 338 336 335 334 333
313 312 313 314 315 314 313 315 314 315 316 316 316 315 316 317 318 317 318 318 317 316 318 321 321 323 333 340 341 340 338 338 339 343 340 338 336 336 337 338 337 336 337 338 338 337 336 334 334
314 314 315 315 314 314 314 313 313 314 315 314 315 315 315 315 316 316 316 317 318 317 316 320 321 332 340 335 340 341 339 338 339 341 340 338 336 336 336 337 338 337 338 338 339 338 337 335 334
314 314 313 314 314 314 312 312 313 313 314 314 313 312 312 313 313 314 314 315 316 318 317 316 318 325 330 337 336 340 336 336 342 339 339 338 337 337 336 336 336 336 336 337 337 336 336 336 335
313 312 311 312 312 312 312 310 311 313 314 313 312 312 312 312 312 313 313 313 315 316 320 318 321 325 328 333 333 337 338 338 340 340 339 338 338 338 338 337 337 336 335 334 334 334 334 335 336
312 310 312 310 310 312 312 311 311 313 312 312 312 312 313 312 312 312 313 313 316 320 330 334 338 338 335 336 336 337 338 338 337 338 337 337 337 337 336 339 337 337 336 336 335 335 334 334 334
309 310 311 311 310 310 310 311 312 313 312 311 312 312 312 312 312 313 316 318 321 325 327 327 327 327 329 332 334 334 334 334 333 332 332 332 333 333 334 334 337 339 339 339 338 335 335 336 333
310 312 310 310 309 308 310 311 310 311 311 311 311 311 311 311 314 315 317 318 318 318 319 320 320 320 319 320 320 320 319 318 317 318 322 324 325 327 330 329 330 331 332 334 336 336 335 335 332
310 310 310 308 309 310 311 311 309 310 311 310 309 310 310 314 313 314 314 314 314 314 314 314 315 315 314 314 313 313 313 312 312 312 313 313 314 315 317 322 326 327 328 329 332 333 334 334 332
311 312 311 310 310 310 309 309 309 308 310 311 310 313 313 311 311 310 309 309 310 309 309 310 310 311 310 311 311 311 311 311 311 311 312 312 313 313 314 314 314 315 318 324 327 331 334 334 336
311 312 312 312 310 309 309 310 308 309 312 312 308 308 308 307 306 306 305 303 303 304 305 305 306 308 308 309 310 310 310 311 311 311 311 312 312 313 313 314 315 315 314 314 316 323 326 331 331
313 310 311 311 311 310 310 312 311 310 310 312 308 306 305 303 302 301 302 301 301 301 302 303 304 305 304 305 306 307 306 306 306 306 306 309 311 312 313 315 316 317 316 316 316 315 317 323 329
311 310 311 311 311 310 311 310 308 308 309 311 307 304 301 300 300 299 299 299 299 299 301 302 303 306 304 304 304 306 306 306 307 307 308 308 310 312 313 313 316 318 318 318 318 317 317 316 320
310 311 309 308 307 312 310 310 307 309 308 307 303 301 300 300 300 301 301 300 299 299 301 302 302 303 304 305 304 305 306 307 307 308 309 309 310 311 312 313 314 316 317 318 317 317 318 318 316
310 312 313 311 311 313 309 309 309 307 306 305 303 300 302 302 303 303 302 303 302 301 301 302 302 302 302 303 303 303 304 306 306 307 308 309 310 311 312 312 313 313 315 316 316 315 316 318 319
308 311 316 315 311 309 308 309 311 306 304 303 302 300 300 300 300 301 302 303 303 304 301 301 302 302 302 302 301 299 302 303 305 306 307 307 307 308 310 310 310 311 312 312 313 315 315 316 318
311 314 311 313 310 311 308 309 307 307 304 303 303 301 300 298 298 297 297 298 297 299 299 299 300 299 298 298 298 298 299 301 303 304 304 304 305 306 306 305 307 310 311 312 312 313 316 317 317
309 308 311 311 315 313 309 309 308 307 306 302 302 300 298 297 296 297 296 296 296 295 296 296 298 298 296 297 297 297 298 299 300 301 302 302 303 303 303 304 305 306 309 309 310 312 316 317 319
310 311 310 310 311 311 312 308 302 307 305 302 301 300 297 296 295 294 294 293 294 294 294 295 295 296 295 294 294 294 296 296 297 297 297 298 299 299 300 301 301 303 304 307 307 309 313 317 319
311 312 311 313 310 309 303 306 307 306 305 304 303 299 296 295 293 292 292 292 292 292 293 294 294 295 295 294 295 296 295 295 296 296 296 296 295 297 298 299 300 301 302 305 306 307 311 314 317

GFSSGP_850_thetae_123.txt.gz
Theta_e
314 317 318 319 321 320 320 320 317 321 321 319 318 317 322 323 333 331 340 342 341 336 335 334 336 335 335 335 333 333 333 331 330 328 328 327 326 321 323 325 326 326 325 324 325 326 327 329 330
315 317 319 318 322 322 320 318 320 319 318 317 317 321 322 327 330 334 335 333 334 337 336 335 336 335 336 336 335 335 335 334 333 332 331 331 329 326 321 324 324 325 325 324 325 326 326 327 327
317 318 318 319 319 322 321 319 319 318 317 317 317 319 323 327 330 334 333 332 331 333 337 336 338 337 336 337 336 336 336 336 336 335 334 334 334 332 325 322 323 325 325 325 325 326 326 326 327
317 317 315 321 321 319 319 319 318 318 318 319 316 320 321 325 330 333 333 331 329 329 332 337 338 338 338 337 337 337 337 336 336 336 336 336 336 336 333 326 323 324 325 325 325 326 326 326 327
317 317 319 319 318 317 317 317 317 319 317 318 318 320 320 326 327 328 331 332 330 328 329 332 337 339 339 339 338 338 337 336 336 336 335 336 336 337 336 333 327 324 325 326 326 326 327 327 327
317 315 321 322 318 317 317 316 317 317 316 318 318 319 319 322 329 330 328 325 324 323 324 324 325 331 339 340 340 339 338 337 337 337 335 334 335 336 337 336 334 330 326 326 327 327 328 328 328
317 318 320 318 318 317 317 316 317 317 317 318 317 319 318 317 321 326 323 322 323 324 324 324 325 325 331 340 341 340 339 338 338 338 336 334 334 335 336 337 336 334 331 328 328 329 329 329 330
314 316 317 317 318 320 315 316 316 317 317 317 318 318 318 318 317 319 319 320 320 321 322 323 326 326 327 330 335 342 341 340 338 338 338 336 334 334 335 336 337 336 335 333 330 330 330 330 330
313 317 320 319 316 318 314 317 316 317 316 317 317 317 318 318 318 316 316 316 317 319 320 321 323 326 329 333 332 335 339 341 340 339 339 338 335 334 334 335 336 337 336 335 333 332 332 332 332
314 317 318 313 313 315 315 316 316 317 318 317 317 317 317 317 317 317 317 317 317 316 316 319 322 327 332 333 334 336 338 340 340 340 339 339 336 334 335 335 334 336 336 336 335 334 334 334 333
310 316 312 313 312 314 315 316 315 317 317 317 317 315 316 317 317 317 317 317 318 318 318 317 318 323 329 337 339 338 337 337 340 341 339 339 338 335 335 337 336 335 336 337 336 335 335 336 334
314 312 312 315 315 314 315 314 315 315 315 315 314 315 314 314 314 313 313 314 315 317 318 318 317 321 326 334 340 340 337 337 336 337 343 340 339 337 335 337 338 336 335 336 337 337 337 336 335
315 314 314 314 314 314 313 314 314 314 314 313 313 313 312 312 312 312 312 312 313 315 317 318 316 316 327 329 337 336 341 340 338 337 339 342 340 339 337 336 337 338 336 335 336 337 338 338 337
313 314 313 313 314 312 313 313 313 312 312 312 312 312 312 312 312 312 312 312 312 312 315 317 317 316 333 332 328 328 331 339 336 335 338 340 339 339 340 338 338 338 339 338 337 337 338 338 338
313 314 313 312 312 312 311 311 313 313 313 312 312 312 312 311 311 311 313 313 313 313 315 317 318 316 323 330 329 330 326 329 335 335 336 337 338 338 337 337 339 337 338 340 339 336 337 338 339
313 312 312 311 312 311 312 312 312 312 312 312 312 312 311 310 312 313 315 317 318 321 325 327 329 331 337 337 333 333 333 331 332 334 332 333 333 334 334 334 333 336 337 337 337 335 335 335 335
312 311 312 312 310 312 312 313 312 312 312 311 311 310 309 311 311 313 314 316 318 319 321 323 325 327 328 330 331 331 332 333 333 333 333 333 333 333 333 334 334 334 335 338 337 337 336 336 335
310 313 312 312 311 312 313 313 312 312 310 310 312 312 311 310 308 310 311 312 313 314 314 315 316 318 319 320 321 320 320 321 321 322 323 323 323 325 326 328 329 330 331 333 335 336 336 336 335
310 311 312 312 312 312 313 313 312 311 313 311 312 311 309 306 304 307 308 308 308 310 311 311 310 312 312 313 314 313 312 312 313 313 313 313 313 313 314 315 317 320 324 326 328 330 331 333 335
313 314 315 313 312 313 313 313 312 313 312 308 308 307 306 305 304 304 305 306 306 306 306 307 307 307 308 309 310 310 310 311 311 311 312 312 312 312 312 313 313 314 314 314 317 323 327 330 332
313 314 314 314 313 311 312 312 314 311 311 308 307 306 304 303 301 302 302 302 303 304 304 304 304 305 306 306 306 307 308 308 308 308 309 310 311 312 312 313 313 314 315 315 315 315 317 323 330
315 312 313 313 313 315 312 315 313 311 311 308 306 302 301 301 301 301 301 302 302 302 302 303 304 305 306 306 306 306 306 306 305 306 307 308 309 310 311 312 312 314 315 316 316 316 315 315 320
313 311 312 312 313 313 313 315 313 309 310 307 305 302 301 302 303 303 303 303 303 303 303 303 303 302 304 305 307 307 306 305 304 303 306 307 308 309 310 311 312 313 315 316 317 317 317 316 315
310 312 311 311 313 315 314 314 313 310 309 306 304 302 301 301 300 301 301 302 303 304 305 305 304 304 303 304 307 307 304 305 304 305 305 307 307 308 309 310 311 312 312 314 315 315 314 315 316
312 314 314 315 314 315 310 313 314 308 307 308 305 302 300 300 300 299 299 299 299 300 301 302 304 304 304 303 303 302 304 304 304 302 305 305 305 306 307 308 310 311 311 311 312 314 314 314 313
312 313 314 315 314 312 310 314 313 308 305 304 303 303 301 298 297 298 298 298 298 298 300 299 299 300 301 302 302 303 299 301 302 303 302 301 301 302 303 305 306 308 309 309 311 311 312 313 314
313 315 313 315 312 315 313 311 308 307 305 304 304 303 300 297 298 297 297 296 296 297 298 298 298 299 298 299 298 300 301 299 300 301 299 299 298 300 300 301 302 303 304 305 307 309 311 312 314
313 311 315 316 317 315 312 312 314 309 306 306 305 303 299 298 296 295 294 294 294 294 295 296 296 296 296 294 295 294 296 296 297 297 297 297 297 298 299 299 300 301 302 303 304 306 307 309 312
312 313 312 313 314 315 313 314 309 310 307 305 303 301 299 297 296 295 293 293 292 293 294 295 294 294 294 295 295 295 295 297 296 296 296 296 296 297 298 298 298 298 300 302 304 306 306 307 311
312 314 313 315 314 312 311 314 309 309 308 305 303 301 299 296 295 294 292 291 290 292 293 293 293 293 293 293 294 294 294 294 294 295 294 295 296 295 295 295 294 296 297 298 300 302 303 306 309

GFSSGP_850_thetae_126.txt.gz
Theta_e
315 317 318 320 326 325 325 325 324 325 325 323 322 322 327 327 333 335 341 343 341 338 339 337 335 337 335 333 331 331 330 330 330 328 324 325 323 322 324 326 326 325 324 325 326 326 329 330 330
316 316 319 322 326 326 325 325 325 324 322 322 320 322 325 331 333 339 340 340 342 339 337 333 336 337 336 335 333 332 332 331 330 329 327 327 326 322 323 324 325 326 325 324 325 326 327 328 328
317 318 322 325 326 326 326 324 324 322 321 322 322 323 327 329 332 336 341 338 338 340 336 335 337 337 336 336 335 334 334 334 333 331 330 330 330 327 322 324 324 325 325 325 325 325 326 327 327
318 320 320 326 327 324 325 324 322 323 322 322 321 324 325 327 332 337 338 335 334 335 338 337 338 338 337 337 337 336 336 335 335 335 334 333 332 331 328 324 324 325 326 325 325 325 326 326 327
318 321 326 326 325 324 323 322 321 323 322 322 322 324 324 326 336 339 343 335 330 328 332 336 338 339 338 338 337 337 336 336 336 336 335 335 335 334 332 329 326 325 325 325 325 325 326 327 327
323 322 327 327 326 323 323 321 321 322 322 322 322 323 321 321 322 327 327 326 323 324 328 332 335 338 339 339 339 339 339 338 337 336 336 335 335 336 335 333 330 328 326 326 325 326 326 327 327
325 326 328 327 326 324 323 320 321 322 322 321 320 323 321 320 320 321 321 326 328 325 326 326 327 331 337 340 340 340 340 340 338 337 337 336 335 335 335 335 334 332 329 327 326 326 327 328 328
321 325 326 326 326 326 320 320 320 321 323 320 320 322 322 320 319 319 319 319 322 326 324 328 328 329 334 338 341 341 340 340 339 338 338 337 335 334 334 335 335 334 333 331 329 328 328 329 329
317 325 324 325 324 323 319 321 320 320 320 321 320 320 319 319 319 320 320 320 321 317 317 319 324 328 329 331 334 337 340 342 340 339 339 339 337 335 334 334 334 335 334 333 332 330 330 330 331
321 324 323 320 320 321 320 319 320 319 320 320 320 319 318 318 319 320 320 320 320 320 319 317 317 318 324 331 332 333 335 335 338 341 340 339 339 341 342 340 334 335 335 334 333 333 333 333 337
319 322 320 318 317 318 319 319 318 319 319 318 318 316 317 317 317 317 317 317 317 318 318 319 318 317 318 330 337 335 342 343 342 341 342 341 339 339 338 339 339 334 335 335 335 334 335 335 340
318 317 316 317 317 318 319 318 318 316 316 315 316 315 315 315 316 316 316 317 317 317 318 317 318 319 325 339 342 344 344 341 338 337 337 341 341 340 340 338 337 340 342 341 341 340 340 340 340
317 317 317 317 317 317 317 316 316 315 315 315 315 315 315 315 315 316 317 318 317 316 313 315 317 318 326 339 343 342 342 339 338 337 336 337 340 342 341 339 337 340 339 339 339 339 340 340 339
317 317 317 316 315 315 315 315 314 315 315 315 315 314 314 315 315 316 316 316 315 315 315 315 316 318 317 340 344 343 342 341 339 339 336 331 337 341 341 340 339 338 339 341 339 336 337 339 339
315 316 316 315 314 315 314 315 316 315 315 314 314 314 314 314 314 313 313 314 314 314 316 318 319 320 321 338 341 344 339 335 333 338 335 332 332 334 338 339 339 338 337 338 339 340 338 338 340
316 315 315 315 314 314 314 314 315 315 314 314 314 314 314 312 311 311 311 311 313 317 319 321 322 325 327 326 335 338 338 337 337 337 335 334 333 336 336 334 334 334 333 335 337 337 337 339 341
316 314 315 314 313 314 314 314 314 314 314 314 315 315 314 311 309 308 308 308 309 315 318 319 321 323 325 327 328 328 330 332 333 333 333 335 335 334 334 334 335 334 334 334 333 335 337 337 337
314 315 315 314 315 314 314 315 315 314 314 316 316 315 313 310 308 306 306 306 306 309 312 314 316 317 319 321 321 320 319 321 323 323 325 325 324 325 324 324 325 327 327 329 331 335 335 338 338
314 313 314 314 315 315 315 315 316 315 316 316 315 313 311 309 307 305 304 304 305 307 309 310 310 312 315 314 313 314 314 312 312 312 313 313 313 313 314 314 315 316 318 321 324 326 328 331 334
314 315 315 314 315 315 315 316 316 316 314 313 312 310 309 308 307 305 304 303 303 303 305 306 307 307 308 309 310 309 309 310 310 310 309 310 311 312 312 312 313 313 313 314 314 317 321 326 329
315 315 314 314 315 315 315 316 317 316 312 311 309 308 307 306 306 305 304 303 303 303 303 303 305 305 306 306 306 305 306 305 306 307 307 308 308 309 310 311 312 313 313 314 314 315 315 319 323
313 314 314 314 315 316 315 314 317 316 315 313 310 308 307 306 304 303 304 303 302 302 303 303 304 304 304 305 306 307 304 304 305 304 306 306 307 308 308 309 310 311 312 313 314 315 315 315 315
313 314 314 314 316 316 315 316 316 316 316 314 311 307 306 305 303 302 301 299 298 302 303 303 301 303 304 304 304 304 306 306 305 303 305 306 306 306 308 308 309 309 311 312 312 313 314 315 315
314 314 315 316 315 316 314 315 315 316 315 314 311 308 306 304 302 300 299 298 298 298 298 300 300 302 303 303 304 303 302 303 306 307 303 305 305 304 305 306 306 308 309 310 310 310 312 314 314
315 315 316 315 317 314 314 315 315 315 313 313 311 308 305 303 301 299 299 299 299 297 297 297 297 297 299 301 302 302 302 303 303 305 308 306 306 303 303 302 305 305 307 308 307 309 310 312 313
315 315 315 313 313 314 313 315 317 314 311 310 309 307 305 301 299 300 298 297 296 296 296 296 295 296 299 299 300 298 300 298 299 300 302 303 304 300 301 302 300 301 302 303 304 305 307 309 310
315 316 314 315 314 317 314 314 313 311 309 309 308 307 303 301 300 298 297 296 294 295 295 296 296 295 297 297 298 299 298 297 296 295 297 297 300 299 298 298 299 300 301 302 303 304 305 306 307
315 315 317 317 316 316 314 314 317 313 310 309 309 306 303 301 299 298 297 296 294 293 293 295 295 296 296 295 296 295 296 296 295 294 296 296 296 297 297 296 297 298 299 301 303 303 304 305 306
315 317 316 316 316 316 315 316 319 319 314 311 309 307 303 302 301 299 297 295 294 293 291 292 294 294 294 295 295 294 294 295 294 293 294 294 293 294 294 294 295 296 297 299 299 300 302 301 301
315 314 315 318 317 318 318 317 313 313 314 312 309 307 303 302 299 298 296 295 293 292 291 290 293 293 294 294 294 294 294 294 290 292 292 293 291 291 294 295 295 295 296 296 296 296 296 298 299

GFSSGP_850_thetae_129.txt.gz
Theta_e
320 321 322 323 328 328 329 327 327 327 327 325 324 326 327 333 338 343 346 349 349 349 348 339 339 337 336 332 331 333 330 329 331 333 330 322 322 323 327 328 326 325 326 327 328 328 332 334 334
319 321 323 325 327 330 329 327 327 327 325 324 323 325 328 333 337 339 344 347 350 350 345 339 336 337 337 334 332 331 330 330 329 329 328 325 325 322 325 327 327 326 325 326 327 328 331 332 331
320 321 324 328 329 329 330 327 327 326 324 324 324 326 330 331 335 337 346 345 346 347 347 342 336 338 337 336 334 333 332 331 330 330 328 327 328 325 324 325 325 327 326 325 326 328 331 331 330
321 324 324 326 328 328 328 327 326 326 325 325 323 327 329 334 338 342 343 341 343 346 349 340 338 338 338 338 337 335 334 334 333 332 331 330 330 329 326 324 325 325 325 325 325 327 328 329 329
322 324 328 328 328 327 326 325 325 326 325 325 324 326 327 325 331 335 340 340 342 345 348 335 338 339 338 338 339 338 337 336 335 335 334 333 333 332 330 327 325 324 324 325 325 325 327 328 328
325 326 329 329 329 327 326 324 324 325 324 324 325 325 325 323 324 326 328 334 339 344 347 348 337 339 339 339 339 339 339 338 337 336 335 335 335 335 333 331 329 327 325 325 325 325 326 327 327
326 329 329 329 328 327 326 324 325 325 325 324 323 326 324 324 322 323 324 324 330 339 345 349 350 337 339 340 340 340 340 340 339 338 337 335 335 335 335 334 332 330 329 327 326 326 326 327 327
322 327 328 326 328 329 325 324 323 324 325 323 323 325 326 322 322 322 323 323 323 324 329 339 345 343 347 337 337 337 339 340 340 340 339 337 336 335 334 335 335 333 332 331 328 327 326 327 328
322 326 326 326 324 327 323 324 324 324 324 324 323 323 322 321 322 323 323 323 323 323 323 320 324 338 344 347 346 336 336 339 341 340 339 339 338 337 336 334 334 334 334 334 332 330 328 328 329
322 325 326 325 324 323 323 323 322 322 323 322 323 322 320 320 321 321 322 322 322 322 322 322 323 320 338 341 343 345 342 337 337 340 341 341 340 342 343 343 337 334 334 334 334 333 332 330 331
323 324 324 322 321 321 321 321 320 320 320 320 319 319 318 318 318 319 320 320 321 322 323 327 329 331 332 338 340 342 343 344 345 345 344 344 345 343 343 344 342 340 335 334 335 334 334 332 337
321 320 319 319 319 319 320 320 320 319 318 317 317 317 317 317 318 318 319 320 320 321 323 324 320 318 324 335 340 340 340 341 341 343 341 342 341 342 340 341 342 342 343 340 339 339 339 338 340
318 318 319 319 319 318 318 318 319 318 317 317 316 316 317 317 318 318 319 319 319 319 320 315 314 316 318 325 337 340 343 343 342 342 341 343 341 339 340 341 340 341 341 341 341 340 339 339 340
321 320 320 319 318 317 317 317 316 316 316 316 317 317 317 318 317 317 317 317 317 316 316 313 315 316 318 321 335 341 340 341 342 341 341 341 340 338 336 340 338 339 340 340 339 339 339 339 339
318 318 318 318 318 318 316 317 317 317 317 316 317 316 317 316 315 315 314 314 314 313 313 314 319 321 322 324 332 336 338 338 339 343 342 340 336 332 334 337 339 339 338 339 339 339 339 339 338
317 319 319 319 317 317 315 317 319 317 317 317 317 317 317 315 313 313 313 313 313 312 315 316 318 320 322 324 326 330 334 333 334 335 336 338 336 333 333 337 338 335 337 339 338 338 336 337 338
319 319 319 318 317 317 316 317 318 316 316 316 317 318 317 314 313 312 312 312 312 312 314 316 317 317 318 321 323 326 326 325 327 328 331 332 333 334 333 333 332 332 333 333 333 336 335 335 335
319 320 318 318 318 317 317 317 317 316 316 317 318 318 316 314 311 310 310 310 310 310 309 312 315 316 315 314 315 318 321 320 320 319 321 323 325 327 328 323 323 323 323 324 327 328 329 331 334
318 317 316 317 317 317 318 318 317 317 317 318 319 318 316 314 311 310 309 308 308 308 307 307 309 310 310 311 311 310 312 314 313 314 313 313 315 314 315 317 317 317 316 317 319 321 323 325 329
318 317 317 317 317 317 317 317 317 319 319 318 317 316 314 314 312 310 309 309 308 307 307 306 306 306 306 306 306 306 308 309 309 309 309 309 309 310 311 311 312 312 312 313 313 313 314 317 322
317 317 317 317 317 317 317 317 319 319 318 316 315 314 313 312 311 310 309 308 307 306 306 305 305 304 304 306 305 306 307 307 306 306 306 306 306 306 307 308 309 310 310 311 312 313 313 314 314
317 316 316 316 315 317 318 320 318 321 319 317 315 314 313 311 309 309 307 305 304 304 303 303 303 302 302 304 304 305 305 306 306 305 305 304 304 304 306 307 308 308 309 309 310 311 311 312 314
316 316 315 315 316 317 317 318 318 319 320 319 317 315 312 310 308 306 304 303 303 303 303 302 302 302 300 303 304 303 302 301 302 302 303 303 302 304 305 306 307 307 308 309 309 310 310 310 311
315 315 315 316 317 318 317 317 317 319 319 318 317 314 312 308 306 304 303 303 303 302 301 302 302 301 300 299 298 300 300 301 302 302 302 300 299 299 304 305 306 306 306 306 307 308 307 308 309
316 316 318 319 321 321 318 317 317 318 317 316 316 314 312 308 306 305 304 303 302 301 300 299 300 299 298 297 297 297 296 296 296 298 299 300 298 299 298 303 304 305 305 303 304 304 306 305 306
316 316 317 315 316 316 317 318 318 318 316 315 314 314 311 307 305 305 303 302 301 300 298 297 298 298 296 296 295 296 296 296 293 296 297 298 298 298 298 300 301 303 301 301 301 303 302 303 304
316 317 316 316 316 317 316 316 318 317 316 314 313 312 310 306 305 303 302 301 300 299 296 295 295 296 294 295 295 295 294 294 293 293 294 292 297 295 296 297 298 301 300 300 301 301 301 302 302
315 315 317 317 316 316 315 316 319 319 317 315 314 312 308 306 304 303 303 300 299 296 295 295 295 294 294 295 295 294 294 293 293 292 292 292 295 294 294 296 296 295 297 298 299 299 299 299 300
314 316 316 316 316 316 316 318 319 320 317 316 314 313 308 305 304 303 302 300 298 296 295 293 294 293 294 294 295 295 294 293 294 294 295 293 294 295 294 294 294 293 294 294 295 295 296 297 297
314 315 315 321 317 319 319 321 317 317 316 315 314 312 309 306 305 304 302 300 298 296 294 293 293 293 292 293 293 293 292 291 292 292 294 293 294 294 293 290 289 289 292 293 292 292 293 294 295

GFSSGP_850_thetae_132.txt.gz
Theta_e
321 322 323 324 326 328 329 329 328 328 327 326 325 326 335 339 344 351 348 350 349 351 342 339 338 337 334 331 330 331 330 329 332 334 330 323 323 324 326 325 324 325 326 327 330 331 331 333 334
322 322 323 325 328 328 329 328 327 327 326 325 324 327 334 336 339 346 346 349 350 353 341 338 338 337 336 333 331 332 331 329 330 330 329 324 324 322 325 327 326 325 325 326 328 329 330 333 333
322 322 323 327 328 329 330 328 327 326 325 325 325 329 333 334 341 345 343 344 346 347 348 341 336 336 337 335 333 332 332 331 330 330 330 326 327 324 324 326 327 327 325 325 327 327 329 331 331
323 324 324 325 327 329 329 328 327 326 325 325 326 331 330 338 341 343 342 343 344 348 349 342 336 338 338 337 335 334 333 333 332 332 331 330 328 328 326 324 325 326 327 326 326 327 328 330 330
324 324 327 328 328 328 327 326 326 326 326 326 325 329 326 326 329 334 338 341 344 347 350 340 339 339 338 338 338 337 336 335 334 334 334 333 332 331 330 328 325 325 326 327 326 326 327 328 329
324 326 328 329 328 328 327 326 325 325 325 325 326 327 325 324 324 326 328 335 342 346 350 342 340 339 339 339 338 338 338 338 337 336 335 335 334 334 333 332 330 327 325 325 326 326 326 327 328
324 328 329 329 329 328 327 326 325 326 325 325 324 326 325 324 323 324 324 325 326 334 341 348 344 333 337 339 338 339 339 339 339 338 337 336 335 335 335 335 334 331 329 327 326 325 325 326 327
322 325 327 328 325 328 326 325 325 325 325 325 324 326 324 323 323 324 324 324 325 324 323 323 339 345 346 337 338 339 340 340 340 340 340 338 337 336 335 335 335 335 333 331 329 328 326 326 326
321 323 326 327 326 327 324 325 325 325 325 325 325 324 322 322 323 324 324 324 324 323 323 324 323 330 340 344 344 345 342 339 340 340 340 340 339 338 337 335 335 335 335 334 332 331 329 328 327
321 323 325 325 325 325 323 324 323 323 325 324 324 323 321 321 321 322 322 322 322 323 325 325 324 322 321 336 341 341 342 336 335 336 339 340 340 339 339 340 340 340 335 334 334 334 333 331 329
322 323 323 323 321 322 322 322 321 321 320 321 321 321 320 319 319 320 321 322 322 323 324 325 323 321 323 328 338 341 345 342 343 341 338 335 341 341 343 342 342 341 342 341 335 334 334 334 333
322 322 321 321 321 320 320 320 320 320 320 319 318 319 317 319 320 320 320 321 320 321 321 318 315 316 317 322 336 340 340 340 345 345 339 339 339 341 339 340 340 340 340 340 340 337 334 335 335
321 320 319 319 319 320 319 319 319 319 318 317 317 317 318 319 319 319 319 319 318 317 315 313 313 312 314 317 324 336 341 341 340 340 340 340 337 338 339 339 338 336 336 339 339 341 339 339 338
319 321 320 320 320 320 319 318 318 318 318 317 317 318 319 319 317 317 316 316 315 315 313 314 315 316 317 319 320 330 338 340 341 339 337 338 336 335 334 335 334 338 335 337 337 338 338 338 338
319 320 320 319 319 318 318 318 317 317 317 318 318 318 318 317 316 315 315 315 314 313 313 315 317 319 320 322 324 327 332 336 338 338 336 337 336 339 338 335 335 333 338 337 335 336 337 337 337
319 318 318 319 319 318 316 317 319 318 318 318 318 318 319 316 315 314 314 314 314 313 312 313 316 316 318 320 322 324 326 328 331 333 334 333 333 332 335 334 332 331 334 332 334 334 334 335 336
319 318 319 319 319 319 318 318 319 318 318 318 317 318 319 316 314 313 313 313 312 311 310 311 314 314 314 315 316 319 321 324 324 326 329 328 329 330 329 329 326 328 329 329 329 330 331 331 330
318 319 320 319 319 318 317 317 318 318 317 317 318 320 318 316 313 312 311 310 310 310 309 309 310 311 311 311 312 312 313 315 317 317 318 319 320 323 327 327 328 328 326 325 326 326 326 325 325
318 319 319 319 319 318 318 317 318 318 317 318 319 319 318 316 313 312 311 310 310 309 308 308 307 307 308 308 309 308 310 310 311 310 312 312 313 314 313 314 314 315 316 315 313 313 313 314 316
318 319 319 318 317 318 318 318 318 318 318 318 319 319 317 315 314 312 311 310 309 308 307 307 306 306 307 307 307 308 308 309 308 308 307 306 307 307 307 308 308 309 310 311 311 311 312 312 313
319 319 319 317 318 318 318 318 318 318 318 319 318 318 316 315 314 312 310 308 306 306 305 305 305 305 306 307 307 307 307 308 308 307 306 305 305 304 305 305 306 306 307 308 308 308 309 309 309
318 318 317 317 318 317 317 319 319 320 320 319 317 316 315 313 311 311 308 306 306 305 305 304 304 303 302 304 306 305 305 305 304 305 305 304 304 304 306 306 305 305 306 307 307 307 308 308 309
317 317 317 317 317 317 316 317 317 318 321 319 317 316 315 313 311 308 306 306 305 304 304 304 304 302 301 300 301 303 303 303 302 304 304 304 303 304 306 307 307 307 306 305 306 306 307 307 307
316 317 316 316 316 319 316 317 317 318 321 320 318 317 315 311 309 307 306 306 304 303 302 301 302 301 299 298 298 300 300 299 298 300 300 302 302 302 302 304 304 305 305 304 304 305 305 305 304
316 317 318 318 318 319 318 319 319 319 321 320 319 316 314 310 308 307 307 305 303 302 300 300 300 299 298 297 298 298 298 297 296 297 298 297 299 297 297 300 301 302 302 303 302 303 303 303 302
317 317 318 317 320 319 318 320 318 319 317 318 317 315 313 310 308 307 306 305 302 301 299 299 299 298 298 297 297 297 297 296 294 294 295 294 295 293 293 295 296 297 298 299 300 299 299 300 301
317 317 317 318 318 319 316 317 319 319 318 316 316 315 312 309 307 306 305 303 302 300 298 298 298 297 297 297 296 295 294 295 294 293 293 293 292 292 293 293 293 295 296 297 297 296 298 300 302
315 317 319 320 317 317 316 316 318 320 319 317 316 315 312 309 307 306 305 303 301 298 298 297 298 297 296 297 297 295 295 294 294 294 294 293 293 294 294 293 292 294 295 296 296 295 297 297 297
314 315 316 318 317 315 316 321 321 321 319 317 316 315 312 308 307 306 305 302 300 298 297 297 296 296 296 296 295 295 294 293 293 294 294 294 294 293 292 291 291 294 294 294 292 291 291 292 293
314 314 316 319 319 319 320 320 320 320 318 316 315 315 313 309 307 306 305 302 300 298 296 296 295 295 294 294 294 293 293 292 291 291 291 291 291 292 290 290 289 292 295 293 290 290 290 290 290

GFSSGP_850_thetae_135.txt.gz
Theta_e
323 322 323 323 319 319 322 324 323 322 323 323 331 337 339 347 348 350 349 349 350 348 339 338 336 334 331 330 331 331 329 330 331 331 327 321 320 321 323 324 324 325 326 328 331 330 330 331 332
324 322 323 323 321 323 321 323 321 322 324 324 331 334 340 344 344 345 349 350 349 342 340 338 337 336 333 331 332 332 331 331 332 332 328 323 323 320 322 324 325 324 325 326 328 329 329 331 331
322 323 322 319 320 321 322 323 322 324 325 325 331 335 336 343 342 343 345 347 348 346 343 339 337 336 336 333 332 332 332 331 331 332 331 327 325 324 322 324 326 326 325 326 326 327 327 330 331
322 323 323 319 320 321 323 323 323 323 325 329 329 326 333 341 339 342 343 345 348 349 345 338 335 337 337 336 334 333 332 332 331 331 331 331 328 328 326 325 326 326 326 326 326 326 326 328 330
322 323 320 321 322 325 322 324 325 324 325 326 326 325 324 328 332 336 340 345 347 348 344 338 338 338 338 337 337 336 335 335 334 333 333 332 331 330 329 329 327 326 325 327 327 326 326 327 328
322 323 320 322 323 323 322 325 325 325 325 325 324 324 323 324 325 330 332 333 340 347 344 336 337 338 338 338 338 338 338 337 337 336 335 334 334 333 333 332 331 329 327 326 326 327 326 326 326
319 317 321 322 325 324 325 325 324 323 324 324 325 324 323 323 324 324 325 324 327 335 340 341 342 342 344 341 339 338 338 338 339 338 337 336 335 335 335 335 334 333 332 329 326 325 326 325 325
319 317 320 320 323 324 324 324 325 325 324 324 324 323 322 323 324 325 325 324 323 325 322 335 339 338 339 338 341 341 340 338 339 339 339 339 338 337 336 335 335 335 335 333 331 329 326 326 325
318 316 318 321 321 323 324 322 325 324 324 324 322 322 322 322 324 322 322 322 323 323 323 324 324 337 341 342 339 347 345 343 334 333 336 338 339 339 338 337 336 335 335 335 335 333 331 330 327
318 315 320 321 320 322 322 322 322 322 324 323 321 320 320 320 322 321 322 322 323 323 323 324 323 322 322 338 340 342 342 342 348 344 339 334 333 338 339 339 338 338 339 338 335 335 334 332 332
319 316 318 321 321 320 319 321 320 320 319 321 320 319 319 319 320 320 320 321 321 322 322 323 322 321 320 324 336 341 345 345 342 340 344 343 342 339 338 341 343 343 342 341 340 339 335 334 334
320 320 321 320 320 319 318 319 319 320 318 318 318 318 319 319 320 320 319 319 319 318 316 314 312 312 313 316 321 336 340 341 343 343 342 341 338 339 340 339 337 337 339 339 337 339 339 338 336
319 320 321 320 320 319 319 318 318 318 318 318 317 318 319 319 319 319 318 317 316 313 312 312 312 312 312 313 316 320 335 338 340 341 341 340 339 335 334 335 336 334 335 335 335 336 337 338 337
318 319 320 319 319 319 318 317 318 317 317 317 318 319 318 318 317 316 314 314 314 313 312 314 314 315 316 315 317 320 325 329 333 336 338 338 338 337 336 336 334 334 332 336 336 336 337 337 337
319 318 316 318 319 318 318 316 315 317 317 317 318 318 317 316 315 314 314 314 313 313 313 314 316 316 317 318 320 321 323 327 328 329 331 332 334 335 335 335 335 334 333 332 331 333 334 335 336
318 317 316 315 316 316 316 314 314 317 317 317 317 317 316 315 314 313 313 313 312 312 311 312 314 315 315 317 318 319 321 322 324 324 327 328 330 331 332 332 331 329 330 328 327 329 328 328 331
315 314 314 315 316 314 313 315 315 317 318 318 317 316 316 314 314 312 312 312 311 310 309 310 310 311 311 312 314 315 315 316 318 320 320 322 323 326 328 328 329 328 327 328 327 327 327 327 328
315 316 313 313 315 314 314 314 315 318 318 318 316 316 314 313 313 312 311 310 310 309 309 309 309 309 310 310 309 311 310 311 311 311 312 314 314 315 318 320 324 324 327 325 325 324 324 325 324
316 315 314 315 316 314 315 313 314 316 316 316 318 316 314 313 312 312 311 310 310 309 309 309 309 309 308 309 309 309 309 309 308 309 309 308 308 310 309 310 309 311 313 311 312 312 312 311 311
316 317 316 316 316 315 313 313 313 314 316 317 318 316 315 313 312 311 311 310 309 308 307 307 307 308 308 308 308 308 308 308 307 307 307 307 306 306 305 306 306 307 307 307 307 307 308 308 308
316 317 316 317 316 314 315 314 314 315 316 317 318 317 316 314 312 311 310 310 308 306 305 305 305 305 306 307 307 307 307 308 308 307 306 306 306 308 308 307 307 306 305 306 306 306 306 307 307
315 317 318 317 315 314 315 314 314 315 315 316 316 316 315 313 312 311 310 308 306 305 304 304 303 302 303 304 305 305 306 306 305 305 305 304 304 305 306 306 307 308 308 308 306 306 305 306 306
316 317 316 316 315 316 316 313 312 315 318 316 314 314 314 313 311 310 309 306 305 305 304 303 303 301 300 300 301 302 303 302 302 302 302 302 303 302 303 303 303 304 305 305 305 305 304 304 304
316 316 316 315 313 313 314 313 313 313 315 317 315 314 313 311 310 309 307 306 305 304 302 301 301 300 300 300 300 301 301 301 301 301 301 301 300 300 301 301 301 300 301 302 303 303 302 301 301
314 315 314 314 313 314 314 315 314 314 317 317 315 314 313 312 310 308 306 305 304 303 300 300 300 300 299 300 300 300 301 301 301 300 299 298 297 296 296 296 296 297 296 299 299 298 298 299 299
315 316 316 318 316 315 315 316 316 317 318 317 316 313 312 310 309 307 306 305 303 303 300 299 299 299 300 300 299 299 299 299 298 298 297 295 294 293 293 293 293 294 294 294 295 295 297 299 299
316 316 314 316 316 313 314 315 317 317 317 316 314 311 310 309 308 307 305 304 302 302 299 299 299 299 299 299 298 299 299 298 297 295 295 293 293 293 293 293 293 293 293 293 294 293 294 296 296
314 315 317 316 318 316 315 314 314 316 315 316 313 310 309 309 308 306 305 303 301 301 299 298 299 299 299 298 298 297 296 296 296 295 293 293 294 294 293 293 293 292 292 292 291 291 291 292 292
313 314 316 316 315 315 314 312 319 316 316 315 313 311 309 308 307 306 304 302 301 300 298 298 298 298 297 297 296 295 293 293 293 293 292 292 291 291 291 294 292 293 292 291 290 290 290 291 290
313 314 314 317 316 313 312 313 318 316 316 315 314 312 310 309 307 306 304 302 301 299 298 297 297 296 295 294 293 293 292 292 291 290 290 290 289 290 290 291 291 290 291 291 288 290 290 290 289

GFSSGP_850_thetae_138.txt.gz
Theta_e
323 322 322 323 319 316 321 323 321 321 324 340 344 345 345 346 346 350 349 348 342 337 337 336 333 330 331 330 329 328 328 331 331 330 323 321 320 322 323 323 324 325 327 329 330 330 331 331 332
322 322 322 322 318 320 319 321 321 321 331 337 341 343 343 344 347 349 351 346 343 342 338 337 335 332 330 331 330 330 329 329 329 329 326 323 322 321 323 324 324 324 325 326 328 329 329 331 331
321 322 322 316 315 320 320 321 321 323 330 333 334 336 340 342 345 350 350 348 346 342 340 338 337 335 332 331 332 331 330 329 329 329 328 325 325 324 322 322 324 324 324 325 325 326 327 328 330
321 322 321 317 320 319 321 320 321 325 330 332 330 326 337 342 347 349 350 349 348 343 339 337 336 337 336 334 332 332 331 331 330 330 330 329 327 327 327 324 323 323 324 325 325 325 326 326 329
320 321 317 319 320 320 321 322 323 323 324 325 329 323 329 336 340 345 346 346 344 340 340 340 339 338 338 337 336 334 334 333 333 332 332 332 331 329 329 329 329 325 323 323 324 325 325 326 327
320 319 318 320 321 321 320 323 324 324 323 324 323 323 323 334 330 338 337 338 340 338 340 344 344 340 339 338 338 338 337 336 336 335 334 334 333 333 332 331 331 331 329 327 325 324 324 324 325
317 314 318 320 320 323 323 324 322 323 323 323 323 322 322 331 337 335 331 334 330 332 339 340 339 342 344 343 341 341 340 338 338 338 337 336 335 335 335 334 334 334 333 332 330 328 326 325 325
317 314 318 319 321 323 323 323 324 324 323 323 323 321 321 325 325 324 325 325 327 331 333 335 337 338 341 340 341 345 346 344 343 339 338 338 338 338 337 336 335 335 335 335 334 333 331 329 327
318 313 315 320 320 322 323 322 324 324 323 323 323 322 322 325 325 324 323 325 325 325 324 324 326 333 338 340 337 340 344 342 339 337 338 339 338 339 339 338 337 337 336 335 335 335 335 334 333
315 312 316 318 319 319 319 322 322 321 321 321 321 321 321 323 324 322 322 322 322 322 322 322 322 322 322 325 338 339 340 337 338 338 341 339 338 339 339 339 339 338 338 338 337 338 336 335 335
316 314 314 320 320 318 317 319 319 318 319 320 319 320 321 321 321 321 321 321 321 320 321 321 319 318 317 318 323 334 340 341 340 340 341 342 342 342 344 341 344 343 342 339 341 341 340 339 338
319 318 318 320 319 319 317 318 318 318 319 320 319 319 319 319 320 319 320 319 318 316 313 312 311 311 312 313 315 318 330 338 340 341 342 340 339 339 341 341 342 340 339 339 337 338 339 337 337
317 317 319 319 319 319 318 317 317 317 318 318 319 319 319 319 319 319 318 317 315 313 311 311 311 312 313 314 315 316 318 327 334 337 339 341 340 340 339 335 334 334 337 336 336 336 335 336 336
316 317 318 317 318 319 317 317 317 316 316 318 318 318 318 318 317 316 315 315 314 312 311 312 313 314 315 315 317 319 320 322 324 329 335 337 337 338 337 337 336 335 333 332 333 334 335 336 336
317 316 315 316 318 317 317 315 314 317 316 318 318 318 317 316 315 315 314 314 313 312 311 312 314 314 315 317 317 318 320 321 323 325 326 329 331 333 334 334 334 333 331 331 331 332 329 330 331
315 316 316 315 315 317 316 315 313 317 316 316 316 316 316 315 314 314 314 314 312 311 311 312 313 313 314 314 315 316 316 317 318 320 321 323 325 327 329 330 330 330 330 329 330 329 329 327 327
313 315 314 314 314 314 313 315 313 316 315 315 315 315 315 314 313 313 313 312 311 311 310 310 311 311 311 312 312 312 312 312 313 313 315 317 318 319 321 323 326 327 327 326 326 327 327 327 327
314 315 314 313 313 312 311 313 314 313 315 316 314 314 314 313 313 312 311 311 310 310 309 310 309 309 309 309 310 309 309 310 310 311 312 312 312 312 312 312 313 316 320 324 321 320 322 322 323
314 313 313 312 314 313 313 314 312 315 314 315 313 314 314 313 312 311 311 310 310 309 308 309 309 309 309 308 308 309 309 309 309 309 309 308 308 308 307 307 306 307 308 309 310 311 312 310 310
313 314 314 313 315 313 311 312 311 312 314 315 314 313 313 312 311 311 311 311 310 309 308 308 308 307 308 308 308 308 308 308 307 307 307 307 308 308 308 308 307 307 306 305 306 306 306 307 306
314 314 314 315 315 313 311 311 312 313 314 314 314 314 313 313 312 311 311 311 310 308 308 307 305 305 305 306 306 307 307 307 307 307 306 306 306 307 307 307 308 308 308 309 309 308 307 306 306
314 314 315 316 315 313 312 314 311 312 313 315 314 312 312 311 311 311 311 311 310 307 306 304 302 301 301 302 303 303 304 304 303 302 302 302 302 303 303 304 304 305 306 306 306 306 306 305 306
314 315 314 315 314 314 313 312 311 311 313 315 313 312 311 310 311 311 311 310 308 306 305 303 301 301 300 300 300 300 301 301 300 301 301 301 301 302 302 302 303 303 302 302 303 303 303 302 301
315 315 313 312 312 314 313 313 314 310 314 315 313 311 311 311 311 311 310 309 307 306 304 302 301 300 300 300 300 300 300 301 301 301 301 301 301 301 301 301 300 300 301 300 298 298 298 299 299
313 315 316 314 312 315 314 314 315 312 312 315 313 311 311 311 310 309 308 307 306 304 303 301 301 300 300 300 300 301 301 301 301 301 301 300 299 299 298 297 297 296 295 295 295 295 296 297 297
313 315 316 316 315 314 313 314 313 315 314 315 314 312 308 309 309 309 308 306 305 304 301 300 300 300 300 300 300 301 301 301 301 300 299 298 296 296 296 296 295 294 295 294 294 296 296 295 296
314 314 314 316 316 313 312 312 315 316 315 315 313 309 308 308 309 308 306 305 304 303 301 299 299 299 299 299 300 300 300 299 299 298 297 296 295 296 297 296 296 295 295 294 293 293 293 293 292
313 313 316 315 316 316 314 313 315 317 315 314 311 309 307 308 308 307 306 305 304 302 301 299 299 298 298 298 298 297 297 296 296 296 295 295 294 296 295 294 293 293 293 293 292 292 291 292 292
313 315 315 315 315 315 315 313 311 316 315 313 311 308 307 308 308 306 305 304 303 302 300 299 298 298 297 297 296 295 295 294 293 293 292 293 293 294 293 291 290 292 291 292 291 291 291 291 291
311 314 315 316 315 314 314 314 315 314 315 314 312 308 309 309 307 306 305 304 303 302 300 299 298 297 297 295 293 294 293 292 292 291 291 291 290 290 291 289 287 290 290 290 290 289 289 290 289

GFSSGP_850_thetae_144.txt.gz
Theta_e
323 322 322 322 318 315 320 320 317 324 342 341 337 342 343 345 344 343 346 343 341 338 336 336 335 333 332 330 331 333 334 331 328 322 320 320 321 321 322 323 324 326 328 329 330 329 328 329 329
321 322 322 321 317 318 318 317 319 321 342 343 341 342 343 346 348 348 345 341 339 337 335 334 332 334 333 332 331 331 332 331 330 326 322 321 320 321 322 322 323 324 325 326 328 328 327 327 328
321 321 321 313 313 318 318 319 327 339 339 332 335 337 341 343 349 345 341 343 338 337 335 333 333 333 334 333 333 332 332 332 332 330 327 324 324 323 323 323 323 323 324 324 325 327 327 326 327
321 322 319 316 320 319 319 319 326 334 334 334 337 332 344 345 349 345 341 339 339 338 337 336 334 333 333 333 333 333 334 334 333 333 332 330 326 326 325 325 324 324 324 324 324 325 326 327 327
320 320 314 317 319 317 317 320 329 327 326 330 331 337 340 347 347 346 343 343 343 342 339 337 336 335 333 333 333 332 332 332 333 333 334 334 332 330 328 328 328 327 327 326 325 325 325 325 325
319 317 316 318 319 318 317 320 324 323 324 332 340 329 336 345 347 347 344 340 338 338 337 336 336 336 336 335 333 333 332 332 333 333 333 334 334 335 334 333 331 330 330 330 329 329 328 327 326
315 312 316 318 318 318 320 321 322 322 323 327 335 321 334 343 347 346 344 342 340 339 339 338 337 337 337 337 336 336 336 335 335 335 335 335 335 335 335 335 335 334 334 334 333 333 332 332 331
317 311 316 315 318 319 320 321 323 323 320 326 329 329 333 342 343 344 344 342 340 339 339 337 337 339 339 339 338 338 337 337 337 337 337 337 337 337 336 335 335 335 335 336 336 335 335 335 335
316 311 313 316 317 319 320 320 322 322 322 320 321 330 337 342 340 341 338 335 334 334 333 332 332 332 332 334 335 337 338 338 337 337 336 336 337 337 337 337 337 337 336 336 335 335 335 335 335
312 311 314 314 316 318 318 320 321 321 320 320 321 328 340 340 334 333 330 328 326 324 323 322 322 321 321 321 321 324 331 332 332 337 337 333 335 336 337 337 337 337 337 337 337 337 337 337 337
312 312 312 316 318 317 316 317 317 319 319 321 323 330 334 330 328 327 324 323 323 322 322 321 320 317 315 316 318 319 321 325 330 333 336 337 340 340 338 338 338 337 339 339 337 337 338 337 336
317 316 315 317 319 318 316 317 318 318 320 322 324 328 329 326 324 324 323 322 321 320 317 315 314 313 312 311 311 313 316 320 326 332 335 336 339 338 338 338 337 338 338 336 337 336 337 336 334
314 314 316 317 317 317 316 316 316 315 318 321 323 325 325 322 322 321 320 320 318 316 315 315 313 311 311 311 312 312 313 315 318 324 328 332 333 334 335 335 335 335 335 336 334 335 334 333 332
314 314 315 316 316 316 315 315 316 315 319 321 322 322 322 321 321 320 319 318 316 315 315 314 312 311 311 311 312 313 313 315 316 318 321 326 328 330 331 331 331 332 333 333 332 333 333 332 331
314 313 312 314 316 315 315 314 313 317 318 320 321 320 320 320 319 319 318 316 315 315 314 312 311 311 311 311 312 313 314 315 316 317 318 320 322 325 327 327 328 329 329 328 328 329 329 328 328
313 313 314 314 314 316 315 315 312 316 318 318 318 318 318 318 317 317 316 315 314 314 313 311 310 310 311 311 311 312 312 313 313 314 315 316 317 319 320 321 322 323 323 324 325 326 327 326 327
310 312 313 314 313 313 312 314 313 315 317 316 316 317 317 316 316 315 315 314 314 312 311 310 310 310 310 310 311 311 311 311 311 311 311 311 311 312 313 314 315 315 315 315 316 315 316 316 318
311 311 311 312 312 311 311 309 311 315 316 315 315 316 315 315 315 314 313 313 312 310 310 309 309 309 309 310 310 310 310 310 310 310 310 309 309 309 309 310 310 310 310 310 310 310 309 309 310
311 310 311 311 311 312 309 308 309 310 314 314 313 313 315 315 314 313 313 312 311 310 309 308 308 309 309 309 309 309 310 309 308 308 307 307 307 307 308 309 309 309 310 309 309 309 308 308 307
311 311 311 310 310 312 310 310 309 308 312 314 314 312 314 314 313 313 312 312 310 309 308 308 308 308 309 309 309 308 308 306 305 304 303 303 303 303 303 303 303 303 304 304 305 307 308 309 308
311 311 311 311 310 310 311 310 309 308 311 313 313 314 313 313 312 312 311 311 310 310 308 308 308 307 307 307 307 306 304 304 303 302 301 301 301 301 301 301 301 301 302 302 303 303 303 303 305
310 310 311 310 311 309 309 310 308 308 310 312 312 312 312 312 312 312 311 310 310 310 308 307 306 305 304 304 303 302 302 301 300 300 300 301 301 301 301 302 302 302 302 302 302 302 302 301 299
311 310 310 310 310 311 310 310 310 311 308 311 312 312 312 313 313 312 311 310 310 309 307 306 303 301 300 300 300 300 300 300 300 301 301 301 301 302 302 302 303 303 303 303 302 301 300 297 297
310 311 311 309 309 310 310 310 311 309 312 310 311 312 312 312 312 311 311 310 310 308 306 304 302 300 300 300 300 300 300 301 301 301 301 301 301 302 302 302 302 302 302 300 300 297 297 297 297
309 310 311 312 312 314 311 311 313 311 311 310 311 312 312 312 311 310 310 309 309 308 305 304 301 300 300 300 300 300 300 301 301 301 301 301 301 301 301 301 301 300 300 299 298 298 297 297 298
313 312 314 315 315 314 311 313 313 311 311 311 312 313 312 311 310 310 310 309 309 307 305 303 301 300 300 300 300 300 300 300 300 300 300 300 300 300 299 299 298 298 298 298 297 297 296 296 296
313 314 313 314 314 316 311 309 310 314 314 313 312 312 311 311 310 309 310 309 309 306 305 303 301 300 300 299 300 300 300 300 300 299 299 299 298 297 297 296 295 295 295 295 296 295 295 294 295
312 312 315 315 320 319 316 314 313 312 313 312 311 310 310 309 307 307 309 309 307 306 305 303 300 300 299 299 299 299 299 299 299 298 297 297 296 295 293 293 292 292 292 292 292 291 292 292 292
311 313 314 315 317 320 321 316 312 312 311 311 311 311 309 307 306 306 307 307 306 305 304 302 300 299 299 298 299 298 298 297 297 297 296 295 294 291 289 289 289 289 289 289 288 287 286 286 287
309 310 312 315 317 316 318 317 312 312 310 311 311 311 309 307 306 305 306 306 305 305 303 302 300 299 298 298 298 297 296 296 297 296 295 293 291 289 288 287 287 287 287 287 286 285 284 284 284

GFSSGP_850_thetae_147.txt.gz
Theta_e
322 321 322 322 324 324 325 324 320 332 339 338 339 342 345 346 345 348 346 342 340 340 339 338 337 337 336 334 333 333 332 329 323 320 321 321 323 323 324 325 327 329 329 330 330 330 330 330 330
322 321 322 321 325 326 326 321 323 331 342 343 342 344 347 349 348 346 343 341 340 339 337 336 335 335 334 334 333 333 334 332 328 323 322 322 322 322 323 324 325 326 327 329 330 329 329 329 330
321 321 321 322 320 326 325 321 322 340 336 334 337 339 343 344 348 344 343 339 338 337 335 334 332 333 334 333 332 333 334 334 333 329 324 324 322 322 323 323 323 324 325 326 327 327 328 327 328
321 321 319 323 323 323 321 323 338 339 329 334 337 341 345 344 347 343 343 341 338 336 335 333 331 332 333 333 333 333 334 333 334 334 332 329 326 326 325 325 324 324 324 325 325 325 327 327 327
321 320 323 323 322 321 320 321 341 336 329 336 338 343 339 345 346 342 340 340 338 337 337 335 334 332 332 333 333 333 333 333 333 334 334 334 333 330 328 328 328 327 326 326 326 326 326 326 327
320 318 323 322 322 321 320 322 336 327 328 331 343 340 337 345 343 342 341 341 342 340 338 337 336 335 333 332 333 333 332 332 332 332 332 333 334 334 334 332 331 330 330 330 330 329 329 328 328
320 321 322 321 322 321 321 320 333 326 330 334 337 335 335 344 345 344 342 340 339 338 337 336 336 336 336 336 335 333 333 333 333 333 333 334 334 334 335 335 335 334 334 333 333 333 332 332 332
317 319 320 319 322 323 320 321 327 327 328 336 333 337 339 343 345 343 341 340 339 337 337 337 337 336 336 336 336 336 336 336 336 336 336 336 336 335 335 335 336 336 336 335 335 335 335 335 334
316 318 319 319 319 321 319 322 321 323 324 325 327 333 337 343 342 343 342 341 339 338 336 333 332 331 330 330 331 333 336 337 337 337 337 337 337 337 337 337 336 336 336 336 335 335 335 335 335
315 317 318 317 317 319 319 321 321 322 322 322 322 326 337 342 341 340 341 337 335 332 330 326 323 322 321 321 321 322 327 332 334 335 337 337 336 336 337 337 337 337 337 337 337 337 337 337 337
312 317 315 316 316 317 317 317 319 321 323 324 324 328 339 340 338 338 335 330 327 324 322 321 320 319 317 315 315 317 319 323 326 328 332 336 338 340 340 337 337 337 336 338 337 336 335 336 337
317 316 314 316 317 317 317 316 319 321 322 322 323 328 339 338 338 334 330 325 322 322 321 321 318 315 315 313 312 311 313 317 321 325 327 331 336 336 336 336 336 336 335 335 337 334 336 335 335
315 316 315 316 316 316 316 316 319 318 319 321 322 330 337 337 334 328 324 322 321 320 319 316 315 314 312 310 311 311 311 313 314 318 321 325 330 331 333 334 334 334 333 333 334 334 334 334 333
314 314 314 315 315 315 316 315 315 316 318 321 323 328 333 331 328 324 322 321 320 318 316 314 314 312 311 311 311 312 312 313 314 315 317 320 325 328 329 329 329 330 330 331 331 331 330 331 330
313 315 315 315 316 317 315 316 316 315 318 320 323 326 329 326 323 322 321 319 318 316 314 314 313 310 310 311 311 312 313 314 315 315 316 318 319 321 323 326 327 326 326 326 326 326 326 325 327
314 314 316 315 316 316 316 320 317 315 318 320 320 323 324 322 321 320 319 317 317 314 314 313 311 310 310 310 311 311 311 312 312 313 313 314 315 316 317 317 318 318 318 318 319 319 319 320 321
312 314 315 315 314 316 316 319 318 315 318 319 319 319 320 320 319 318 318 316 315 313 313 312 311 310 310 310 310 310 310 310 310 310 310 310 310 310 310 311 311 311 311 311 312 312 312 313 313
314 314 313 314 315 314 316 316 315 315 317 318 318 318 317 318 319 317 316 315 313 313 313 312 310 309 309 309 310 310 310 310 310 310 309 308 308 308 308 309 309 309 309 310 310 310 310 310 310
311 311 312 313 313 313 314 315 315 314 316 317 316 316 316 317 316 315 314 314 313 312 311 310 309 309 309 309 309 309 309 309 308 306 305 304 304 303 304 304 304 304 304 304 304 305 305 306 307
312 313 313 312 312 313 313 314 314 313 313 316 316 316 315 314 315 315 314 313 312 312 310 309 308 308 308 309 309 309 308 306 304 303 302 301 301 301 301 301 301 301 301 301 301 301 302 302 303
312 312 312 312 312 312 312 313 313 312 313 314 315 316 316 315 314 314 313 312 311 311 310 309 308 308 308 308 308 307 305 303 302 301 301 301 301 301 302 302 302 302 302 302 302 302 302 301 302
313 311 312 312 311 312 310 315 315 312 311 312 314 314 314 314 313 313 313 312 311 310 309 308 308 308 308 307 307 305 303 302 301 301 301 301 301 302 302 302 302 302 303 303 303 303 303 303 302
314 311 312 312 312 312 312 312 317 313 312 311 313 314 314 313 313 313 313 312 311 310 309 308 307 306 306 305 303 302 301 301 300 301 301 301 301 301 302 302 302 302 302 303 303 303 304 304 302
311 312 312 311 312 314 314 314 318 318 314 314 313 313 313 313 311 311 311 311 311 310 309 307 305 303 302 301 301 300 300 300 301 301 301 301 301 301 301 301 301 301 301 302 302 302 301 301 299
311 312 315 315 315 317 314 313 317 316 314 314 315 312 313 312 311 310 310 311 310 310 308 306 303 301 300 300 300 300 300 300 301 301 300 300 300 300 300 300 300 300 300 300 300 300 300 299 299
312 312 317 321 320 318 312 315 316 313 313 312 312 312 313 312 311 310 309 310 310 309 308 306 303 300 300 300 300 300 300 300 300 300 300 300 299 299 299 298 298 298 298 297 296 295 295 296 297
313 314 314 316 316 318 317 316 316 315 315 314 313 312 312 311 310 309 307 309 309 309 307 305 302 300 300 300 300 300 300 300 300 299 299 298 298 297 296 295 294 294 293 292 292 291 291 292 293
313 313 316 317 320 321 319 317 319 317 316 316 315 314 312 310 309 308 307 308 309 308 307 304 302 300 300 299 300 300 300 299 298 298 297 297 297 295 293 291 290 290 290 290 289 288 288 287 288
311 312 314 315 318 319 317 318 316 316 315 314 314 313 312 310 308 306 305 306 308 307 305 303 301 300 299 299 299 300 300 298 297 297 296 296 294 292 291 290 289 288 288 288 287 287 286 286 285
311 311 311 314 317 320 318 317 316 315 315 314 314 312 311 310 309 306 305 307 307 306 304 303 301 299 299 299 299 299 298 298 297 296 296 294 293 291 289 288 288 287 287 287 286 286 285 284 284

GFSSGP_850_thetae_150.txt.gz
Theta_e
322 322 321 323 328 327 327 328 329 334 339 338 337 340 340 345 342 349 348 346 347 346 341 340 339 337 334 333 333 333 329 322 320 322 324 326 327 326 326 327 328 329 329 329 329 329 329 329 329
322 321 322 325 327 326 327 327 330 336 339 341 342 345 345 351 350 349 347 343 344 344 342 339 338 337 335 333 333 333 332 328 323 321 322 323 324 324 326 327 328 329 329 330 330 329 328 328 329
322 321 324 326 326 326 327 327 331 338 342 343 341 345 348 352 349 348 344 342 343 341 338 337 336 336 334 332 332 333 333 331 327 324 323 323 324 325 325 326 326 327 327 329 329 329 328 328 328
321 323 323 326 326 327 327 327 328 340 337 340 342 347 347 345 346 346 341 340 339 338 336 335 334 334 334 332 331 332 332 332 332 330 326 325 324 324 324 325 325 325 325 326 327 327 327 327 327
322 323 325 325 325 326 326 327 330 338 335 339 342 346 347 345 346 342 341 338 337 336 334 333 333 333 334 333 333 332 332 332 333 333 332 330 328 327 327 327 327 327 326 326 326 325 326 326 326
323 324 325 324 324 326 327 326 335 335 336 339 340 343 344 345 344 341 342 340 338 337 336 335 334 333 333 333 334 334 333 333 333 333 333 334 334 333 331 329 329 329 329 329 328 328 328 327 327
323 325 324 324 323 326 327 326 336 334 335 337 341 342 340 345 341 341 340 340 340 339 338 337 337 336 335 333 333 333 333 332 332 332 332 332 333 334 335 335 334 332 332 331 331 331 331 331 331
321 324 324 324 323 324 325 326 334 333 334 338 339 340 343 343 343 342 343 342 341 340 338 337 337 336 336 336 336 336 335 335 335 334 334 334 334 334 335 336 336 336 336 335 335 335 335 334 334
318 322 322 323 323 324 323 325 325 333 331 334 333 335 339 342 344 342 340 339 338 337 337 337 337 336 336 335 335 337 338 337 337 337 337 337 337 337 336 336 336 336 336 336 336 336 335 336 335
320 321 321 322 323 324 324 324 325 328 331 331 331 331 336 342 344 337 335 334 339 338 336 333 332 329 325 323 323 324 331 334 336 338 338 338 338 338 338 338 337 337 337 337 337 337 337 337 337
319 320 321 320 320 321 321 322 325 326 331 331 332 333 333 336 342 338 336 332 330 334 331 325 322 321 318 316 315 317 320 325 329 331 332 334 337 337 337 339 339 338 338 337 337 337 337 336 337
318 318 319 319 319 320 322 321 324 325 327 328 330 332 333 335 335 337 333 327 331 327 323 321 319 316 315 315 314 313 313 316 320 324 325 328 333 336 336 337 337 337 336 335 335 336 334 334 335
319 318 318 319 319 319 319 320 322 323 325 324 326 331 333 334 335 333 330 327 327 323 321 320 317 315 315 313 311 311 311 312 314 318 323 325 329 332 333 334 334 335 335 334 334 333 333 334 334
318 318 318 318 318 318 319 320 320 321 322 324 328 330 332 334 333 329 325 324 324 321 319 318 316 315 313 311 311 311 311 312 313 315 318 322 325 328 329 330 330 330 329 330 330 332 331 331 330
317 318 319 318 318 319 318 320 320 321 322 324 326 328 330 332 330 327 323 322 321 320 318 316 314 314 311 310 311 311 312 313 314 315 316 318 320 322 325 326 327 327 328 327 327 326 325 326 326
318 319 320 319 318 318 319 318 319 321 322 324 325 327 328 329 328 325 321 319 319 318 316 314 314 313 311 310 311 311 311 312 312 313 314 314 315 316 316 317 317 317 317 317 316 316 316 316 316
320 321 321 320 318 319 320 319 320 320 321 321 323 325 326 327 325 323 319 318 317 317 315 314 313 312 310 310 310 310 310 310 310 310 310 310 310 310 310 310 310 310 310 310 310 310 310 310 310
323 321 321 320 320 318 319 319 320 320 320 321 322 323 325 325 324 322 318 316 315 315 314 313 312 311 310 310 310 310 310 310 310 310 309 309 308 308 308 307 307 307 306 305 305 305 305 305 305
320 320 320 319 318 317 318 319 319 318 319 321 321 322 323 324 324 321 317 315 315 314 313 313 312 310 310 309 309 309 310 310 309 307 306 304 303 302 302 302 302 301 301 301 302 302 302 303 302
318 318 320 320 318 317 318 319 320 319 318 318 319 321 322 322 322 320 316 313 314 314 313 312 311 310 309 309 310 309 309 308 306 303 302 301 301 301 301 302 302 302 302 302 302 302 303 305 303
318 319 321 321 319 318 319 320 321 320 318 317 316 317 319 320 322 320 316 314 313 313 312 312 311 310 309 309 309 309 308 305 303 301 301 301 302 302 302 302 302 302 303 303 303 304 304 305 305
320 320 317 317 319 323 318 323 323 322 320 317 316 316 317 318 320 320 316 314 313 312 312 311 310 309 308 308 308 308 307 304 302 301 301 302 302 302 302 302 302 303 303 303 303 303 303 303 303
318 317 317 318 319 321 321 321 323 320 320 319 317 316 317 317 318 320 317 314 313 311 311 311 310 308 308 308 308 307 305 303 301 301 301 301 302 302 302 302 302 302 302 303 303 303 303 302 302
315 315 316 317 318 321 321 322 323 323 319 318 319 316 316 316 317 318 317 314 312 310 309 310 309 308 307 307 307 305 303 301 301 301 301 301 301 301 301 301 301 301 301 301 301 301 301 300 300
314 316 321 321 320 321 319 320 321 321 318 318 318 317 318 317 317 317 316 314 311 309 307 308 308 307 307 306 305 303 301 300 301 301 301 301 301 301 301 300 300 300 299 299 298 297 297 297 297
318 317 320 324 324 323 317 319 320 319 317 317 317 317 317 317 317 316 315 313 311 308 306 307 306 304 304 303 302 301 300 300 301 301 301 301 300 300 299 298 298 297 296 296 295 293 293 293 293
316 317 316 319 320 321 320 320 320 318 318 318 317 317 318 317 316 316 314 312 311 307 305 305 304 303 302 300 300 300 300 301 301 301 301 300 299 299 297 296 295 292 291 291 291 290 290 290 290
315 315 319 320 323 322 319 320 320 319 318 318 318 316 316 317 315 314 314 311 310 307 304 305 305 303 300 299 299 300 300 300 300 300 300 299 298 297 293 292 291 290 290 290 289 289 288 288 288
314 314 314 316 319 321 318 317 317 317 318 317 316 315 315 315 315 314 312 311 308 306 303 304 304 302 300 299 299 299 299 300 300 299 298 298 297 293 291 291 290 290 289 289 288 287 287 287 286
311 312 314 317 317 318 318 317 315 316 314 311 312 312 312 313 313 313 312 309 307 305 303 303 302 300 299 299 299 299 299 299 298 298 298 297 293 292 290 290 289 289 288 287 286 286 286 285 286

GFSSGP_850_thetae_153.txt.gz
Theta_e
323 325 324 325 329 329 329 329 330 330 334 336 334 337 339 350 346 355 350 349 348 349 337 337 336 334 332 332 333 329 322 320 324 327 333 336 335 332 329 329 329 330 329 329 329 329 328 328 328
321 324 324 326 328 329 329 330 329 332 336 337 338 342 342 351 351 350 349 347 347 346 347 339 337 335 333 332 333 332 328 321 320 322 326 330 330 328 327 328 329 330 329 329 329 329 328 327 328
321 323 325 329 328 328 329 330 329 336 340 338 341 342 347 353 351 350 348 346 345 346 347 338 336 336 334 333 332 333 331 327 322 321 321 323 324 324 324 326 328 329 329 329 330 329 328 327 327
323 324 324 326 327 329 328 329 329 337 340 339 338 345 350 348 350 349 347 346 346 346 341 338 336 336 334 333 332 332 333 330 328 323 323 322 322 323 323 324 326 326 327 327 328 327 327 326 326
323 324 327 328 327 328 328 328 328 335 337 337 338 348 350 344 347 347 346 345 345 345 338 336 335 335 334 334 332 332 332 333 332 331 327 325 325 324 324 324 324 325 325 326 326 326 326 326 325
324 325 327 327 327 327 327 327 330 333 334 335 337 344 347 343 345 347 344 344 344 344 336 334 333 334 334 334 334 333 333 333 333 334 333 332 330 328 327 327 327 327 327 327 326 327 327 327 326
323 327 328 327 327 326 327 327 330 333 335 336 338 341 345 343 343 343 343 342 342 339 341 334 334 333 333 334 334 334 334 334 333 333 333 334 334 334 333 332 330 330 329 330 330 330 330 330 330
322 325 326 326 326 326 327 327 328 334 334 335 338 339 342 344 342 341 341 341 340 338 338 339 337 336 335 334 334 333 333 333 333 333 333 333 334 334 335 336 335 334 334 333 333 333 333 333 333
320 323 324 325 326 326 326 327 327 333 333 337 339 338 343 342 340 339 340 339 339 340 339 338 338 339 337 337 337 337 337 336 337 337 336 336 336 338 336 336 336 336 336 336 336 336 336 336 336
321 323 324 324 325 324 324 325 326 329 334 333 335 335 344 340 339 340 339 339 338 337 337 337 337 338 337 338 334 336 336 338 339 339 339 338 338 338 338 338 337 337 337 336 337 336 336 336 338
320 321 322 322 322 322 323 323 324 327 330 331 333 337 339 339 340 340 340 339 338 335 332 335 333 332 326 329 332 334 335 334 332 336 336 336 337 339 342 341 340 338 338 338 337 337 338 339 341
321 320 319 320 321 321 322 322 323 325 327 328 330 334 338 338 340 341 340 338 336 332 329 330 326 322 319 318 326 326 327 327 328 322 328 329 332 336 337 336 336 336 337 336 335 335 335 335 335
320 320 319 319 320 320 320 321 323 323 324 327 328 335 337 338 339 340 339 336 332 329 326 324 321 318 315 315 316 315 315 318 316 317 321 326 330 331 332 334 335 336 336 335 335 335 335 334 333
321 320 320 320 320 319 320 320 320 322 322 325 327 329 334 337 337 338 337 332 329 327 325 322 319 317 315 315 312 310 311 312 313 313 315 321 323 324 326 329 327 329 330 330 330 330 330 330 330
321 321 321 321 320 320 319 320 321 320 322 324 326 328 332 334 336 337 335 331 328 325 324 321 319 317 315 313 311 311 311 312 313 313 314 316 321 323 325 323 323 325 326 327 327 328 327 325 324
321 322 323 322 322 321 320 320 322 320 320 323 324 327 329 331 334 334 332 329 326 324 323 322 318 315 314 313 311 311 311 312 312 313 313 314 316 317 319 317 319 320 319 319 317 317 317 317 318
324 323 323 324 322 321 321 321 322 321 321 322 323 325 327 330 332 332 330 328 325 323 322 321 317 315 314 312 310 310 310 311 311 311 311 311 311 312 312 312 312 311 311 311 311 311 310 313 314
326 326 325 324 323 323 322 322 322 321 322 322 322 323 325 327 328 330 329 326 324 322 322 320 317 315 313 311 310 310 310 310 310 310 310 310 310 309 309 309 308 308 307 306 305 304 304 308 307
325 325 325 324 324 323 322 322 323 322 322 322 322 321 322 324 326 328 327 324 322 321 320 320 318 315 313 311 311 311 311 310 309 310 309 308 306 305 304 303 303 302 302 302 302 303 307 310 304
323 324 325 324 324 324 323 323 324 324 323 321 321 322 322 323 324 326 327 324 321 320 319 319 318 315 313 313 314 314 312 310 309 308 305 303 302 302 302 302 302 302 304 303 303 303 307 309 304
324 324 325 325 325 324 324 325 325 325 324 323 321 320 321 322 322 324 326 323 320 319 318 318 318 317 315 314 314 312 310 309 307 304 302 302 302 302 302 302 303 303 303 303 303 303 304 309 308
325 323 324 324 323 325 325 329 326 325 325 324 322 321 320 320 321 322 325 323 320 318 318 317 317 316 315 314 312 310 309 308 306 305 302 302 302 302 302 302 303 303 303 303 303 303 304 307 307
324 322 321 322 323 324 325 326 325 324 324 324 322 320 319 319 319 320 321 324 321 318 317 317 316 316 314 313 311 310 311 309 306 304 302 302 302 302 302 302 302 302 302 303 303 303 303 304 305
319 319 320 321 322 326 324 324 325 325 322 321 321 320 319 320 318 319 319 323 321 318 317 316 315 314 314 312 312 311 311 307 305 303 302 302 302 302 302 302 302 302 302 302 302 302 301 301 301
318 320 323 325 324 324 322 323 324 323 321 320 321 320 319 319 320 319 319 322 321 318 317 315 313 312 312 312 312 312 310 306 305 304 304 303 302 302 302 301 301 301 301 300 300 299 298 297 297
321 321 322 325 324 324 324 323 323 322 320 319 319 319 319 320 319 319 319 320 320 318 316 314 312 311 311 311 311 310 308 305 305 304 303 303 302 301 301 301 300 299 298 298 296 295 295 294 294
319 320 319 321 323 324 322 323 323 322 321 319 318 318 318 318 318 318 318 318 318 317 315 313 311 310 309 310 309 307 306 305 304 303 302 301 301 301 300 299 298 296 294 293 292 292 292 293 293
317 318 321 321 323 322 320 320 320 321 320 319 318 315 314 315 316 317 317 317 317 316 314 311 310 309 307 306 305 304 304 303 302 301 300 299 299 299 298 297 296 293 292 291 291 291 290 291 291
316 317 317 318 321 322 321 320 320 318 317 317 315 312 313 313 314 314 316 316 315 314 313 310 308 306 304 303 303 302 302 301 301 300 299 298 298 297 296 295 294 292 291 290 290 289 288 290 290
313 314 316 319 318 319 320 321 318 316 315 314 312 310 313 313 313 314 315 316 315 313 312 309 306 305 303 303 302 301 300 300 299 298 298 298 297 295 296 294 292 290 289 289 289 289 289 289 289

GFSSGP_850_thetae_156.txt.gz
Theta_e
319 325 326 326 328 330 329 329 330 330 331 335 334 339 351 353 357 352 344 347 347 346 329 331 331 330 330 330 329 322 318 325 331 337 333 334 334 331 330 329 329 329 329 329 329 328 328 328 327
319 323 325 326 330 328 329 331 330 330 337 334 338 337 348 354 353 351 349 349 350 345 334 334 333 332 330 330 331 328 322 320 321 325 329 332 330 328 327 328 328 329 329 329 329 328 328 327 327
322 324 325 329 328 327 329 331 330 340 339 335 337 342 351 352 352 351 349 348 347 345 341 335 334 333 332 331 332 332 328 321 320 320 323 325 326 326 325 326 327 327 327 328 328 327 327 326 326
320 325 325 325 326 327 328 329 329 337 338 336 338 352 352 352 351 349 347 346 346 348 345 337 335 334 333 332 331 332 331 327 323 321 321 322 322 323 324 324 325 326 326 326 327 327 326 326 326
321 324 327 328 327 328 329 328 328 329 337 337 337 349 349 350 349 348 347 346 347 347 342 338 336 335 334 333 332 332 332 332 329 326 323 322 322 323 323 324 324 324 324 324 325 325 325 324 325
322 325 326 327 327 328 328 328 328 329 334 334 335 348 349 347 348 348 346 346 346 343 337 337 336 335 335 334 333 332 332 333 332 332 330 328 326 325 325 325 325 325 325 324 324 324 325 325 325
320 324 326 327 327 327 328 328 328 329 331 334 334 339 346 346 349 347 346 346 346 343 336 335 334 334 334 334 334 334 333 333 333 333 334 334 333 331 329 328 328 328 328 328 328 328 328 329 329
319 323 324 325 326 326 328 327 327 327 332 334 336 338 346 346 347 346 345 345 344 343 339 334 333 333 334 334 334 335 335 334 334 333 333 333 334 335 335 334 333 332 331 331 330 331 331 332 332
319 321 322 324 325 326 327 326 326 326 332 336 339 340 345 344 345 344 344 343 343 342 345 340 336 335 335 334 334 334 334 334 335 334 334 334 336 337 337 335 335 335 335 335 334 334 334 335 335
320 322 323 324 324 325 325 325 325 326 329 335 337 344 346 344 343 343 343 342 342 341 341 341 343 342 339 337 337 337 337 338 337 337 337 337 337 343 343 342 337 337 337 337 336 336 336 336 336
321 321 322 322 322 322 322 322 324 325 327 330 334 341 344 343 342 342 342 341 341 340 339 338 337 338 338 339 331 329 331 330 329 340 340 342 342 342 342 341 338 338 337 337 337 337 336 337 337
321 321 321 321 319 320 321 322 322 323 324 326 328 334 339 341 341 342 341 340 340 338 336 335 336 335 332 329 328 333 334 334 331 323 332 335 329 333 334 335 336 336 336 335 335 337 337 335 336
321 320 320 320 319 320 321 321 321 322 323 324 327 332 341 340 341 342 341 340 339 335 331 331 331 329 323 321 322 322 322 323 321 319 317 328 328 326 330 332 333 333 334 335 334 333 334 335 334
322 322 322 321 321 321 321 320 320 321 321 322 324 333 339 339 340 341 341 339 338 333 330 328 327 322 319 316 317 315 313 313 313 312 312 322 325 325 327 327 328 329 330 331 331 331 331 331 331
322 322 322 322 321 321 321 321 320 320 320 321 322 325 331 337 338 339 340 338 335 331 328 326 324 321 318 317 315 312 311 311 311 311 312 314 319 320 323 325 325 326 327 328 328 327 327 327 325
323 323 323 323 322 322 322 322 321 321 321 320 322 324 326 330 335 337 339 337 332 329 327 325 324 321 318 316 314 312 311 311 311 311 311 313 315 316 322 322 322 323 323 324 324 323 323 321 320
323 324 324 325 324 324 322 322 322 321 321 322 321 323 324 328 332 334 337 336 332 328 326 325 324 321 317 315 314 312 311 311 311 311 311 312 313 315 316 316 316 316 315 315 315 314 312 312 313
325 326 326 326 325 325 323 323 323 322 322 322 322 323 324 326 328 332 335 334 331 327 325 325 323 320 317 315 313 312 311 310 310 310 310 310 310 311 311 310 310 310 310 310 309 308 306 306 305
325 326 326 326 326 326 325 325 324 323 323 323 323 323 323 323 326 329 333 333 329 326 325 324 322 320 317 314 313 311 311 310 310 309 310 310 310 309 309 308 306 305 305 303 303 303 304 306 304
325 326 325 325 325 326 325 325 325 324 324 324 324 323 323 322 322 327 330 331 329 325 323 323 321 320 317 315 313 312 311 310 310 309 309 309 307 305 304 303 302 304 303 303 303 303 307 307 304
324 324 325 326 325 325 325 326 325 325 325 325 324 324 323 322 322 323 330 330 328 324 322 322 321 320 318 316 315 315 314 311 310 309 308 305 303 302 302 302 303 303 304 303 303 303 306 309 306
325 325 326 325 325 327 325 327 325 325 326 326 325 325 324 322 321 322 327 328 327 324 322 321 320 320 319 316 315 315 314 311 309 308 305 303 302 302 302 303 303 303 303 303 303 303 305 308 307
325 324 325 323 323 324 324 325 325 326 325 323 322 321 321 320 321 320 320 327 327 324 321 320 319 319 319 316 315 314 312 310 308 306 304 302 302 302 303 303 303 303 303 303 303 303 303 305 305
319 321 322 322 322 326 324 324 325 324 322 322 321 321 321 321 321 321 320 322 325 322 320 319 318 318 318 316 315 313 311 310 308 307 304 302 302 302 303 302 303 302 302 302 302 302 302 302 303
318 320 323 324 326 326 323 324 325 323 322 321 321 320 320 320 320 320 320 325 323 321 320 319 318 317 317 316 315 313 312 311 308 306 303 303 302 302 302 302 302 302 302 302 301 301 300 300 299
320 320 323 324 327 325 324 325 324 323 321 320 320 318 318 318 318 319 318 319 322 321 320 318 317 316 315 314 314 313 312 312 308 306 305 304 303 303 302 302 301 301 301 300 300 299 297 296 296
322 321 321 325 324 326 323 322 321 321 322 320 319 317 314 314 314 316 318 317 316 320 320 318 317 315 314 313 313 312 312 311 307 306 305 304 303 303 301 301 300 300 299 297 296 295 294 293 293
320 318 323 323 325 324 320 320 321 319 319 318 319 314 312 313 314 314 314 318 317 318 319 317 317 315 312 312 311 311 311 309 306 305 304 303 303 301 300 300 299 298 296 295 293 293 292 292 292
316 318 319 320 322 323 321 320 318 318 317 317 317 313 311 313 314 314 314 315 317 317 317 316 315 314 312 310 310 310 309 307 305 304 303 302 301 300 299 299 297 295 293 293 293 293 290 291 290
317 318 317 322 320 322 321 320 319 318 315 313 312 311 310 313 313 313 312 313 315 316 315 315 314 311 310 308 308 308 306 304 304 303 301 300 299 298 298 296 295 294 293 292 292 291 290 290 290